[[{"header":{"parameterUnit":"m.s-1","parameterCategory":1,"la1":30.6,"la2":29.2853,"lo1":-89.7004,"lo2":-87.6739,"dx":0.0162,"dy":0.0183,"nx":112,"ny":82,"refTime":"2022-12-04T06:00:00:Z","depth":0,"parameterNumber":2,"parameterNumberName":"U-component_of_WINDS"},"data":[0.0,0.0,0.0,0.0,0.0,0.0,0.0,0.0,0.0,0.0,0.0,0.0,0.0,0.0,0.0,0.0,0.0,0.0,0.0,0.0,0.0,0.0,0.0,0.0,0.0,0.0,0.0,0.0,0.0,0.0,0.0,0.0,0.0,0.0,0.0,0.0,0.0,0.0,0.0,0.0,0.0,0.0,0.0,0.0,0.0,0.0,0.0,0.0,0.0,0.0,0.0,0.0,0.0,0.0,0.0,0.0,0.0,0.0,0.0,0.0,0.0,0.0,0.0,0.0,0.0,0.0,0.0,0.0,0.0,0.0,0.0,0.0,0.0,0.0,0.0,0.0,0.0,0.0,0.0,0.0,0.0,0.0,0.0,0.0,0.0,0.0,0.0,0.0,0.0,0.0,-5.1756,-5.2142,-5.2803,-5.3185,-5.3185,-5.3185,-5.216,-4.9664,0.0,0.0,0.0,0.0,0.0,0.0,0.0,0.0,0.0,0.0,0.0,0.0,0.0,0.0,0.0,0.0,0.0,0.0,0.0,0.0,0.0,0.0,0.0,0.0,0.0,0.0,0.0,0.0,0.0,0.0,0.0,0.0,0.0,0.0,0.0,0.0,0.0,0.0,0.0,0.0,0.0,0.0,0.0,0.0,0.0,0.0,0.0,0.0,0.0,0.0,0.0,0.0,0.0,0.0,0.0,0.0,0.0,0.0,0.0,0.0,0.0,0.0,0.0,0.0,0.0,0.0,0.0,0.0,0.0,0.0,0.0,0.0,0.0,0.0,0.0,0.0,0.0,0.0,0.0,0.0,0.0,0.0,0.0,0.0,0.0,0.0,0.0,0.0,0.0,0.0,0.0,0.0,0.0,0.0,0.0,0.0,0.0,0.0,0.0,0.0,0.0,0.0,0.0,0.0,-5.0767,-5.2803,-5.3133,-5.3185,-5.3185,-5.3185,-5.2179,-4.9739,0.0,0.0,0.0,0.0,0.0,0.0,0.0,0.0,0.0,0.0,0.0,0.0,0.0,0.0,0.0,0.0,0.0,0.0,0.0,0.0,0.0,0.0,0.0,0.0,0.0,0.0,0.0,0.0,0.0,0.0,0.0,0.0,0.0,0.0,0.0,0.0,0.0,0.0,0.0,0.0,0.0,0.0,0.0,0.0,0.0,0.0,0.0,0.0,0.0,0.0,0.0,0.0,0.0,0.0,0.0,0.0,0.0,0.0,0.0,0.0,0.0,0.0,0.0,0.0,0.0,0.0,0.0,0.0,0.0,0.0,0.0,0.0,0.0,0.0,0.0,0.0,0.0,0.0,0.0,0.0,0.0,0.0,0.0,0.0,0.0,0.0,0.0,0.0,0.0,0.0,0.0,0.0,0.0,0.0,0.0,0.0,0.0,0.0,0.0,0.0,0.0,0.0,0.0,-4.9994,-5.1004,-5.2983,-5.3185,-5.3185,-5.3185,-5.3185,-5.1977,-4.9077,-4.8893,0.0,0.0,0.0,0.0,0.0,0.0,0.0,0.0,0.0,0.0,0.0,0.0,0.0,0.0,0.0,0.0,0.0,0.0,0.0,0.0,0.0,0.0,0.0,0.0,0.0,0.0,0.0,0.0,0.0,0.0,0.0,0.0,0.0,0.0,0.0,0.0,0.0,0.0,0.0,0.0,0.0,0.0,0.0,0.0,0.0,0.0,0.0,0.0,0.0,0.0,0.0,0.0,0.0,0.0,0.0,0.0,0.0,0.0,0.0,0.0,0.0,0.0,0.0,0.0,0.0,0.0,0.0,0.0,0.0,0.0,0.0,0.0,0.0,0.0,0.0,0.0,0.0,0.0,0.0,0.0,0.0,0.0,0.0,0.0,0.0,0.0,0.0,0.0,0.0,0.0,0.0,0.0,0.0,0.0,0.0,0.0,0.0,0.0,0.0,0.0,0.0,0.0,-5.0894,-5.1848,-5.3057,-5.3185,-5.3185,-5.3185,-5.3185,-5.1791,-4.8526,-4.8306,0.0,0.0,0.0,0.0,0.0,0.0,0.0,0.0,0.0,0.0,0.0,0.0,0.0,0.0,0.0,0.0,0.0,0.0,0.0,0.0,0.0,0.0,0.0,0.0,0.0,0.0,0.0,0.0,0.0,0.0,0.0,0.0,0.0,0.0,0.0,0.0,0.0,0.0,0.0,0.0,0.0,0.0,0.0,0.0,0.0,0.0,0.0,0.0,0.0,0.0,0.0,0.0,0.0,0.0,0.0,0.0,0.0,0.0,0.0,0.0,0.0,0.0,0.0,0.0,0.0,0.0,0.0,0.0,0.0,0.0,0.0,0.0,0.0,0.0,0.0,0.0,0.0,0.0,0.0,0.0,0.0,0.0,0.0,0.0,0.0,0.0,0.0,0.0,0.0,0.0,0.0,0.0,0.0,0.0,0.0,0.0,0.0,0.0,0.0,0.0,0.0,0.0,-5.1151,-5.3057,-5.3185,-5.3185,-5.3185,-5.3185,-5.3185,-5.1791,-4.8526,-4.8306,0.0,0.0,0.0,0.0,0.0,0.0,0.0,0.0,0.0,0.0,0.0,0.0,0.0,0.0,0.0,0.0,0.0,0.0,0.0,0.0,0.0,0.0,0.0,0.0,0.0,0.0,0.0,0.0,0.0,0.0,0.0,0.0,0.0,0.0,0.0,0.0,0.0,0.0,0.0,0.0,0.0,0.0,0.0,0.0,0.0,0.0,0.0,0.0,0.0,0.0,0.0,0.0,0.0,0.0,0.0,0.0,0.0,0.0,0.0,0.0,0.0,0.0,0.0,0.0,0.0,0.0,0.0,0.0,0.0,0.0,0.0,0.0,0.0,0.0,0.0,0.0,0.0,0.0,0.0,0.0,0.0,0.0,0.0,0.0,0.0,0.0,0.0,0.0,0.0,0.0,0.0,0.0,0.0,0.0,0.0,0.0,0.0,0.0,0.0,0.0,0.0,0.0,-5.0306,-5.2105,-5.3075,-5.3185,-5.3185,-5.3185,-5.3185,-5.1791,-4.8526,0.0,0.0,0.0,0.0,0.0,0.0,0.0,0.0,0.0,0.0,0.0,0.0,0.0,0.0,0.0,0.0,0.0,0.0,0.0,0.0,0.0,0.0,0.0,0.0,0.0,0.0,0.0,0.0,0.0,0.0,0.0,0.0,0.0,0.0,0.0,0.0,0.0,0.0,0.0,0.0,0.0,0.0,0.0,0.0,0.0,0.0,0.0,0.0,0.0,0.0,0.0,0.0,0.0,0.0,0.0,0.0,0.0,0.0,0.0,0.0,0.0,0.0,0.0,0.0,0.0,0.0,0.0,0.0,0.0,0.0,0.0,0.0,0.0,0.0,0.0,0.0,0.0,0.0,0.0,0.0,0.0,0.0,0.0,0.0,0.0,0.0,0.0,0.0,0.0,0.0,0.0,0.0,0.0,0.0,0.0,0.0,0.0,0.0,0.0,0.0,0.0,0.0,-4.8159,-5.0215,-5.1995,-5.3075,-5.3185,-5.3185,-5.3185,-5.3185,-5.1681,-4.8141,0.0,0.0,0.0,0.0,0.0,0.0,0.0,0.0,0.0,0.0,0.0,0.0,0.0,0.0,0.0,0.0,0.0,0.0,0.0,0.0,0.0,0.0,0.0,0.0,0.0,0.0,0.0,0.0,0.0,0.0,0.0,0.0,0.0,0.0,0.0,0.0,0.0,0.0,0.0,0.0,0.0,0.0,0.0,0.0,0.0,0.0,0.0,0.0,0.0,0.0,0.0,0.0,0.0,0.0,0.0,0.0,0.0,0.0,0.0,0.0,0.0,0.0,0.0,0.0,0.0,0.0,0.0,0.0,0.0,0.0,0.0,0.0,0.0,0.0,0.0,0.0,0.0,0.0,0.0,0.0,0.0,0.0,0.0,0.0,0.0,0.0,0.0,0.0,0.0,0.0,0.0,0.0,0.0,0.0,0.0,0.0,0.0,0.0,0.0,0.0,0.0,0.0,-4.8306,-5.1169,-5.3185,-5.3185,-5.3185,-5.3185,-5.3185,-5.3185,-5.1442,0.0,0.0,0.0,0.0,0.0,0.0,0.0,0.0,0.0,0.0,0.0,0.0,0.0,0.0,0.0,0.0,0.0,0.0,0.0,0.0,0.0,0.0,0.0,0.0,0.0,0.0,0.0,0.0,0.0,0.0,0.0,0.0,0.0,0.0,0.0,0.0,0.0,0.0,0.0,0.0,0.0,0.0,0.0,0.0,0.0,0.0,0.0,0.0,0.0,0.0,0.0,0.0,0.0,0.0,0.0,0.0,0.0,0.0,0.0,0.0,0.0,0.0,0.0,0.0,0.0,0.0,0.0,0.0,0.0,0.0,0.0,0.0,0.0,0.0,0.0,0.0,0.0,0.0,0.0,0.0,0.0,0.0,0.0,0.0,0.0,0.0,0.0,0.0,0.0,0.0,0.0,0.0,0.0,0.0,0.0,0.0,0.0,0.0,0.0,0.0,0.0,0.0,0.0,-4.8306,-5.1169,-5.3185,-5.3185,-5.3185,-5.3185,-5.3185,-5.3185,-5.1442,-4.7351,0.0,0.0,0.0,0.0,0.0,0.0,0.0,0.0,0.0,0.0,0.0,0.0,0.0,0.0,0.0,0.0,0.0,0.0,0.0,0.0,0.0,0.0,0.0,0.0,0.0,0.0,0.0,0.0,0.0,0.0,0.0,0.0,0.0,0.0,0.0,0.0,0.0,0.0,0.0,0.0,0.0,0.0,0.0,0.0,0.0,0.0,0.0,0.0,0.0,0.0,0.0,0.0,0.0,0.0,0.0,0.0,0.0,0.0,0.0,0.0,0.0,0.0,0.0,0.0,0.0,0.0,0.0,0.0,0.0,0.0,0.0,0.0,0.0,0.0,0.0,0.0,0.0,0.0,0.0,0.0,0.0,0.0,0.0,0.0,0.0,0.0,0.0,0.0,0.0,0.0,0.0,0.0,0.0,0.0,0.0,0.0,0.0,0.0,0.0,0.0,0.0,0.0,-4.8306,-5.1169,-5.3185,-5.3185,-5.3185,-5.3185,-5.3185,-5.3185,-5.1756,-4.8324,0.0,0.0,0.0,0.0,0.0,0.0,0.0,0.0,0.0,0.0,0.0,0.0,0.0,0.0,0.0,0.0,0.0,0.0,0.0,0.0,0.0,0.0,0.0,0.0,0.0,0.0,0.0,0.0,0.0,0.0,0.0,0.0,0.0,0.0,0.0,0.0,0.0,0.0,0.0,0.0,0.0,0.0,0.0,0.0,0.0,0.0,0.0,0.0,0.0,0.0,0.0,0.0,0.0,0.0,0.0,0.0,0.0,0.0,0.0,0.0,0.0,0.0,0.0,0.0,0.0,0.0,0.0,0.0,0.0,0.0,0.0,0.0,0.0,0.0,0.0,0.0,0.0,0.0,0.0,0.0,0.0,0.0,0.0,0.0,0.0,0.0,0.0,0.0,0.0,0.0,0.0,0.0,0.0,0.0,0.0,0.0,0.0,0.0,0.0,0.0,0.0,0.0,-4.8214,-5.1112,-5.3167,-5.3093,-5.317,-5.3185,-5.3185,-5.3185,-5.2179,-4.9757,0.0,0.0,0.0,0.0,0.0,0.0,0.0,0.0,0.0,0.0,0.0,0.0,0.0,0.0,0.0,0.0,0.0,0.0,0.0,0.0,0.0,0.0,0.0,0.0,0.0,0.0,0.0,0.0,0.0,0.0,0.0,0.0,0.0,0.0,0.0,0.0,0.0,0.0,0.0,0.0,0.0,0.0,0.0,0.0,0.0,0.0,0.0,0.0,0.0,0.0,0.0,0.0,0.0,0.0,0.0,0.0,0.0,0.0,0.0,0.0,-5.1722,-5.0971,0.0,0.0,0.0,0.0,0.0,0.0,0.0,0.0,0.0,0.0,0.0,0.0,0.0,0.0,0.0,0.0,0.0,0.0,0.0,0.0,0.0,0.0,0.0,0.0,0.0,0.0,0.0,0.0,0.0,0.0,0.0,0.0,0.0,0.0,0.0,0.0,0.0,0.0,0.0,0.0,-4.7443,-5.0763,-5.2968,-5.2307,-5.2821,-5.3185,-5.3185,-5.3185,-5.2179,-4.9757,-4.9701,0.0,0.0,0.0,0.0,0.0,0.0,0.0,0.0,0.0,0.0,0.0,0.0,0.0,0.0,0.0,0.0,0.0,0.0,0.0,0.0,0.0,0.0,0.0,0.0,0.0,0.0,0.0,0.0,0.0,0.0,0.0,0.0,0.0,0.0,0.0,0.0,0.0,0.0,0.0,0.0,0.0,0.0,0.0,0.0,0.0,0.0,0.0,0.0,0.0,0.0,0.0,0.0,0.0,0.0,0.0,0.0,0.0,0.0,0.0,-5.2395,-5.1991,0.0,0.0,0.0,0.0,0.0,0.0,0.0,0.0,0.0,0.0,0.0,0.0,0.0,0.0,0.0,0.0,0.0,0.0,0.0,0.0,0.0,0.0,0.0,0.0,0.0,0.0,0.0,0.0,0.0,0.0,0.0,0.0,0.0,0.0,0.0,0.0,0.0,0.0,0.0,0.0,-4.7204,-5.0672,-5.2894,-5.2087,-5.2729,-5.3185,-5.3185,-5.3185,-5.2674,-5.1408,-5.0233,0.0,0.0,0.0,0.0,0.0,0.0,0.0,0.0,0.0,0.0,0.0,0.0,0.0,0.0,0.0,0.0,0.0,0.0,0.0,0.0,0.0,0.0,0.0,0.0,0.0,0.0,0.0,0.0,0.0,0.0,0.0,0.0,0.0,0.0,0.0,0.0,0.0,0.0,0.0,0.0,0.0,0.0,0.0,0.0,0.0,0.0,0.0,0.0,0.0,0.0,0.0,0.0,0.0,-5.2837,-5.2953,-5.3645,-5.3645,-5.403,-5.4626,-5.3203,-5.3299,-5.4395,-5.2953,0.0,0.0,0.0,0.0,0.0,0.0,0.0,0.0,0.0,0.0,0.0,0.0,0.0,0.0,0.0,0.0,0.0,0.0,0.0,0.0,0.0,0.0,-5.1096,-4.8892,-5.0435,-5.2013,-5.0547,0.0,0.0,0.0,0.0,0.0,0.0,0.0,0.0,0.0,0.0,0.0,-4.759,-5.0747,-5.2692,-5.1867,-5.2399,-5.2784,-5.2784,-5.2784,-5.2784,-5.2784,-5.0251,-4.8783,0.0,0.0,0.0,0.0,0.0,0.0,0.0,0.0,0.0,0.0,0.0,0.0,0.0,0.0,0.0,0.0,0.0,0.0,0.0,0.0,0.0,0.0,0.0,0.0,0.0,0.0,0.0,0.0,0.0,0.0,0.0,0.0,-4.7663,-5.0231,0.0,0.0,0.0,0.0,0.0,0.0,0.0,0.0,0.0,0.0,0.0,0.0,0.0,-5.3087,-5.3203,-5.3837,-5.4203,-5.4337,-5.4914,-5.5261,-5.5376,-5.5376,-5.5434,-5.553,-5.5299,0.0,-5.4472,-5.4241,0.0,0.0,0.0,0.0,0.0,0.0,0.0,0.0,0.0,0.0,0.0,0.0,0.0,0.0,0.0,0.0,0.0,0.0,0.0,0.0,0.0,0.0,-5.4711,-5.3683,-5.3775,-5.383,-5.2931,-5.0398,-4.8251,-4.8031,-4.7994,-4.748,0.0,0.0,0.0,0.0,0.0,0.0,-4.9206,-5.0949,-5.1848,-5.1041,-5.1059,-5.1132,-5.1132,-5.1132,-5.1132,-5.1132,-5.071,-4.9242,-4.6489,-4.5865,0.0,0.0,0.0,0.0,0.0,0.0,0.0,0.0,0.0,0.0,0.0,0.0,0.0,0.0,0.0,0.0,0.0,0.0,0.0,0.0,0.0,0.0,0.0,0.0,0.0,0.0,0.0,0.0,0.0,-4.7702,-4.946,-5.0626,-5.0124,-4.9503,0.0,0.0,0.0,0.0,0.0,0.0,0.0,0.0,0.0,-5.3895,-5.3933,-5.4145,-5.4607,-5.4972,-5.5164,-5.5184,-5.553,-5.5703,-5.5703,-5.5703,-5.5703,-5.5703,-5.5703,-5.5491,-5.5145,-5.4684,-5.4049,-5.3318,0.0,0.0,0.0,0.0,-5.126,-5.0327,-5.1701,-5.1878,-5.1338,-5.0355,0.0,0.0,0.0,0.0,0.0,0.0,0.0,-5.1899,-5.1972,-5.2766,-5.3592,-5.3702,-5.3739,-5.3628,-5.3277,-5.2087,-5.0802,-4.9884,-4.9334,-4.8361,-4.625,-4.6654,0.0,0.0,0.0,-4.9682,-4.961,-5.1389,-5.2362,-5.1555,-5.1885,-5.1977,-5.1499,-5.1463,-5.1279,-5.0839,-5.0802,-5.016,-4.871,-4.6874,-4.5278,0.0,0.0,0.0,0.0,0.0,0.0,0.0,0.0,0.0,0.0,0.0,0.0,0.0,0.0,0.0,0.0,0.0,0.0,0.0,0.0,0.0,0.0,0.0,0.0,0.0,0.0,0.0,0.0,-5.0067,-5.1115,-5.1424,-5.1467,-5.0945,0.0,0.0,0.0,0.0,0.0,0.0,-5.3543,-5.3581,-5.3966,-5.478,-5.4799,-5.5088,-5.5684,-5.5703,-5.5703,-5.5703,-5.5703,-5.5703,-5.5703,-5.5703,-5.5703,-5.5703,-5.5703,-5.5703,-5.5645,-5.5049,-5.4684,-5.4434,-5.3799,-5.301,-5.2327,-5.3222,-5.2741,-5.1922,-5.3678,-5.4052,-5.3619,-5.2982,-5.2597,-5.2161,-5.0978,0.0,0.0,0.0,0.0,-5.193,-5.2234,-5.2307,-5.2454,-5.3078,-5.3185,-5.3185,-5.3185,-5.3041,-5.2601,-5.161,-5.093,-4.9793,-4.7535,-4.8159,0.0,-4.7333,-4.9224,-5.0729,-5.0545,-5.1903,-5.2656,-5.205,-5.2179,-5.2032,-5.1446,-5.1391,-5.1041,-5.0215,-5.0563,-5.0618,-5.0178,-4.8031,-4.6838,-4.6782,0.0,0.0,0.0,0.0,0.0,0.0,0.0,0.0,0.0,0.0,0.0,0.0,0.0,0.0,0.0,0.0,0.0,0.0,0.0,0.0,0.0,0.0,0.0,0.0,0.0,0.0,0.0,0.0,0.0,-5.3162,-5.3263,0.0,0.0,0.0,0.0,-5.2309,-5.3151,-5.3981,-5.4584,-5.4626,-5.4944,-5.5618,-5.5645,-5.5665,-5.5703,-5.5703,-5.5703,-5.5703,-5.5703,-5.5703,-5.5703,-5.5703,-5.5703,-5.5703,-5.5703,-5.5703,-5.5703,-5.5665,-5.5184,-5.4491,-5.4453,-5.3895,-5.3241,-5.4107,-5.4376,-5.4434,-5.5308,-5.6135,-5.6769,-5.6731,-5.5085,-5.3411,-5.4912,-5.3182,0.0,0.0,-5.3082,-5.3113,-5.3144,-5.3151,-5.3148,-5.3185,-5.3185,-5.3185,-5.3185,-5.2601,-5.2252,-5.2968,-5.3059,-5.2491,-5.0839,0.0,-5.0655,-5.0563,-5.0692,-5.1353,-5.2839,-5.2454,-5.2032,-5.1995,-5.0675,-4.9757,-4.9721,-4.9721,-4.9353,-4.8489,-4.9921,-5.0086,-4.8489,-4.9058,-4.8325,-4.6012,-4.5792,0.0,0.0,0.0,0.0,0.0,0.0,0.0,0.0,0.0,0.0,0.0,0.0,0.0,0.0,0.0,0.0,0.0,0.0,0.0,0.0,0.0,0.0,0.0,0.0,0.0,0.0,0.0,0.0,-5.3409,-5.3394,0.0,-5.2493,-5.3186,-5.379,-5.4079,-5.4874,-5.5449,-5.5656,-5.5669,-5.5719,-5.5824,-5.5834,-5.5779,-5.5714,-5.5703,-5.5703,-5.5703,-5.5703,-5.5703,-5.5703,-5.5703,-5.5703,-5.5703,-5.5703,-5.5703,-5.5703,-5.5703,-5.553,-5.5261,-5.5261,-5.5068,-5.4857,-5.5164,-5.5261,-5.5299,-5.5588,-5.5895,-5.6338,-5.7473,-5.6838,-5.5857,-5.7011,-5.5761,-5.3994,-5.4329,-5.4406,-5.4366,-5.4114,-5.4033,-5.3961,-5.3662,-5.3585,-5.3505,-5.3251,-5.2986,-5.2858,-5.313,-5.2784,-5.2087,-5.0986,-5.1665,-5.1995,-5.0967,-5.1683,-5.2543,-5.3133,-5.2968,-5.2766,-5.2766,-5.227,-5.1701,-5.1208,-5.1153,-5.0784,-4.9958,-5.0472,-5.0527,-4.9939,-4.9721,-4.9445,-4.9058,-4.7994,-4.5883,0.0,0.0,0.0,0.0,0.0,0.0,0.0,0.0,0.0,0.0,0.0,0.0,0.0,0.0,0.0,0.0,0.0,0.0,0.0,0.0,0.0,0.0,0.0,0.0,0.0,-5.3587,-5.4352,-5.3884,-5.4083,-5.4005,-5.3378,-5.4067,-5.482,-5.5486,-5.6036,-5.6317,-5.6279,-5.6275,-5.6197,-5.601,-5.5936,-5.5868,-5.5769,-5.5717,-5.5703,-5.5703,-5.5703,-5.5703,-5.5703,-5.5703,-5.5703,-5.5703,-5.5703,-5.5703,-5.5703,-5.5703,-5.5703,-5.5703,-5.5703,-5.5703,-5.5703,-5.5703,-5.5703,-5.578,-5.6376,-5.6376,-5.6472,-5.8492,-5.8377,-5.755,-5.8127,-5.728,-5.5995,-5.5307,-5.5088,-5.5007,-5.4594,-5.4503,-5.4404,-5.4101,-5.4031,-5.396,-5.37,-5.3642,-5.3584,-5.3442,-5.2854,-5.2234,-5.1701,-5.2488,-5.2635,-5.1041,-5.2179,-5.2983,-5.2472,-5.2876,-5.3185,-5.3185,-5.2968,-5.2582,-5.205,-5.1501,-5.1077,-5.082,-5.0802,-5.0802,-5.0802,-4.9738,-4.9279,-4.9554,-4.8452,-4.6581,-4.392,0.0,0.0,0.0,0.0,0.0,0.0,0.0,0.0,0.0,0.0,0.0,0.0,0.0,0.0,0.0,0.0,0.0,0.0,0.0,0.0,0.0,0.0,0.0,-5.3356,-5.3991,-5.4583,-5.4713,-5.5423,-5.5652,-5.5008,-5.5833,-5.6391,-5.6414,-5.6535,-5.6539,-5.6416,-5.6414,-5.6338,-5.6202,-5.6024,-5.5912,-5.5896,-5.5769,-5.5695,-5.5703,-5.5703,-5.5703,-5.5703,-5.5703,-5.5703,-5.5703,-5.5703,-5.5703,-5.5703,-5.5703,-5.5703,-5.5703,-5.5703,-5.5703,-5.5703,-5.5703,-5.5703,-5.5934,-5.7627,-5.7703,-5.7445,-5.9915,-5.9646,-5.8338,-5.8319,-5.7684,-5.6744,-5.5473,-5.5121,-5.5034,-5.4644,-5.455,-5.4516,-5.4535,-5.4519,-5.4519,-5.4503,-5.4503,-5.4373,-5.3905,-5.3524,-5.3227,-5.3206,-5.3185,-5.2674,-5.1114,-5.2215,0.0,-5.1077,-5.2252,-5.3167,-5.3133,-5.2435,-5.1958,-5.1958,-5.0528,-4.9996,-5.082,-5.0875,-5.0875,-5.0875,-4.9297,-4.8049,-4.7223,-4.7168,-4.7131,-4.7131,0.0,0.0,0.0,0.0,0.0,0.0,0.0,0.0,0.0,0.0,0.0,0.0,0.0,0.0,0.0,0.0,0.0,0.0,0.0,0.0,0.0,-5.3222,-5.4414,-5.4184,-5.4857,-5.5421,-5.5562,-5.5761,-5.5915,-5.5989,-5.6241,-5.645,-5.6537,-5.6581,-5.6582,-5.6558,-5.6558,-5.6486,-5.6361,-5.6289,-5.6147,-5.5904,-5.5857,-5.5798,-5.5703,-5.5703,-5.5703,-5.5703,-5.5703,-5.5703,-5.5703,-5.5703,-5.5703,-5.5703,-5.5703,-5.5703,-5.5703,-5.5703,-5.5703,-5.5703,-5.5703,-5.5703,-5.5761,-5.6242,-5.7088,-5.8069,-5.8761,-5.9069,-5.9069,-5.8492,-5.7684,-5.6788,-5.5807,-5.5543,-5.5512,-5.5399,-5.5375,-5.5294,-5.5007,-5.4938,-5.4867,-5.4547,-5.4503,-5.4471,-5.4322,-5.4223,-5.3924,-5.3314,-5.3185,-5.3059,-5.2619,-5.2931,-5.3038,-5.2601,-5.2928,-5.2766,-5.1591,-5.1261,-5.1132,-5.1132,-5.0729,-5.1059,-5.2454,-5.2546,-5.2546,-5.2546,-5.1536,-5.06,-4.9811,-4.86,-4.7957,0.0,0.0,0.0,0.0,0.0,0.0,0.0,0.0,0.0,0.0,0.0,0.0,0.0,0.0,0.0,0.0,0.0,0.0,0.0,0.0,0.0,0.0,-5.4126,-5.4991,-5.4991,-5.5415,-5.5749,-5.5872,-5.5974,-5.6113,-5.6377,-5.6454,-5.6514,-5.6582,-5.6601,-5.6601,-5.6601,-5.6601,-5.6561,-5.6486,-5.6424,-5.6281,-5.6031,-5.5944,-5.5824,-5.5703,-5.5703,-5.5703,-5.5703,-5.5703,-5.5703,-5.5703,-5.5703,-5.5703,-5.5703,-5.5703,-5.5703,-5.5703,0.0,0.0,0.0,0.0,-5.5703,-5.5799,-5.653,-5.7203,-5.7934,-5.8992,-5.9415,-5.9415,-5.8934,-5.8204,-5.7357,-5.6492,-5.5972,-5.5703,-5.5703,-5.5703,-5.564,-5.5411,-5.5343,-5.5294,-5.5048,-5.5007,-5.4952,-5.4775,-5.4745,0.0,-5.3851,-5.3739,-5.34,-5.2351,-5.2915,-5.3142,-5.2291,-5.2784,-5.2837,-5.1922,-5.1811,-5.1811,-5.1811,-5.1187,0.0,0.0,0.0,-5.2032,-5.1683,-5.1224,0.0,0.0,0.0,-4.9334,-5.0362,-4.8929,0.0,0.0,-4.8508,-4.8288,0.0,0.0,0.0,0.0,0.0,0.0,0.0,0.0,0.0,0.0,0.0,0.0,0.0,0.0,0.0,0.0,-5.5184,-5.5703,-5.5703,-5.5716,-5.5769,-5.5912,-5.6103,-5.6284,-5.6414,-5.6536,-5.6601,-5.6601,-5.6601,-5.6601,-5.6601,-5.6601,0.0,0.0,0.0,-5.6365,-5.6217,-5.6038,-5.5868,-5.5717,-5.5705,-5.5703,-5.5703,-5.5703,-5.5703,-5.5703,-5.5703,-5.5703,-5.5703,-5.5703,-5.5703,-5.5703,-5.5703,-5.5703,-5.5703,-5.5703,-5.5761,-5.6069,-5.7627,0.0,0.0,-5.9915,-6.0204,-5.9627,-5.9531,-5.8934,-5.8127,-5.7253,-5.6368,-5.5703,-5.5703,-5.5703,-5.5703,-5.5703,-5.5703,-5.5703,-5.5703,-5.5703,-5.5588,-5.5244,-5.5173,-5.5034,-5.4644,-5.4535,-5.3752,-5.1561,-5.2697,-5.3162,-5.1385,-5.2328,-5.3133,-5.2947,-5.2928,0.0,-5.2928,-5.1628,-5.1499,-5.3093,-5.1867,-5.0729,-4.9939,-4.9958,-5.0014,-5.0014,-5.0014,-5.1059,-5.3185,-5.3185,-5.3185,-5.3093,-4.8746,-4.7902,0.0,0.0,0.0,0.0,0.0,0.0,0.0,0.0,0.0,0.0,0.0,0.0,0.0,0.0,0.0,-5.4388,-5.5184,-5.5703,-5.5703,-5.5789,-5.5939,-5.6128,-5.6269,-5.6416,-5.6559,-5.6582,-5.6601,-5.6601,-5.6601,-5.6601,-5.6601,-5.6601,-5.6601,-5.6601,-5.6562,-5.6508,-5.6368,-5.6222,-5.6045,-5.5857,-5.5749,0.0,-5.5703,-5.5703,-5.5703,-5.5703,-5.5703,-5.5703,-5.5703,-5.5703,-5.5703,-5.5703,-5.5703,-5.5703,-5.5703,-5.5703,-5.6126,-5.681,-5.7137,-5.803,-5.9108,-5.9588,-6.0108,-6.0416,-5.9704,-5.8934,0.0,-5.7253,-5.6368,-5.5703,-5.5703,-5.5703,-5.5703,-5.5703,-5.5703,-5.5703,-5.5703,-5.5703,-5.5673,-5.5599,-5.5588,-5.5466,-5.5048,-5.4701,-5.4342,-5.3858,-5.379,-5.3665,-5.3274,-5.3217,-5.2711,-5.1408,-5.1261,-5.1261,-5.1261,-5.0986,-5.1499,-5.3093,-5.2913,-5.2653,-5.2491,-5.2509,-5.2509,-5.2509,-5.2509,-5.2747,-5.3185,-5.3185,-5.3185,-5.3167,-5.2234,-5.205,0.0,0.0,0.0,0.0,0.0,0.0,0.0,0.0,0.0,0.0,0.0,-5.226,0.0,0.0,-5.4661,-5.5032,-5.5434,-5.5703,-5.5703,-5.5902,-5.6084,-5.6186,-5.6317,-5.6454,-5.6582,-5.6601,-5.6601,-5.6601,-5.6601,-5.6601,-5.6601,-5.6601,-5.6601,-5.6601,-5.6601,-5.6537,-5.6391,-5.6275,-5.6097,-5.5896,-5.576,-5.5703,-5.5703,-5.5703,-5.5703,-5.5703,-5.5703,-5.5703,-5.5703,-5.5703,-5.5703,-5.5703,-5.5703,-5.5703,-5.5742,-5.6195,-5.6637,-5.7118,-5.7953,-5.88,-5.9569,-6.0012,-6.0454,-6.0723,-6.0281,-5.9569,-5.8723,-5.7896,-5.7011,-5.6252,-5.5799,-5.5703,-5.5703,-5.5703,-5.5703,-5.5703,-5.5703,-5.5703,-5.5703,-5.5703,-5.5703,-5.564,-5.5435,-5.5224,-5.4966,-5.4566,-5.4465,-5.4284,-5.3869,-5.3624,-5.3108,-5.2107,-5.2013,-5.2013,-5.2013,-5.2013,-5.2344,-5.3148,-5.3185,-5.3185,-5.3185,-5.3185,-5.3185,-5.3185,-5.3185,-5.3185,-5.3185,-5.3185,-5.3185,-5.3185,-5.3185,-5.3185,0.0,0.0,0.0,0.0,0.0,0.0,0.0,0.0,-5.0606,-5.2288,-5.3203,-5.3895,-5.4607,-5.5261,-5.5703,-5.5703,-5.5703,-5.5703,-5.5703,-5.599,-5.6191,-5.6191,-5.6335,-5.6484,-5.6582,-5.6601,-5.6601,-5.6601,-5.6601,-5.6601,-5.6601,-5.6601,-5.6601,-5.6601,-5.6601,-5.6558,-5.645,-5.6288,-5.6128,-5.5959,-5.5779,-5.5703,-5.5703,-5.5703,-5.5703,-5.5703,-5.5703,-5.5703,-5.5703,-5.5703,-5.5703,-5.5703,-5.5703,-5.5703,-5.5799,-5.6676,-5.7214,-5.7684,-5.9031,-5.9608,-5.9877,-6.0569,-6.08,-6.08,-6.08,-6.0185,-5.9338,-5.8531,-5.7665,-5.681,-5.5934,-5.5703,-5.5703,-5.5703,-5.5703,-5.5703,-5.5703,-5.5703,-5.5703,-5.5703,-5.5703,-5.5703,-5.5703,-5.5703,-5.5489,-5.4819,-5.4952,-5.4848,-5.4151,-5.3995,-5.3777,-5.3359,-5.3316,-5.3274,-5.3206,-5.3185,-5.3185,-5.3185,-5.3185,-5.3185,-5.3185,-5.3185,-5.3185,-5.3185,-5.3185,-5.3185,-5.3185,-5.3185,-5.3185,-5.3185,-5.3185,-5.3185,-4.8509,-4.8586,-4.9779,-5.1365,-5.1164,-5.1366,0.0,0.0,-5.326,-5.4934,-5.5357,-5.5453,-5.5549,-5.5645,-5.5703,-5.5703,-5.5703,-5.5703,-5.5703,-5.599,-5.6191,-5.6191,-5.6424,-5.6582,-5.6601,-5.6601,-5.6601,-5.6601,-5.6601,-5.6601,-5.6601,-5.6601,-5.6601,-5.6601,-5.6601,-5.6582,-5.6581,-5.6328,-5.6186,-5.6164,-5.5844,-5.5703,-5.5703,-5.5703,-5.5703,-5.5703,-5.5703,-5.5703,-5.5703,-5.5703,-5.5703,-5.5703,-5.5703,-5.5703,-5.5799,-5.6676,-5.7934,-5.9242,-5.9435,-6.0012,-6.0666,-6.0762,-6.08,-6.08,-6.08,-6.0185,-5.9338,-5.8531,-5.7665,-5.681,-5.5934,-5.5703,-5.5703,-5.5703,-5.5703,-5.5703,-5.5703,-5.5703,-5.5703,-5.5703,-5.5703,-5.5703,-5.5703,-5.5703,-5.5662,-5.5577,-5.5306,-5.5061,-5.496,-5.464,-5.4238,-5.3777,-5.3739,-5.3585,-5.3227,-5.3185,-5.3185,-5.3185,-5.3185,-5.3185,-5.3185,-5.3185,-5.3185,-5.3185,-5.3185,-5.3185,-5.3185,-5.3185,-5.3185,-5.3185,-5.3185,-5.3185,-5.1837,-5.1722,-5.201,0.0,-5.351,-5.3395,-5.5261,-5.4799,-5.4299,-5.5453,-5.5703,-5.5703,-5.5703,-5.5703,-5.5703,0.0,-5.5703,-5.5703,-5.5703,-5.599,-5.6191,-5.6191,-5.645,-5.6601,-5.6601,-5.6601,-5.6601,-5.6601,-5.6601,-5.6601,-5.6601,-5.6601,-5.6601,-5.6601,-5.6601,-5.6601,-5.6601,-5.6331,-5.6191,-5.6211,-5.5863,-5.5703,-5.5703,-5.5703,-5.5703,-5.5703,-5.5703,-5.5703,-5.5703,-5.5703,-5.5703,-5.5703,-5.5703,-5.6319,-5.7261,-5.7627,-5.8204,-5.8934,-5.9915,-6.0492,-6.08,-6.08,-6.08,-6.08,-6.08,-6.055,-6.0089,-5.9242,-5.8396,-5.755,-5.6676,-5.6069,-5.5703,-5.5703,-5.5703,-5.5703,-5.5703,-5.5703,-5.5703,-5.5703,-5.5703,-5.5703,-5.5703,-5.5703,-5.5703,-5.5703,-5.5566,-5.5356,-5.5134,-5.4952,-5.4575,-5.3888,-5.3585,-5.3381,-5.3206,-5.3185,-5.3185,-5.3185,-5.3185,-5.3185,-5.3185,-5.3185,-5.3185,-5.3185,-5.3185,-5.3185,-5.3185,-5.3185,-5.3185,-5.3185,-5.3185,-5.3185,-5.3376,-5.351,0.0,-5.5011,-5.5107,-5.4972,-5.5568,-5.5241,-5.4991,-5.5568,-5.5703,-5.5703,-5.5703,-5.5703,-5.5703,-5.5703,-5.5703,-5.5703,-5.5703,-5.599,-5.6191,-5.6191,-5.645,-5.6601,-5.6601,-5.6601,-5.6601,-5.6601,-5.6601,-5.6601,-5.6601,-5.6601,-5.6601,-5.6601,-5.6601,-5.6581,-5.6558,-5.6317,-5.6169,-5.6103,-5.5826,-5.5703,-5.5703,-5.5703,-5.5703,-5.5703,-5.5953,-5.6049,-5.6069,-5.6319,-5.6415,-5.6415,-5.6415,-5.7184,-5.8338,-5.855,-5.8781,-5.9165,-6.0377,-6.08,-6.08,-6.08,-6.08,-6.08,-6.08,-6.08,-6.0608,-5.9742,-5.8915,-5.8107,-5.7234,-5.6349,-5.5703,-5.5703,-5.5703,-5.5703,-5.5703,-5.5703,-5.5703,-5.5703,-5.5703,-5.5703,-5.5703,-5.5703,-5.5703,-5.5703,-5.5703,-5.5588,-5.5306,-5.5173,-5.4819,-5.4083,-5.3604,-5.3316,-5.3206,-5.3185,-5.3185,-5.3185,-5.3185,-5.3185,-5.3185,-5.3185,-5.3185,-5.3185,-5.3185,-5.3185,-5.3185,-5.3185,-5.3185,-5.3185,-5.3185,-5.3185,-5.175,-5.2577,-5.3414,-5.4318,-5.5107,-5.5665,-5.5684,-5.5684,-5.5665,-5.5684,-5.5703,-5.5703,-5.5703,-5.5703,-5.5703,-5.5703,-5.5703,-5.5703,-5.5703,-5.599,-5.6191,-5.6191,-5.645,-5.6601,-5.6601,-5.6601,-5.6601,-5.6601,-5.6601,-5.6601,-5.6601,-5.6601,-5.6601,-5.6601,-5.6601,-5.6537,-5.6414,-5.6279,-5.6097,-5.5904,-5.576,-5.5703,-5.5703,-5.5703,-5.5703,-5.5742,-5.6599,-5.6964,-5.7041,-5.7877,-5.8223,-5.8223,-5.8223,-5.8261,-5.8396,-5.9184,-5.9992,-6.0723,-6.0781,-6.08,-6.08,-6.08,-6.08,-6.08,-6.08,-6.08,-6.0608,-5.9742,-5.8915,-5.8107,-5.7234,-5.6349,-5.5703,-5.5703,-5.5703,-5.5703,-5.5703,-5.5703,-5.5703,-5.5703,-5.5703,-5.5703,-5.5703,-5.5703,-5.5703,-5.5703,-5.5703,-5.5703,-5.5673,-5.5331,-5.4952,-5.4516,-5.4048,-5.3624,-5.323,-5.3185,-5.3185,-5.3185,-5.3185,-5.3185,-5.3185,-5.3185,-5.3185,-5.3185,-5.3185,-5.3185,-5.3185,-5.3185,-5.3185,-5.3185,-5.3185,-5.3185,-5.2529,-5.3395,-5.426,-5.5088,-5.5491,-5.5703,-5.5703,-5.5703,-5.5703,-5.5703,-5.5703,-5.5703,-5.5703,-5.5703,-5.5703,-5.5703,-5.5703,-5.5703,-5.5703,-5.5868,-5.6051,-5.6181,-5.6368,-5.649,-5.6582,-5.6601,-5.6601,-5.6601,-5.6601,-5.6601,-5.6601,-5.6601,-5.6601,-5.6601,-5.6512,-5.6452,-5.6408,-5.6125,-5.5966,-5.5896,-5.576,-5.5703,-5.5722,-5.631,-5.656,-5.6618,-5.7473,-5.7857,-5.7896,-5.8184,-5.83,-5.83,-5.83,-5.8627,-5.9127,-5.9396,-6.005,-6.08,-6.08,-6.08,-6.08,-6.08,-6.08,-6.08,-6.08,-6.08,-6.0742,-6.0454,-5.9742,-5.9031,-5.8723,-5.7607,-5.656,-5.656,-5.6107,-5.5703,-5.5703,-5.5703,-5.5703,-5.5703,-5.5703,-5.5703,-5.5703,-5.5703,-5.5703,-5.5703,-5.5703,-5.5703,-5.5703,-5.5343,-5.5048,-5.4924,-5.4516,-5.4223,-5.4086,-5.3777,-5.3604,-5.3604,-5.3339,-5.3185,-5.3185,-5.3185,-5.3185,-5.3185,-5.3185,-5.3185,-5.3185,-5.3185,-5.3185,-5.3185,-5.3185,-5.3185,-5.3337,-5.4068,-5.4684,-5.5491,-5.5703,-5.578,-5.6088,-5.6145,-5.6242,-5.6549,-5.6376,-5.6145,-5.6145,-5.5915,-5.5799,-5.6107,-5.5895,-5.5799,-5.6107,-5.6009,-5.5951,-5.6078,-5.6273,-5.6426,0.0,0.0,-5.6601,-5.6601,-5.6601,-5.6601,-5.6601,-5.6601,-5.6581,-5.6536,-5.6432,-5.6342,-5.6227,-5.6315,-5.6493,-5.6762,-5.6673,-5.6626,-5.6646,-5.7203,-5.7453,-5.7511,-5.8357,-5.8723,-5.8761,-5.9069,-5.9184,-5.9184,-5.9184,-5.9511,-5.9954,-5.9954,-6.0319,-6.08,-6.08,-6.08,-6.08,-6.08,-6.08,-6.08,-6.08,-6.08,-6.08,-6.08,-6.0165,-5.9492,-5.9492,-5.8261,-5.7003,-5.7003,-5.6329,-5.5703,-5.5703,-5.5703,-5.5703,-5.5703,-5.5703,-5.5703,-5.5703,-5.5703,-5.5703,-5.5703,-5.5703,-5.5703,-5.5703,-5.5458,-5.5269,-5.5121,-5.4881,-5.4659,-5.4519,-5.4066,-5.3796,-5.3796,-5.3422,-5.3185,-5.3185,-5.3185,-5.3185,-5.3185,-5.3185,-5.3185,-5.3185,-5.3185,-5.3185,-5.3185,-5.3185,-5.3185,-5.4049,-5.453,-5.4761,-5.5549,-5.5761,-5.5992,-5.6868,-5.708,-5.728,-5.8069,-5.7569,-5.6983,-5.6945,-5.6272,-5.5972,-5.681,-5.6252,-5.5992,-5.683,-5.6328,-5.5888,0.0,0.0,0.0,0.0,0.0,0.0,-5.6601,-5.6601,-5.6601,-5.6601,-5.6601,-5.6538,-5.6391,-5.6386,-5.6251,-5.5962,-5.6817,-5.7602,-5.83,-5.83,-5.83,-5.83,-5.8338,-5.8357,-5.8415,-5.9223,-5.9569,-5.9627,-6.0454,-6.08,-6.08,-6.08,-6.08,-6.08,-6.08,-6.08,-6.08,-6.08,-6.08,-6.08,-6.08,-6.08,-6.08,-6.08,-6.08,-6.08,-6.08,-6.0204,-5.9569,-5.9569,-5.8319,-5.708,-5.708,-5.6368,-5.5703,-5.5703,-5.5703,-5.5703,-5.5703,-5.5703,-5.5703,-5.5703,-5.5703,-5.5703,-5.5703,-5.5703,-5.5703,-5.5703,-5.5703,-5.5546,-5.5173,-5.5134,-5.4979,-5.4579,-5.4135,-5.3869,-5.3869,-5.3464,-5.3227,-5.3227,-5.3206,-5.3185,-5.3185,-5.3185,-5.3185,-5.3185,-5.3185,-5.3185,-5.3185,-5.3185,-5.3185,-5.4376,-5.4934,-5.5588,-5.6464,-5.6676,-5.6907,-5.7761,-5.7973,-5.7857,-5.7415,-5.7157,-5.681,-5.6156,-5.5838,-5.5761,-5.5992,-5.5838,0.0,-5.5992,-5.5862,0.0,-5.5899,0.0,-5.6297,-5.6386,-5.6515,0.0,-5.6601,-5.6601,-5.6601,-5.6601,-5.6601,-5.6538,-5.6391,-5.6305,-5.645,-5.6864,-5.7632,-5.8115,-5.83,-5.83,-5.83,-5.8319,-5.8915,-5.9184,-5.9242,-6.0108,-6.0473,-6.0492,-6.0704,-6.08,-6.08,-6.08,-6.08,-6.08,-6.08,-6.08,-6.08,-6.08,-6.08,-6.08,-6.08,-6.08,-6.08,-6.08,-6.08,-6.08,-6.08,-6.0646,-6.0473,-6.0473,-5.9223,-5.7973,-5.7973,-5.6799,-5.5703,-5.5703,-5.5703,-5.5703,-5.5703,-5.5703,-5.5703,-5.5703,-5.5703,-5.5703,-5.5703,-5.5703,-5.5703,-5.5703,-5.5703,-5.5662,-5.5566,-5.5554,-5.5501,-5.5399,-5.5002,-5.4771,-5.4771,-5.4047,-5.3644,-5.3644,-5.3359,-5.3185,-5.3185,-5.3185,-5.3185,-5.3185,-5.3185,-5.3185,-5.3185,-5.3185,-5.3185,-5.4934,-5.5626,-5.6387,-5.6887,-5.728,-5.7703,-5.8184,-5.83,-5.8165,-5.7665,-5.7272,-5.6849,-5.6368,-5.6272,-5.6395,0.0,0.0,0.0,-5.678,-5.6184,-5.5728,0.0,-5.605,0.0,-5.6309,-5.6486,-5.6601,-5.6601,-5.6601,-5.6601,-5.6601,-5.6539,-5.6454,-5.6317,-5.652,-5.7137,-5.8201,-5.8627,-5.9031,-5.9396,-5.9396,-5.9396,-5.9415,-5.9858,-6.0069,-6.0108,-6.0589,-6.08,-6.08,-6.08,-6.08,-6.08,-6.08,-6.08,-6.08,-6.08,-6.08,-6.08,-6.08,-6.08,-6.08,-6.08,-6.08,-6.08,-6.08,-6.08,-6.08,-6.08,-6.08,-6.08,-6.08,-5.955,-5.83,-5.83,-5.6973,-5.5703,-5.5703,-5.5703,-5.5703,-5.5703,-5.5703,-5.5703,-5.5703,-5.5703,-5.5703,-5.5703,-5.5703,-5.5703,-5.5703,-5.5703,-5.5703,-5.5703,-5.5703,-5.5703,-5.5703,-5.5331,-5.5088,-5.5088,-5.4481,-5.4101,-5.4101,-5.3888,-5.3662,-5.3464,-5.3464,-5.338,-5.3185,-5.3185,-5.3185,-5.3185,-5.3185,-5.3185,-5.5511,-5.6349,-5.7041,-5.7137,-5.7819,-5.8473,-5.8473,-5.8473,-5.8396,-5.8165,0.0,-5.6964,-5.6849,-5.683,-5.7107,-5.7992,0.0,-5.7272,-5.803,-5.6819,-5.5818,-5.5703,-5.5975,-5.6164,-5.6164,-5.6391,-5.6558,-5.6558,-5.6656,-5.6677,-5.6581,-5.6452,-5.6352,-5.6319,-5.711,-5.8143,-5.9492,-5.9608,-6.005,-6.08,-6.08,-6.08,-6.08,-6.08,-6.08,-6.08,-6.08,-6.08,-6.08,-6.08,-6.08,-6.08,-6.08,-6.08,-6.08,-6.08,-6.08,-6.08,-6.08,-6.08,-6.08,-6.08,-6.08,-6.08,-6.08,-6.08,-6.08,-6.08,-6.08,-6.08,-6.08,-5.9646,-5.8434,-5.8338,-5.7069,-5.5838,-5.5722,-5.5703,-5.5703,-5.5703,-5.5703,-5.5703,-5.5703,-5.5703,-5.5703,-5.5703,-5.5703,-5.5703,-5.5703,-5.5703,-5.5703,-5.5703,-5.5703,-5.5703,-5.5703,-5.5387,-5.5186,-5.5186,-5.479,-5.4582,-5.4582,-5.4535,-5.4305,-5.3887,-5.3887,-5.3701,-5.3293,-5.3293,-5.3251,-5.3185,-5.3185,-5.3185,-5.5665,-5.6349,-5.7176,-5.7896,-5.8684,-5.93,-5.93,-5.93,0.0,0.0,-5.7118,-5.6791,-5.6049,-5.5934,-5.6203,-5.708,-5.7099,-5.706,-5.7214,-5.6964,-5.6522,0.0,-5.5861,-5.5951,-5.5951,-5.6144,0.0,0.0,-5.6898,-5.7014,-5.6463,-5.6309,-5.6469,-5.7005,-5.8375,-5.9229,-5.9492,-6.0204,-6.0646,-6.08,-6.08,-6.08,-6.08,-6.08,-6.08,-6.08,-6.08,-6.08,-6.08,-6.08,-6.08,-6.08,-6.08,-6.08,-6.08,-6.08,-6.08,-6.08,-6.08,-6.08,-6.08,-6.08,-6.08,-6.08,-6.08,-6.08,-6.08,-6.08,-6.08,-6.08,-6.08,-6.005,-5.9127,-5.8473,-5.7511,-5.6579,-5.5857,-5.5703,-5.5703,-5.5703,-5.5703,-5.5703,-5.5703,-5.5703,-5.5703,-5.5703,-5.5703,-5.5703,-5.5703,-5.5703,-5.5703,-5.5703,-5.5703,-5.5703,-5.5703,-5.564,-5.5588,-5.5588,-5.5212,-5.4993,-5.4993,-5.4689,-5.4471,-5.4371,-5.439,-5.4153,-5.3683,-5.3683,-5.3525,-5.3185,-5.3185,-5.3185,-5.6252,-5.7011,-5.7877,-5.8723,-5.955,-5.9954,-5.9069,0.0,0.0,0.0,-5.6329,-5.6214,-5.578,-5.6069,0.0,-5.6926,-5.7376,-5.7684,-5.7684,-5.728,0.0,-5.6426,-5.6086,-5.607,-5.6535,-5.635,-5.6561,-5.7445,-5.7373,-5.7184,-5.6935,-5.7222,-5.7695,-5.8384,-5.9117,-5.9723,-6.0165,-6.0589,-6.08,-6.08,-6.08,-6.08,-6.08,-6.08,-6.08,-6.08,-6.08,-6.08,-6.08,-6.08,-6.08,-6.08,-6.08,-6.08,-6.08,-6.08,-6.08,-6.08,-6.08,-6.08,-6.08,-6.08,-6.08,-6.08,-6.08,-6.08,-6.08,-6.08,-6.08,-6.08,-6.08,-6.0146,-5.93,-5.8492,-5.728,-5.6214,-5.578,-5.5703,-5.5703,-5.5703,-5.5703,-5.5703,-5.5703,-5.5703,-5.5703,-5.5703,-5.5703,-5.5703,-5.5703,-5.5703,-5.5703,-5.5703,-5.5703,-5.5703,-5.5703,-5.5703,-5.5703,-5.5703,-5.5512,-5.5411,-5.5411,-5.5224,-5.5021,-5.4823,-5.4804,-5.4609,-5.417,-5.3905,-5.3702,-5.3505,-5.3295,-5.3185,-5.6772,-5.7646,-5.8492,-5.93,-6.0165,-6.0358,-5.8684,-5.83,0.0,-5.6049,-5.5703,-5.5703,-5.5703,-5.6272,-5.6791,-5.6964,-5.7569,-5.8088,-5.828,-5.7703,-5.7291,0.0,-5.6773,0.0,-5.7367,-5.697,0.0,-5.8517,-5.8043,-5.7658,-5.7605,-5.8314,-5.8964,-5.9473,-5.9685,-6.0108,-6.0781,-6.08,-6.08,-6.08,-6.08,-6.08,-6.08,-6.08,-6.08,-6.08,-6.08,-6.08,-6.08,-6.08,-6.08,-6.08,-6.08,-6.08,-6.08,-6.08,-6.08,-6.08,-6.08,-6.08,-6.08,-6.08,-6.08,-6.08,-6.08,-6.08,-6.08,-6.08,-6.08,-6.08,-6.08,-6.0281,-5.9531,-5.855,-5.7107,-5.5934,-5.5742,-5.5703,-5.5703,-5.5703,-5.5703,-5.5703,-5.5703,-5.5703,-5.5703,-5.5703,-5.5703,-5.5703,-5.5703,-5.5703,-5.5703,-5.5703,-5.5703,-5.5703,-5.5703,-5.5703,-5.5703,-5.5703,-5.5703,-5.5703,-5.5703,-5.5703,-5.5535,-5.5224,-5.5224,-5.5034,-5.4644,-5.417,-5.3887,-5.3796,-5.34,-5.3185,-5.6772,-5.7646,-5.8492,-5.93,-6.0165,-6.0358,-5.8684,0.0,-5.7819,-5.6049,-5.5703,-5.5703,-5.5703,-5.5761,-5.6069,-5.6868,-5.708,-5.7396,-5.8184,-5.8223,-5.8184,-5.8184,0.0,0.0,-5.8179,-5.8143,-5.8165,-5.8338,-5.8932,-5.8979,-5.8261,-5.896,-5.9438,-5.9492,-6.0262,-6.0723,-6.08,-6.08,-6.08,-6.08,-6.08,-6.08,-6.08,-6.08,-6.08,-6.08,-6.08,-6.08,-6.08,-6.08,-6.08,-6.08,-6.08,-6.08,-6.08,-6.08,-6.08,-6.08,-6.08,-6.08,-6.08,-6.08,-6.08,-6.08,-6.08,-6.08,-6.08,-6.08,-6.08,-6.08,-6.08,-6.0742,-6.0281,-5.8684,-5.7569,-5.6656,-5.5857,-5.5703,-5.5703,-5.5703,-5.5703,-5.5703,-5.5703,-5.5703,-5.5703,-5.5703,-5.5703,-5.5703,-5.5703,-5.5703,-5.5703,-5.5703,-5.5703,-5.5703,-5.5703,-5.5703,-5.5703,-5.5703,-5.5703,-5.5703,-5.5703,-5.5703,-5.5673,-5.5651,-5.5651,-5.5435,-5.5048,-5.4625,-5.4221,-5.3796,-5.34,-5.3185,-5.8127,-5.8761,-5.9223,-6.0069,-6.0146,-5.9723,-5.8569,0.0,-5.7165,-5.5953,-5.5703,-5.5703,-5.5703,-5.5703,-5.5799,-5.6145,-5.6656,-5.7118,-5.7473,-5.7511,-5.7703,-5.8242,-5.7838,0.0,0.0,0.0,-5.8511,-5.8992,-5.98,-6.0146,-5.9819,-6.0108,-6.0281,-6.0281,-6.0608,-6.08,-6.08,-6.08,-6.08,-6.08,-6.08,-6.08,-6.08,-6.08,-6.08,-6.08,-6.08,-6.08,-6.08,-6.08,-6.08,-6.08,-6.08,-6.08,-6.08,-6.08,-6.08,-6.08,-6.08,-6.08,-6.08,-6.08,-6.08,-6.08,-6.08,-6.08,-6.08,-6.08,-6.08,-6.08,-6.08,-6.0416,-5.9723,-5.8569,-5.7627,-5.6772,-5.5876,-5.5703,-5.5703,-5.5703,-5.5703,-5.5703,-5.5703,-5.5703,-5.5703,-5.5703,-5.5703,-5.5703,-5.5703,-5.5703,-5.5703,-5.5703,-5.5703,-5.5703,-5.5703,-5.5703,-5.5703,-5.5703,-5.5703,-5.5703,-5.5703,-5.5703,-5.5703,-5.5703,-5.5703,-5.561,-5.5466,-5.5048,-5.464,-5.4204,-5.3777,-5.3424,-5.9108,-5.9685,-6.0031,-6.0646,-6.0146,-5.93,0.0,0.0,-5.6753,-5.5876,-5.5703,-5.5703,-5.5703,-5.5703,-5.5703,-5.5703,-5.6233,-5.6714,-5.6964,-5.7003,-5.733,0.0,0.0,-5.7934,-5.9358,-5.9223,-5.9281,-5.9838,-6.0454,-6.08,-6.08,-6.08,-6.08,-6.08,-6.08,-6.08,-6.08,-6.08,-6.08,-6.08,-6.08,-6.08,-6.08,-6.08,-6.08,-6.08,-6.08,-6.08,-6.08,-6.08,-6.08,-6.08,-6.08,-6.08,-6.08,-6.08,-6.08,-6.08,-6.08,-6.08,-6.08,-6.08,-6.08,-6.08,-6.08,-6.08,-6.08,-6.08,-6.08,-6.08,-6.08,-6.0339,-5.9627,-5.855,-5.7838,-5.7069,-5.5934,-5.5703,-5.5703,-5.5703,-5.5703,-5.5703,-5.5703,-5.5703,-5.5703,-5.5703,-5.5703,-5.5703,-5.5703,-5.5703,-5.5703,-5.5703,-5.5703,-5.5703,-5.5703,-5.5703,-5.5703,-5.5703,-5.5703,-5.5703,-5.5703,-5.5703,-5.5703,-5.5703,-5.5703,-5.5703,-5.5703,-5.5294,-5.4876,-5.4487,-5.4013,-5.3585,-5.9281,-6.0127,-6.0781,-6.08,-6.0146,-5.93,0.0,0.0,-5.6753,-5.5876,-5.5703,-5.5703,-5.5703,-5.5703,-5.5703,-5.5703,-5.5703,-5.6011,-5.6887,-5.7003,-5.733,0.0,0.0,-5.8607,-5.9415,-6.0262,-6.0781,-6.0781,-6.0781,-6.08,-6.08,-6.08,-6.08,-6.08,-6.08,-6.08,-6.08,-6.08,-6.08,-6.08,-6.08,-6.08,-6.08,-6.08,-6.08,-6.08,-6.08,-6.08,-6.08,-6.08,-6.08,-6.08,-6.08,-6.08,-6.08,-6.08,-6.08,-6.08,-6.08,-6.08,-6.08,-6.08,-6.08,-6.08,-6.08,-6.08,-6.08,-6.08,-6.08,-6.08,-6.08,-6.0781,-6.0358,-5.8704,-5.83,-5.7819,-5.6069,-5.5703,-5.5703,-5.5703,-5.5703,-5.5703,-5.5703,-5.5703,-5.5703,-5.5703,-5.5703,-5.5703,-5.5703,-5.5703,-5.5703,-5.5703,-5.5703,-5.5703,-5.5703,-5.5703,-5.5703,-5.5703,-5.5703,-5.5703,-5.5703,-5.5703,-5.5703,-5.5703,-5.5703,-5.5703,-5.5703,-5.5294,-5.4876,-5.4487,-5.4013,-5.3585,-5.8607,-5.9281,-5.9781,-5.9223,-5.8434,-5.7723,-5.7484,-5.6742,-5.603,-5.5761,-5.5703,-5.5703,-5.5703,-5.5703,-5.5895,-5.6503,-5.6088,-5.5992,-5.6887,0.0,0.0,-5.8204,-5.9319,-6.0108,0.0,0.0,-6.08,-6.08,-6.08,-6.08,-6.08,-6.08,-6.08,-6.08,-6.08,-6.08,-6.08,-6.08,-6.08,-6.08,-6.08,-6.08,-6.08,-6.08,-6.08,-6.08,-6.08,-6.08,-6.08,-6.08,-6.08,-6.08,-6.08,-6.08,-6.08,-6.08,-6.08,-6.08,-6.08,-6.08,-6.08,-6.08,-6.08,-6.08,-6.08,-6.08,-6.08,-6.08,-6.08,-6.08,-6.08,-6.08,-6.0512,-5.9396,-5.8704,-5.7992,-5.6849,-5.6107,-5.5703,-5.5703,-5.5703,-5.5703,-5.5703,-5.5703,-5.5703,-5.5703,-5.5703,-5.5703,-5.5703,-5.5703,-5.5703,-5.5703,-5.5703,-5.5703,-5.5703,-5.5703,-5.5703,-5.5703,-5.5703,-5.5703,-5.5703,-5.5703,-5.5703,-5.5703,-5.5703,-5.5703,-5.5703,-5.5577,-5.516,-5.4487,-5.4013,-5.3585,-5.8204,-5.8896,-5.9319,-5.8511,-5.7646,-5.7003,-5.7003,-5.6329,-5.5703,-5.5703,-5.5703,-5.5703,-5.5703,-5.5703,-5.5876,-5.6426,-5.6049,-5.5992,-5.6887,0.0,0.0,-5.8204,0.0,0.0,0.0,-6.0608,-6.08,-6.08,-6.08,-6.08,-6.08,-6.08,-6.08,-6.08,-6.08,-6.08,-6.08,-6.08,-6.08,-6.08,-6.08,-6.08,-6.08,-6.08,-6.08,-6.08,-6.08,-6.08,0.0,-6.08,-6.08,-6.08,-6.08,-6.08,-6.08,-6.08,-6.08,-6.08,-6.08,-6.08,-6.08,-6.08,-6.08,-6.08,-6.08,-6.08,-6.08,-6.08,-6.08,-6.08,-6.08,-6.08,-6.0569,-5.9704,-5.8896,-5.8069,-5.7195,-5.6329,-5.5703,-5.5703,-5.5703,-5.5703,-5.5703,-5.5703,-5.5703,-5.5703,-5.5703,-5.5703,-5.5703,-5.5703,-5.5703,-5.5703,-5.5703,-5.5703,-5.5703,-5.5703,-5.5703,-5.5703,-5.5703,-5.5703,-5.5703,-5.5703,-5.5703,-5.5703,-5.5703,-5.5703,-5.5703,-5.5554,-5.5212,-5.4701,-5.4101,-5.3663,0.0,-5.8704,-5.9127,-5.8319,-5.7511,-5.6907,-5.6907,-5.6291,0.0,-5.5703,-5.5703,-5.5703,-5.5703,-5.5703,-5.5722,-5.578,-5.5742,-5.603,-5.6964,-5.7137,0.0,0.0,-5.9146,0.0,-5.9588,-6.0319,-6.08,-6.08,-6.08,-6.08,-6.08,-6.08,-6.08,-6.08,-6.08,-6.08,-6.08,-6.08,-6.08,-6.08,-6.08,-6.08,-6.08,-6.08,-6.08,-6.08,-6.08,-6.08,-6.08,-6.08,-6.08,-6.08,-6.08,-6.08,-6.08,-6.08,-6.08,-6.08,-6.08,-6.08,-6.08,-6.08,-6.08,-6.08,-6.08,-6.08,-6.08,-6.08,-6.08,-6.08,-6.08,-6.08,-6.0589,-5.9781,-5.8934,-5.8088,-5.7272,-5.6368,-5.5703,-5.5703,-5.5703,-5.5703,-5.5703,-5.5703,-5.5703,-5.5703,-5.5703,-5.5703,-5.5703,-5.5703,-5.5703,-5.5703,-5.5703,-5.5703,-5.5703,-5.5703,-5.5703,-5.5703,-5.5703,-5.5703,-5.5703,-5.5703,-5.5703,-5.5703,-5.5645,-5.5607,-5.5607,-5.5242,-5.5038,-5.4999,-5.4215,-5.3833,-5.6261,0.0,-5.7376,-5.6511,-5.6165,-5.6011,0.0,-5.5838,-5.5703,-5.5703,-5.5703,-5.5703,-5.5703,-5.5703,-5.5915,-5.6599,-5.6137,-5.6242,-5.778,-5.8511,0.0,-6.0108,-6.0377,-6.0492,-6.0492,-6.0685,-6.08,-6.08,-6.08,-6.08,-6.08,-6.08,-6.08,-6.08,-6.08,-6.08,-6.08,-6.08,-6.08,-6.08,-6.08,-6.08,-6.08,-6.08,-6.08,-6.08,-6.08,-6.08,-6.08,-6.08,-6.08,-6.08,-6.08,-6.08,-6.08,-6.08,-6.08,-6.08,-6.08,-6.08,-6.08,-6.08,-6.08,-6.08,-6.08,-6.08,-6.08,-6.08,-6.08,-6.08,-6.08,-6.08,-6.0742,-6.0531,-5.9377,-5.8242,-5.805,-5.678,-5.5703,-5.5703,-5.5703,-5.5703,-5.5703,-5.5703,-5.5703,-5.5703,-5.5703,-5.5703,-5.5703,-5.5703,-5.5703,-5.5703,-5.5703,-5.5703,-5.5703,-5.5703,-5.5703,-5.5703,-5.5703,-5.5703,-5.5703,-5.5703,-5.5703,-5.5703,-5.5088,-5.478,-5.478,-5.4696,-5.446,-5.4108,-5.4276,-5.4135,-5.5703,-5.603,-5.6291,-5.5818,-5.5703,-5.5703,-5.5703,-5.5703,-5.5703,-5.5703,-5.5703,-5.5703,-5.5703,-5.6357,-5.678,-5.6464,-5.6992,-5.7761,0.0,0.0,-5.9819,-6.0704,-6.08,-6.08,-6.08,-6.08,-6.08,-6.08,-6.08,-6.08,-6.08,-6.08,-6.08,-6.08,-6.08,-6.08,-6.08,-6.08,-6.08,-6.08,-6.08,-6.08,-6.08,-6.08,-6.08,-6.08,-6.08,-6.08,-6.08,-6.08,-6.08,-6.08,-6.08,-6.08,-6.08,-6.08,-6.08,-6.08,-6.08,-6.08,-6.08,-6.08,-6.08,-6.08,-6.08,-6.08,-6.08,-6.08,-6.08,-6.08,-6.08,-6.08,-6.08,-6.08,-5.9511,-5.83,-5.83,-5.6934,-5.5703,-5.5703,-5.5703,-5.5703,-5.5703,-5.5703,-5.5703,-5.5703,-5.5703,-5.5703,-5.5703,-5.5703,-5.5703,-5.5703,-5.5703,-5.5703,-5.5703,-5.5703,-5.5703,-5.5703,-5.5703,-5.5703,-5.5703,-5.5703,-5.553,-5.5164,-5.5068,-5.4876,-5.4491,-5.4876,-5.4916,-5.4673,-5.4737,-5.4547,-5.5857,-5.5992,-5.603,-5.5761,-5.5703,-5.5703,-5.5703,-5.5703,-5.5703,-5.5703,-5.5703,-5.578,-5.6049,-5.7088,-5.7511,-5.628,-5.7915,-5.9358,-5.9473,-5.9608,-5.9973,-6.0704,-6.08,-6.08,-6.08,-6.08,-6.08,-6.08,-6.08,-6.08,-6.08,-6.08,-6.08,-6.08,-6.08,-6.08,-6.08,-6.08,-6.08,-6.08,-6.08,-6.08,-6.08,-6.08,-6.08,-6.08,-6.08,-6.08,-6.08,-6.08,-6.08,-6.08,-6.08,-6.08,-6.08,-6.08,-6.08,-6.08,-6.08,-6.08,-6.08,-6.08,-6.08,-6.08,-6.08,-6.08,-6.08,-6.08,-6.08,-6.08,-6.08,-6.08,-6.08,-6.08,-5.9511,-5.83,-5.83,-5.6934,-5.5703,-5.5703,-5.5703,-5.5703,-5.5703,-5.5703,-5.5703,-5.5703,-5.5703,-5.5703,-5.5703,-5.5703,-5.5703,-5.5703,-5.5703,-5.5703,-5.5703,-5.5703,-5.5703,-5.5703,-5.5703,-5.5703,-5.5703,-5.5703,-5.5376,-5.4703,-5.5222,-5.5184,-5.4491,-5.5184,-5.5511,-5.5511,-5.5167,-5.4838,-5.6599,-5.7338,-5.755,-5.6069,-5.5703,-5.5703,-5.5703,-5.5703,-5.5703,-5.5703,-5.5703,-5.6145,-5.7627,-5.6915,-5.6492,-5.7703,-5.8223,-5.8723,0.0,0.0,-6.0646,-6.0781,-6.08,-6.08,-6.08,-6.08,-6.08,-6.08,-6.08,-6.08,-6.08,-6.08,-6.08,-6.08,-6.08,-6.08,-6.08,-6.08,-6.08,-6.08,-6.08,-6.08,-6.08,-6.08,-6.08,-6.08,-6.08,-6.08,-6.08,-6.08,-6.08,-6.08,-6.08,-6.08,-6.08,-6.08,-6.08,-6.08,-6.08,-6.08,-6.08,-6.08,-6.08,-6.08,-6.08,-6.08,-6.08,-6.08,-6.08,-6.08,-6.08,-6.08,-6.08,-6.08,-5.9511,-5.83,-5.83,-5.6934,-5.5703,-5.5703,-5.5703,-5.5703,-5.5703,-5.5703,-5.5703,-5.5703,-5.5703,-5.5703,-5.5703,-5.5703,-5.5703,-5.5703,-5.5703,-5.5703,-5.5703,-5.5703,-5.5703,-5.5703,-5.5703,-5.5703,-5.5703,-5.5703,-5.5645,-5.5511,-5.4972,-5.4626,-5.4491,-5.4626,-5.4684,-5.4673,-5.4614,-5.4566,-5.6195,-5.6588,-5.6934,-5.7069,-5.778,-5.8454,-5.8454,-5.8454,-5.8204,-5.728,-5.7107,-5.7357,-5.8146,-5.8396,-5.9011,-6.0723,-5.9858,-5.9242,-6.0089,-6.0146,-6.0262,-6.0742,-6.08,-6.08,-6.08,-6.08,-6.08,-6.08,-6.08,-6.08,-6.08,-6.08,-6.08,-6.08,-6.08,-6.08,-6.08,-6.08,-6.08,-6.08,-6.08,-6.08,-6.08,-6.08,-6.08,-6.08,-6.08,-6.08,-6.08,-6.08,-6.08,-6.08,-6.08,-6.08,-6.08,-6.08,-6.08,-6.08,-6.08,-6.08,-6.08,-6.08,-6.08,-6.08,-6.08,-6.08,-6.08,-6.08,-6.08,-6.08,-6.08,-6.08,-6.08,-6.08,-5.9858,-5.8838,-5.8396,-5.73,-5.6272,-5.578,-5.5703,-5.5703,-5.5703,-5.5703,-5.5703,-5.5703,-5.5703,-5.5703,-5.5703,-5.5703,-5.5703,-5.5703,-5.5703,-5.5703,-5.5703,-5.5703,-5.5703,-5.5703,-5.5703,-5.5703,-5.5703,-5.5703,-5.5491,-5.5049,-5.5126,-5.4934,-5.4491,-5.4934,-5.5145,-5.5145,-5.5147,-5.5034,-5.5953,-5.6145,-5.6665,-5.8204,-5.9108,-5.9819,-6.0608,-6.0492,-5.9954,-5.9069,-5.8896,-5.8896,-5.8896,-5.9935,-6.1089,-6.1993,-6.0819,-6.0031,-6.0704,-6.0223,-6.005,-6.0723,-6.08,-6.08,-6.08,-6.08,-6.08,-6.08,-6.08,-6.08,-6.08,-6.08,-6.08,-6.08,-6.08,-6.08,-6.08,-6.08,-6.08,-6.08,-6.08,-6.08,-6.08,-6.08,-6.08,-6.08,-6.08,-6.08,-6.08,-6.08,-6.08,-6.08,-6.08,-6.08,-6.08,-6.08,-6.08,-6.08,-6.08,-6.08,-6.08,-6.08,-6.08,-6.08,-6.08,-6.08,-6.08,-6.08,-6.08,-6.08,-6.08,-6.08,-6.08,-6.08,-5.9992,-5.905,-5.8434,-5.7453,-5.6503,-5.5818,-5.5703,-5.5703,-5.5703,-5.5703,-5.5703,-5.5703,-5.5703,-5.5703,-5.5703,-5.5703,-5.5703,-5.5703,-5.5703,-5.5703,-5.5703,-5.5703,-5.578,-5.5992,-5.5992,-5.5915,-5.5703,-5.5895,-5.5607,-5.4799,-5.5395,-5.5395,-5.478,-5.5395,-5.5703,-5.5703,-5.5512,-5.525,-5.6695,-5.7492,-5.8319,-5.9204,-5.7723,-5.6896,-6.0069,-5.9608,-5.8896,-6.0319,-6.0608,-6.0608,-6.0608,-6.0723,-6.0319,-5.8896,-5.9819,-6.0723,-6.0781,-6.0742,-6.0723,-6.0781,-6.08,-6.08,-6.08,-6.08,-6.08,-6.08,-6.08,-6.08,-6.08,-6.08,-6.08,-6.08,-6.08,-6.08,-6.08,-6.08,-6.08,-6.08,-6.08,-6.08,-6.08,-6.08,-6.08,-6.08,-6.08,-6.08,-6.08,-6.08,-6.08,-6.08,-6.08,-6.08,-6.08,-6.08,-6.08,-6.08,-6.08,-6.08,-6.08,-6.08,-6.08,-6.08,-6.08,-6.08,-6.08,-6.08,-6.08,-6.08,-6.08,-6.08,-6.08,-6.08,-5.955,-5.8377,-5.8319,-5.6973,-5.578,-5.5703,-5.5703,-5.5703,-5.5703,-5.5703,-5.5703,-5.5703,-5.5703,-5.5703,-5.5703,-5.5703,-5.5703,-5.5703,-5.5703,-5.5703,-5.5703,-5.5703,-5.6049,-5.6868,-5.6907,-5.6541,-5.5722,-5.6483,-5.6503,-5.5626,-5.5665,-5.5665,-5.5607,-5.5665,-5.5703,-5.5673,-5.4919,-5.4582,-5.6088,-5.7223,-5.8377,-5.8684,-5.803,-5.8204,-6.1589,-6.1858,-6.13,-6.0877,-6.1627,-6.2204,-6.1704,-6.2897,-6.3416,-6.1685,-6.1935,-6.2185,-6.1678,-6.1127,-6.08,-6.08,-6.08,-6.08,-6.08,-6.08,-6.08,-6.08,-6.08,-6.08,-6.08,-6.08,-6.08,-6.08,-6.08,-6.08,-6.08,-6.08,-6.08,-6.08,-6.08,-6.08,-6.08,-6.08,-6.08,-6.08,-6.08,-6.08,-6.08,-6.08,-6.08,-6.08,-6.08,-6.08,-6.08,-6.08,-6.08,-6.08,-6.08,-6.08,-6.08,-6.08,-6.08,-6.08,-6.08,-6.08,-6.08,-6.08,-6.08,-6.08,-6.08,-6.08,-6.0666,-6.0127,-5.9511,-5.8761,-5.7723,-5.6983,-5.6349,-5.5799,-5.5703,-5.5703,-5.5703,-5.5703,-5.5703,-5.5703,-5.5703,-5.5703,-5.5703,-5.5703,-5.5703,-5.5703,-5.5703,-5.5703,-5.5703,-5.6214,-5.6426,-5.6203,-5.6195,-5.6291,-5.6503,-5.631,-5.603,-5.5703,-5.5703,-5.5703,-5.5703,-5.5446,-5.5319,-5.5306,-5.4764,-5.4503,-5.6511,-5.7396,-5.8434,-5.8954,-5.8684,-5.9184,-6.2551,-6.2897,-6.2493,-6.2416,-6.2685,-6.2839,-6.2531,-6.3705,-6.4301,0.0,-6.3128,-6.3031,-6.2216,-6.1351,-6.08,-6.08,-6.08,-6.08,-6.08,-6.08,-6.08,-6.08,-6.08,-6.08,-6.08,-6.08,-6.08,-6.08,-6.08,-6.08,-6.08,-6.08,-6.08,-6.08,-6.08,-6.08,-6.08,-6.08,-6.08,-6.08,-6.08,-6.08,-6.08,-6.08,-6.08,-6.08,-6.08,-6.08,-6.08,-6.08,-6.08,-6.08,-6.08,-6.08,-6.08,-6.08,-6.08,-6.08,-6.08,-6.08,-6.08,-6.08,-6.08,-6.08,-6.08,-6.08,-6.0646,-6.005,-5.9511,-5.8819,-5.7646,-5.6983,-5.6406,-5.5818,-5.5703,-5.5703,-5.5703,-5.5703,-5.5703,-5.5703,-5.5703,-5.5703,-5.5703,-5.5703,-5.5703,-5.5703,-5.5703,-5.5799,-5.6088,-5.6656,-5.6868,-5.653,-5.6261,-5.6252,-5.6579,-5.6291,-5.5972,-5.5703,-5.5577,-5.5512,-5.5512,-5.5121,-5.4924,-5.4909,-5.4484,-5.4272,-5.828,-5.83,-5.8704,-6.0358,-5.955,-5.9223,-6.2551,-6.2012,-6.1781,-6.5186,-6.3858,-6.237,-6.3166,-6.2666,-6.2139,-6.2139,-6.2781,-6.3031,-6.2216,-6.1339,-6.08,-6.08,-6.08,-6.08,-6.08,-6.08,-6.08,-6.08,-6.08,-6.08,-6.08,-6.08,-6.08,-6.08,-6.08,-6.08,-6.08,-6.08,-6.08,-6.08,-6.08,-6.08,-6.08,-6.08,-6.08,-6.08,-6.08,-6.08,-6.08,-6.08,-6.08,-6.08,-6.08,-6.08,-6.08,-6.08,-6.08,-6.08,-6.08,-6.08,-6.08,-6.08,-6.08,-6.08,-6.08,-6.08,-6.08,-6.08,-6.08,-6.08,-6.08,-6.08,-6.08,-6.0781,-5.9511,-5.83,-5.828,-5.6915,-5.5703,-5.5703,-5.5703,-5.5703,-5.5703,-5.5703,-5.5703,-5.5703,-5.5703,-5.5703,-5.5703,-5.5703,-5.5703,-5.5703,-5.5703,-5.6069,-5.6945,-5.7003,-5.7376,-5.8223,-5.7473,-5.6607,-5.5742,-5.6541,-5.6579,-5.5703,-5.5306,-5.5107,-5.5088,-5.4686,-5.4503,-5.4487,-5.4013,-5.3796,-5.578,-5.7357,-5.9127,-5.9069,-6.0435,-6.2089,-6.3058,-6.2474,-6.2339,-6.4532,-6.3897,-6.3205,-6.407,-6.4512,-6.457,-6.3955,-6.3551,-6.3224,-6.2974,-6.1704,-6.08,-6.08,-6.08,-6.08,-6.08,-6.08,-6.08,-6.08,-6.08,-6.08,-6.08,-6.08,-6.08,-6.08,-6.08,-6.08,-6.08,-6.08,-6.08,-6.08,-6.08,-6.08,-6.08,-6.08,-6.08,-6.08,-6.08,-6.08,-6.08,-6.08,-6.08,-6.08,-6.08,-6.08,-6.08,-6.08,-6.08,-6.08,-6.08,-6.08,-6.08,-6.08,-6.08,-6.08,-6.08,-6.08,-6.08,-6.08,-6.08,-6.08,-6.08,-6.08,-6.0492,-5.9319,-5.8665,-5.7973,-5.6742,-5.6049,-5.5703,-5.5703,-5.5703,-5.5703,-5.5703,-5.5703,-5.5703,-5.5703,-5.5703,-5.5703,-5.5703,-5.5703,-5.5934,-5.656,-5.6618,-5.6983,-5.7838,-5.7915,-5.7761,-5.7407,-5.6872,-5.6592,-5.6607,-5.6272,-5.5826,-5.5282,-5.516,-5.4966,-5.4689,-5.4238,-5.3995,-5.3995,-5.3584,-5.338,-5.7953,-5.9473,-6.1069,-6.1262,-6.232,-6.3397,-6.3743,-6.3705,-6.3897,-6.4916,-6.4416,-6.4089,-6.4955,-6.5263,-6.532,-6.5147,-6.4397,-6.3705,-6.3346,-6.2166,-6.1185,-6.0839,-6.08,-6.08,-6.08,-6.08,-6.08,-6.08,-6.08,-6.08,-6.08,-6.08,-6.08,-6.08,-6.08,-6.08,-6.08,-6.08,-6.08,-6.08,-6.08,-6.08,-6.08,-6.08,-6.08,-6.08,-6.08,-6.08,-6.08,-6.08,-6.08,-6.08,-6.08,-6.08,-6.08,-6.08,-6.08,-6.08,-6.08,-6.08,-6.08,-6.08,-6.08,-6.08,-6.08,-6.08,-6.08,-6.08,-6.08,-6.08,-6.08,-6.08,-6.0454,-5.9108,-5.8531,-5.7915,-5.6511,-5.5934,-5.5703,-5.5703,-5.5703,-5.5651,-5.5489,-5.5588,-5.5651,-5.5489,-5.5599,-5.5703,-5.5703,-5.5992,-5.6426,-5.6945,-5.7311,-5.7723,-5.8261,-5.83,-5.7934,-5.706,-5.6613,-5.6352,-5.6252,-5.5593,-5.5121,-5.4881,-5.4682,-5.4544,-5.4503,-5.387,-5.3644,-5.3796,-5.34,-5.3185,-6.2339,-6.2954,-6.3589,-6.5243,-6.4589,-6.3743,-6.4551,-6.532,-6.5878,-6.5801,-6.5205,-6.4955,-6.5743,-6.5243,-6.4974,-6.5763,-6.5166,-6.432,-6.3519,-6.2666,-6.1812,-6.1012,-6.0839,-6.08,-6.08,-6.08,-6.08,-6.08,-6.08,-6.08,-6.08,-6.08,-6.08,-6.08,-6.08,-6.08,-6.08,-6.08,-6.08,-6.08,-6.08,-6.08,-6.08,-6.08,-6.08,-6.08,-6.08,-6.08,-6.08,-6.08,-6.08,-6.08,-6.08,-6.08,-6.08,-6.08,-6.08,-6.08,-6.08,-6.08,-6.08,-6.08,-6.08,-6.08,-6.08,-6.08,-6.08,-6.08,-6.08,-6.08,-6.08,-6.08,-6.055,-5.9627,-5.8838,-5.805,-5.7099,-5.6272,-5.5703,-5.5703,-5.5703,-5.5588,-5.5212,-5.5423,-5.5512,-5.516,-5.5411,-5.5662,-5.5703,-5.6464,-5.7041,-5.7118,-5.7896,-5.8415,-5.8415,-5.8338,-5.7904,-5.6997,-5.6486,-5.5853,-5.5012,-5.4671,-5.4487,-5.4439,-5.4048,-5.4048,-5.442,-5.3642,-5.3444,-5.3796,-5.34,-5.3185,-5.8434,-6.0312,-6.2589,-6.3608,-6.4609,-6.5397,-6.557,-6.5763,-6.5705,-6.5013,-6.5263,-6.5686,-6.5859,-6.5743,-6.5686,-6.5859,-6.5166,-6.4532,-6.4359,-6.3031,-6.2043,-6.1851,-6.1235,-6.08,-6.08,-6.08,-6.08,-6.08,-6.08,-6.08,-6.08,-6.08,-6.08,-6.08,-6.08,-6.08,-6.08,-6.08,-6.08,-6.08,-6.08,-6.08,-6.08,-6.08,-6.08,-6.08,-6.08,-6.08,-6.08,-6.08,-6.08,-6.08,-6.08,-6.08,-6.08,-6.08,-6.08,-6.08,-6.08,-6.08,-6.08,-6.08,-6.08,-6.08,-6.08,-6.08,-6.08,-6.08,-6.08,-6.08,-6.08,-6.08,-6.0416,-5.8915,-5.8434,-5.7877,-5.6319,-5.5818,-5.5703,-5.5703,-5.5703,-5.5673,-5.5588,-5.5387,-5.5199,-5.5101,-5.5173,-5.5331,-5.5662,-5.6464,-5.7272,-5.7953,-5.8742,-5.9242,-5.9242,-5.8665,-5.7793,-5.6588,-5.5512,-5.4657,-5.4099,-5.4355,-5.4322,-5.3959,-5.4204,-5.4221,-5.3941,-5.3758,-5.372,-5.3796,-5.34,-5.3185,-5.9704,-6.132,-6.2974,-6.4224,-6.5224,-6.5897,-6.5897,-6.5897,-6.5763,-6.532,-6.557,-6.5897,-6.5897,-6.5897,-6.5897,-6.5897,-6.5513,-6.507,-6.4666,-6.3493,-6.2531,-6.2159,-6.132,-6.08,-6.08,-6.08,-6.08,-6.08,-6.08,-6.08,-6.08,-6.08,-6.08,-6.08,-6.08,-6.08,-6.08,-6.08,-6.08,-6.08,-6.08,-6.08,-6.08,-6.08,-6.08,-6.08,-6.08,-6.08,-6.08,-6.08,-6.08,-6.08,-6.08,-6.08,-6.08,-6.08,-6.08,-6.08,-6.08,-6.08,-6.08,-6.08,-6.08,-6.08,-6.08,-6.08,-6.08,-6.08,-6.08,-6.08,-6.08,-6.0492,-5.9858,-5.8607,-5.83,-5.7819,-5.6069,-5.5703,-5.5651,-5.5446,-5.5411,-5.5275,-5.4852,-5.4618,-5.456,-5.4775,-5.4804,-5.5028,-5.5609,-5.6633,-5.7614,-5.8445,-5.913,-5.9338,-5.8954,-5.8165,-5.7136,-5.5872,-5.4962,-5.4288,-5.3833,-5.3851,-5.3851,-5.3796,-5.4255,-5.4468,-5.4414,-5.4219,-5.4236,-5.4398,-5.3777,-5.3504,-6.1512,-6.2743,-6.3724,-6.5455,-6.5897,-6.5897,-6.5897,-6.5897,-6.5897,-6.5897,-6.5897,-6.5897,-6.5897,-6.5897,-6.5897,-6.5897,-6.5897,-6.5647,-6.4936,-6.407,-6.3224,-6.2397,-6.155,-6.0973,-6.08,-6.08,-6.08,-6.08,-6.08,-6.08,-6.08,-6.08,-6.08,-6.08,-6.08,-6.08,-6.08,-6.08,-6.08,-6.08,-6.08,-6.08,-6.08,-6.08,-6.08,-6.08,-6.08,-6.08,-6.08,-6.08,-6.08,-6.08,-6.08,-6.08,-6.08,-6.08,-6.08,-6.08,-6.08,-6.08,-6.08,-6.08,-6.08,-6.08,-6.08,-6.08,-6.08,-6.08,-6.08,-6.08,-6.08,-6.0262,-5.9473,-5.8531,-5.83,-5.7819,-5.6069,-5.5651,-5.5501,-5.5173,-5.5048,-5.4741,-5.3941,-5.3796,-5.3923,-5.4322,-5.4503,-5.4858,-5.5602,-5.6861,-5.7973,-5.8716,-5.9141,-5.9088,-5.8365,-5.7428,-5.6355,-5.5078,-5.4609,-5.417,-5.372,-5.3444,-5.3464,-5.3796,-5.4255,-5.4705,-5.5088,-5.4779,-5.476,-5.5075,-5.4286,-5.3905,-5.7915,-6.0512,-6.3724,-6.5455,-6.5897,-6.5897,-6.5897,-6.5897,-6.5897,-6.5897,-6.5897,-6.5897,-6.5897,-6.5897,-6.5897,-6.5897,-6.5897,-6.5859,-6.5743,-6.4974,-6.4109,-6.3243,-6.2416,-6.1639,-6.0858,-6.08,-6.08,-6.08,-6.08,-6.08,-6.08,-6.08,-6.08,-6.08,-6.08,-6.08,-6.08,-6.08,-6.08,-6.08,-6.08,-6.08,-6.08,-6.08,-6.08,-6.08,-6.08,-6.08,-6.08,-6.08,-6.08,-6.08,-6.08,-6.08,-6.08,-6.08,-6.08,-6.08,-6.08,-6.08,-6.08,-6.08,-6.08,-6.08,-6.08,-6.08,-6.08,-6.08,-6.08,-6.08,-6.08,-6.0704,-6.0223,-5.8665,-5.83,-5.7819,-5.6069,-5.5423,-5.5173,-5.5121,-5.4823,-5.442,-5.3887,-5.3796,-5.3833,-5.3869,-5.4503,-5.5116,-5.5626,-5.7083,-5.8227,-5.8763,-5.8854,-5.8731,-5.8335,-5.718,-5.5935,-5.4651,-5.4153,-5.372,-5.3295,-5.3565,-5.3758,-5.3796,-5.4255,-5.4705,-5.5088,-5.5048,-5.5048,-5.5088,-5.4625,-5.4423,-5.7857,-6.1166,-6.4339,-6.559,-6.5897,-6.5897,-6.5897,-6.5897,-6.5897,-6.5897,-6.5897,-6.5897,-6.5897,-6.5897,-6.5897,-6.5897,-6.5897,-6.5897,-6.5897,-6.5147,-6.4282,-6.3404,-6.2589,-6.1774,-6.0877,-6.08,-6.08,-6.08,-6.08,-6.08,-6.08,-6.08,-6.08,-6.08,-6.08,-6.08,-6.08,-6.08,-6.08,-6.08,-6.08,-6.08,-6.08,-6.08,-6.08,-6.08,-6.08,-6.08,-6.08,-6.08,-6.08,-6.08,-6.08,-6.08,-6.08,-6.08,-6.08,-6.08,-6.08,-6.08,-6.08,-6.08,-6.08,-6.08,-6.08,-6.08,-6.08,-6.08,-6.08,-6.08,-6.08,-6.0435,-5.9762,-5.8588,-5.7934,-5.7223,-5.5972,-5.5368,-5.4947,-5.4481,-5.4049,-5.3701,-5.3504,-5.3464,-5.3464,-5.3464,-5.4147,-5.4894,-5.556,-5.6893,-5.8105,-5.9038,-5.8528,-5.8181,-5.8285,-5.6671,-5.5337,-5.4554,-5.4048,-5.3605,-5.3227,-5.338,-5.3565,-5.3796,-5.4481,-5.4924,-5.5088,-5.5319,-5.5435,-5.5423,-5.5021,-5.4852,-5.8357,-6.1358,-6.3666,-6.5186,-6.557,-6.5628,-6.584,-6.5897,-6.5897,0.0,-6.5897,-6.5897,-6.5897,-6.5897,-6.5897,-6.5897,-6.5897,-6.5897,-6.5897,-6.534,-6.4532,-6.3435,-6.2762,-6.1973,-6.0896,-6.08,-6.08,-6.08,-6.08,-6.08,-6.08,-6.08,-6.08,-6.08,-6.08,-6.08,-6.08,-6.08,-6.08,-6.08,-6.08,-6.08,-6.08,-6.08,-6.08,-6.08,-6.08,-6.08,-6.08,-6.08,-6.08,-6.08,-6.08,-6.08,-6.08,-6.08,-6.08,-6.08,-6.08,-6.08,-6.08,-6.08,-6.08,-6.08,-6.08,-6.08,-6.08,-6.08,-6.08,-6.08,-6.08,-6.0319,-5.9569,-5.855,-5.78,-5.6978,-5.5684,-5.516,-5.4682,-5.3833,-5.3402,-5.3185,-5.3185,-5.3369,-5.35,-5.35,-5.4363,-5.5225,-5.5831,-5.6921,-5.8024,-5.9101,-5.8135,-5.7568,-5.7921,-5.6107,-5.476,-5.4338,-5.3888,-5.3505,-5.3206,-5.3185,-5.3339,-5.3644,-5.4401,-5.4876,-5.5088,-5.5294,-5.5435,-5.5535,-5.5237,-5.5088,-5.8357,-5.9627,-6.055,-6.3858,-6.4666,-6.4878,-6.5705,0.0,-6.5897,-6.5897,-6.5897,-6.5897,-6.5897,-6.5897,-6.5897,-6.5897,-6.5897,-6.5897,-6.5897,-6.5859,-6.5205,-6.3512,-6.3262,-6.2608,-6.0954,-6.08,-6.08,-6.08,-6.08,-6.08,-6.08,-6.08,-6.08,-6.08,-6.08,-6.08,-6.08,-6.08,-6.08,-6.08,-6.08,-6.08,-6.08,-6.08,-6.08,-6.08,-6.08,-6.08,-6.08,-6.08,-6.08,-6.08,-6.08,-6.08,-6.08,-6.08,-6.08,-6.08,-6.08,-6.08,-6.08,-6.08,-6.08,-6.08,-6.08,-6.08,-6.08,-6.08,-6.08,-6.08,-6.08,-6.0762,-6.0319,-5.8684,-5.828,-5.7561,-5.5091,-5.455,-5.4274,-5.34,-5.3206,-5.3185,-5.3185,-5.383,-5.4344,-5.4344,-5.5684,-5.6693,-5.673,-5.745,-5.8157,-5.8674,-5.7657,-5.6956,-5.6967,-5.5476,-5.4338,-5.3869,-5.3462,-5.3227,-5.3185,-5.3185,-5.3206,-5.3227,-5.3644,-5.4267,-5.5088,-5.475,-5.4764,-5.5134,-5.5121,-5.5088,-5.7319,-5.9088,-6.0762,-6.2551,-6.3801,-6.4686,-6.4993,-6.5493,-6.5897,-6.5897,-6.5897,-6.5897,-6.5897,-6.5897,-6.5897,-6.5897,-6.5897,-6.5897,-6.5897,-6.5897,-6.5455,-6.4282,-6.3647,-6.2858,-6.1755,-6.1127,-6.08,-6.08,-6.08,-6.08,-6.08,-6.08,-6.08,-6.08,-6.08,-6.08,-6.08,-6.08,-6.08,-6.08,-6.08,-6.08,-6.08,-6.08,-6.08,-6.08,-6.08,-6.08,-6.08,-6.08,-6.08,-6.08,-6.08,-6.08,-6.08,-6.08,-6.08,-6.08,-6.08,-6.08,-6.08,-6.08,-6.08,-6.08,-6.08,-6.08,-6.08,-6.08,-6.08,-6.08,-6.08,-6.08,-6.0377,-5.8704,-5.7246,-5.5937,-5.4742,-5.4255,-5.3869,-5.3295,-5.3185,-5.3185,-5.3185,-5.3867,-5.4399,-5.4399,-5.5776,-5.6804,-5.6804,-5.7501,-5.7965,-5.7926,-5.7042,-5.6347,-5.6147,-5.4858,-5.3977,-5.3814,-5.3422,-5.3185,-5.3185,-5.3185,-5.3185,-5.3185,-5.3339,-5.3701,-5.427,-5.442,-5.4563,-5.4701,-5.4701,-5.4701,-5.6175,-5.8022,-5.9869,-6.1312,-6.2281,-6.3185,-6.4339,0.0,-6.5186,-6.5782,-6.5897,-6.5897,-6.5897,-6.5897,-6.5897,-6.5897,-6.5897,-6.5897,-6.5897,-6.5897,-6.557,-6.4705,-6.3839,-6.2974,-6.2178,-6.13,-6.08,-6.08,-6.08,0.0,-6.08,-6.08,-6.08,-6.08,-6.08,-6.08,-6.08,-6.08,-6.08,-6.08,-6.08,-6.08,-6.08,-6.08,-6.08,-6.08,-6.08,-6.08,-6.08,-6.08,-6.08,-6.08,-6.08,-6.08,-6.08,-6.08,-6.08,-6.08,-6.08,-6.08,-6.08,-6.08,-6.08,-6.08,-6.08,-6.08,-6.08,-6.08,-6.08,-6.08,-6.08,-6.0569,-6.0012,-5.8627,-5.6748,-5.5141,-5.4623,-5.4135,-5.3663,-5.3293,-5.3185,-5.3185,-5.3185,-5.3867,-5.4491,-5.4748,-5.5941,-5.6914,-5.7171,-5.7666,-5.7806,-5.7328,-5.6637,-5.5957,-5.5321,-5.4354,-5.374,-5.3624,-5.3339,-5.3185,-5.3185,-5.3185,-5.3185,-5.3185,-5.3185,-5.3318,-5.3604,-5.3906,-5.4137,-5.4255,-5.4255,-5.4338,0.0,0.0,0.0,-6.0069,-6.0089,0.0,-6.3724,0.0,-6.3743,-6.5493,-6.584,-6.584,-6.5878,-6.5897,-6.5897,-6.5897,-6.5897,-6.5897,-6.5897,-6.5897,-6.559,-6.4743,-6.3858,-6.2993,-6.2216,-6.132,-6.08,-6.08,-6.08,-6.08,-6.08,-6.08,-6.08,-6.08,-6.08,-6.08,-6.08,-6.08,-6.08,-6.08,-6.08,-6.08,-6.08,-6.08,-6.08,-6.08,-6.08,-6.08,-6.08,-6.08,-6.08,-6.08,-6.08,-6.08,-6.08,-6.08,-6.08,-6.08,-6.08,-6.08,-6.08,-6.08,-6.08,-6.08,-6.08,-6.08,-6.08,-6.08,-6.08,-6.08,-6.08,-6.0146,-5.93,-5.8481,-5.6957,-5.5481,-5.4657,-5.4101,-5.3682,-5.3272,-5.3185,-5.3185,-5.3185,-5.3867,-5.4675,-5.5445,-5.6271,-5.7079,-5.785,-5.7997,-5.7685,-5.6859,-5.6411,-5.57,-5.4461,-5.4009,-5.3624,-5.3227,-5.3185,-5.3185,-5.3185,-5.3185,-5.3185,-5.3185,-5.3185,-5.3185,-5.3185,-5.3185,-5.3402,-5.3777,-5.3777,-5.4013,-5.5184,0.0,0.0,0.0,0.0,0.0,0.0,0.0,0.0,-6.4474,-6.4455,-6.4397,-6.5667,-6.5897,-6.5897,-6.5897,-6.5897,-6.5897,-6.5897,-6.5897,-6.5801,-6.557,-6.4205,-6.3224,-6.2993,-6.1647,-6.08,0.0,-6.08,-6.08,-6.08,-6.08,-6.08,-6.08,-6.08,-6.08,-6.08,-6.08,-6.08,-6.08,-6.08,-6.08,-6.08,-6.08,-6.08,-6.08,-6.08,-6.08,-6.08,-6.08,-6.08,-6.08,-6.08,-6.08,-6.08,-6.08,-6.08,-6.08,-6.08,-6.08,-6.08,-6.08,-6.08,-6.08,-6.08,-6.08,-6.08,-6.08,-6.08,-6.08,-6.08,-6.0146,-5.9204,-5.8068,-5.6734,-5.5381,-5.4234,-5.3644,-5.3318,-5.3227,-5.3185,-5.3185,-5.3185,-5.3867,-5.4473,-5.4693,-5.5904,-5.6895,-5.7097,-5.7648,-5.7464,-5.6069,-5.5837,-5.5159,-5.3647,-5.3424,-5.3316,-5.3206,-5.3185,-5.3185,-5.3185,-5.3185,-5.3185,-5.3185,-5.3185,-5.3185,-5.3185,-5.3185,-5.3251,-5.3359,-5.3359,-5.3422,-5.4299,-5.553,-5.6541,-5.6915,0.0,0.0,-6.0819,-6.105,0.0,0.0,-6.4743,-6.4705,-6.5705,-6.5897,-6.5897,-6.5897,-6.5897,-6.5897,-6.5897,-6.5897,-6.5897,-6.5897,-6.4686,-6.3705,-6.3327,-6.2108,-6.1185,-6.0819,-6.08,-6.08,-6.08,-6.08,-6.08,-6.08,-6.08,-6.08,-6.08,-6.08,-6.08,-6.08,-6.08,-6.08,-6.08,-6.08,-6.08,-6.08,-6.08,-6.08,-6.08,-6.08,-6.08,-6.08,-6.08,-6.08,-6.08,-6.08,-6.08,-6.08,-6.08,-6.08,-6.08,-6.08,-6.08,-6.08,-6.08,-6.08,-6.08,-6.08,-6.0647,-6.0508,-6.0508,-5.9988,-5.9178,-5.8083,-5.687,-5.5634,-5.4541,-5.3706,-5.3185,-5.3185,-5.3185,-5.3185,-5.3185,-5.3592,-5.4014,-5.4344,-5.5207,-5.6051,-5.6712,-5.7207,-5.7134,-5.6198,-5.6106,-5.5592,-5.4308,-5.3904,-5.3702,-5.3702,-5.339,-5.3185,-5.3185,-5.3185,-5.3185,-5.3185,-5.3185,-5.3185,-5.3185,-5.3185,-5.3185,-5.3185,-5.3185,-5.3185,-5.3164,-5.4491,-5.5895,-5.6665,-5.6357,0.0,-6.0658,-6.0916,-6.1281,0.0,0.0,-6.5109,-6.5301,-6.5397,-6.5455,-6.534,-6.557,-6.5782,-6.5878,-6.5897,-6.5897,-6.5897,-6.5128,-6.4262,-6.3378,-6.257,-6.1735,-6.0858,-6.08,-6.08,-6.08,-6.08,-6.08,-6.08,-6.08,-6.08,-6.08,-6.08,-6.08,-6.08,-6.08,-6.08,-6.08,-6.08,-6.08,-6.08,-6.08,-6.08,-6.08,-6.08,-6.08,-6.08,-6.08,-6.08,-6.08,-6.08,-6.08,-6.08,-6.08,-6.08,-6.08,-6.08,-6.08,-6.08,-6.08,-6.08,-6.08,-6.0746,-6.0378,-6.0025,-6.0025,-5.9709,-5.9164,-5.8247,-5.7154,-5.605,-5.5135,-5.4016,-5.3185,-5.3185,-5.3185,-5.3185,-5.3185,-5.3185,-5.3445,-5.4161,-5.4344,-5.495,-5.6473,-5.6748,-5.6804,-5.6804,-5.6804,-5.6473,-5.5666,-5.4932,-5.4528,-5.4528,-5.3794,-5.3335,-5.3335,-5.324,-5.3185,-5.3185,-5.3185,-5.3185,-5.3185,-5.3185,-5.3185,-5.3185,-5.3185,-5.3185,-5.4376,-5.4953,-5.5742,-5.5915,-5.6338,0.0,-5.7811,-5.7868,-5.83,0.0,0.0,-6.0204,-6.155,-6.237,-6.262,-6.1897,-6.3512,0.0,0.0,0.0,0.0,0.0,0.0,0.0,-6.3378,-6.257,-6.1735,-6.0858,-6.08,-6.08,-6.08,-6.08,-6.08,-6.08,-6.08,-6.08,-6.08,-6.08,-6.08,-6.08,-6.08,-6.08,-6.08,-6.08,-6.08,-6.08,-6.08,-6.08,-6.08,-6.08,-6.08,-6.08,-6.08,-6.08,-6.08,-6.08,-6.08,-6.08,-6.08,-6.08,-6.08,-6.08,-6.08,-6.08,-6.08,-6.08,-6.0714,-6.0338,-5.9901,-5.9545,-5.9545,-5.9477,-5.9094,-5.7903,-5.6947,-5.5972,-5.4785,-5.3821,-5.3185,-5.3185,-5.3185,-5.3185,-5.3185,-5.3185,-5.324,-5.3427,-5.3995,-5.4748,-5.5702,-5.64,-5.6804,-5.6804,-5.6804,-5.6473,-5.5666,-5.5467,-5.5354,-5.5354,-5.4601,-5.4179,-5.4179,-5.3555,-5.3185,-5.3185,-5.3185,-5.3185,-5.3185,-5.3185,-5.3185,-5.3185,-5.3185,-5.3185,-5.4838,-5.5088,-5.5799,-5.6252,-5.6349,0.0,0.0,0.0,-5.8127,0.0,0.0,0.0,-6.0646,0.0,-6.1447,-6.1447,0.0,0.0,0.0,0.0,0.0,0.0,0.0,0.0,-6.3378,-6.257,-6.1735,-6.0858,-6.08,-6.08,-6.08,-6.08,-6.08,-6.08,-6.08,-6.08,-6.08,-6.08,-6.08,-6.08,-6.08,-6.08,-6.08,-6.08,-6.08,-6.08,-6.08,-6.08,-6.08,-6.08,-6.08,-6.08,-6.08,-6.08,-6.08,-6.08,-6.08,-6.08,-6.08,-6.08,-6.08,-6.08,-6.08,-6.08,-6.08,-6.0634,-6.0351,-5.9885,-5.9407,-5.9047,-5.9047,-5.8874,-5.8541,-5.7897,-5.6837,-5.5794,-5.5125,-5.4051,-5.3185,-5.3185,-5.3185,-5.3185,-5.3185,-5.3185,-5.3185,-5.3185,-5.3555,-5.4087,-5.4895,-5.5702,-5.6363,-5.6767,-5.7171,-5.7244,-5.6822,-5.6418,-5.6198,-5.6198,-5.5445,-5.4987,-5.4987,-5.4234,-5.3812,-5.3812,-5.3812,-5.4014,-5.4399,-5.3995,-5.37,-5.3505,-5.3739,-5.3851,-5.5318,-5.5453,-5.6319,-5.6868,-5.6599,-5.6646,0.0,0.0,0.0,0.0,0.0,0.0,0.0,0.0,0.0,0.0,0.0,0.0,0.0,0.0,0.0,0.0,0.0,0.0,-6.3166,-6.2031,-6.1204,-6.0819,-6.0492,-6.0454,-6.0781,-6.08,-6.08,-6.08,-6.08,-6.08,-6.08,-6.08,-6.08,-6.08,-6.08,-6.08,-6.08,-6.08,-6.08,-6.08,-6.08,-6.08,-6.08,-6.08,-6.08,-6.08,-6.08,-6.08,-6.08,-6.08,-6.08,-6.08,-6.08,-6.08,-6.08,-6.08,-6.08,-6.0769,-6.069,-6.0338,-5.987,-5.9389,-5.8932,-5.8568,-5.8568,-5.8282,-5.7997,-5.7997,-5.6877,-5.5776,-5.5633,-5.4454,-5.339,-5.3222,-5.3185,-5.3185,-5.3185,-5.3185,-5.3185,-5.3185,-5.3185,-5.35,-5.4308,-5.5097,-5.5849,-5.651,-5.7428,-5.7941,-5.7776,-5.7317,-5.7042,-5.7042,-5.6271,-5.5831,-5.5831,-5.506,-5.4638,-5.4638,-5.4638,-5.495,-5.5614,-5.5021,-5.446,-5.3924,-5.4142,-5.4257,0.0,0.0,0.0,-5.7176,-5.7511,-5.7684,0.0,0.0,-5.6983,-5.6395,0.0,0.0,0.0,0.0,0.0,0.0,0.0,0.0,0.0,0.0,0.0,0.0,0.0,0.0,0.0,-6.0108,-5.9319,-6.0704,-5.9415,-5.9223,-6.0723,-6.08,-6.08,-6.08,-6.08,-6.08,-6.08,-6.08,-6.08,-6.08,-6.08,-6.08,-6.08,-6.08,-6.08,-6.08,-6.08,-6.08,-6.08,-6.08,-6.08,-6.08,-6.08,-6.08,-6.08,-6.08,-6.08,-6.08,-6.08,-6.08,-6.08,-6.08,-6.08,-6.0714,-6.0311,-5.9855,-5.9372,-5.8913,-5.8439,-5.8092,-5.8092,-5.8024,-5.7997,-5.7997,-5.7317,-5.6473,-5.5739,-5.4895,-5.4051,-5.3332,-5.3185,-5.3185,-5.3185,-5.3185,-5.3185,-5.3185,-5.3185,-5.35,-5.4308,-5.5097,-5.5651,-5.5721,-5.7079,-5.7703,-5.7005,-5.7519,-5.785,-5.785,-5.7116,-5.6657,-5.6657,-5.5886,-5.5467,-5.5467,-5.5467,-5.55,-5.5614,-5.5858,-5.5416,-5.4301,-5.3647,-5.3357,0.0,0.0,0.0,0.0,0.0,0.0,-5.6742,-5.6349,-5.6126,0.0,0.0,0.0,0.0,0.0,0.0,0.0,-5.7492,0.0,0.0,0.0,0.0,0.0,0.0,0.0,0.0,0.0,0.0,0.0,-5.9242,-5.9031,-6.0704,-6.08,-6.08,-6.08,-6.08,-6.08,-6.08,-6.08,-6.08,-6.08,-6.08,-6.08,-6.08,-6.08,-6.08,-6.08,-6.08,-6.08,-6.08,-6.08,-6.08,-6.08,-6.08,-6.08,-6.08,-6.08,-6.08,-6.08,-6.08,-6.08,-6.08,-6.08,-6.08,-6.0702,-6.025,-5.9773,-5.9302,-5.8835,-5.8372,-5.7997,-5.7997,-5.7997,-5.7997,-5.7997,-5.7391,-5.6712,-5.6363,-5.5299,-5.4308,-5.3959,-5.3537,-5.3185,-5.3185,-5.3185,-5.3185,-5.3185,-5.3185,-5.3314,-5.3665,-5.4418,-5.4895,-5.4895,-5.5923,-5.6455,-5.6124,-5.684,-5.7299,-5.7299,-5.7428,-5.7299,-5.6822,-5.6473,-5.6308,-5.6308,-5.6308,-5.6528,-5.6987,-5.6694,-5.6289,-5.5798,-5.5502,-5.5361,-5.79,0.0,0.0,0.0,0.0,0.0,0.0,0.0,0.0,0.0,0.0,0.0,0.0,0.0,0.0,-5.6214,0.0,-5.6838,0.0,0.0,0.0,0.0,0.0,0.0,0.0,0.0,0.0,0.0,0.0,-5.8531,-6.0685,-6.08,-6.08,-6.08,-6.08,-6.08,-6.08,-6.08,-6.08,-6.08,-6.08,-6.08,-6.08,-6.08,-6.08,-6.08,-6.08,-6.08,-6.08,-6.08,-6.08,-6.08,-6.08,-6.08,-6.08,-6.08,-6.08,-6.08,-6.08,-6.08,-6.08,-6.08,-6.0702,-6.0508,-6.0055,-5.9443,-5.8783,-5.8317,-5.7928,-5.7666,-5.7666,-5.7831,-5.7997,-5.7997,-5.7556,-5.7079,-5.6859,-5.5886,-5.4987,-5.4766,-5.4087,-5.3537,-5.3537,-5.3353,-5.3185,-5.3185,-5.3185,-5.3185,-5.3185,-5.3904,-5.4326,-5.4087,-5.4987,-5.55,-5.528,-5.6014,-5.6473,-5.6473,-5.7024,-5.7079,-5.651,-5.6473,-5.6473,-5.6473,-5.6473,-5.6767,-5.7336,-5.6767,-5.6473,-5.6477,-5.6532,-5.6537,0.0,0.0,0.0,-5.4607,0.0,0.0,0.0,0.0,-5.6714,0.0,0.0,0.0,0.0,-5.5049,-5.4549,-5.4568,0.0,0.0,0.0,0.0,0.0,0.0,0.0,0.0,0.0,0.0,0.0,0.0,0.0,0.0,-6.0608,-6.08,-6.08,-6.08,-6.08,-6.08,-6.08,-6.08,-6.08,-6.08,-6.08,-6.08,-6.08,-6.08,-6.08,-6.08,-6.08,-6.08,-6.08,-6.08,-6.08,-6.08,-6.08,-6.08,-6.08,-6.08,-6.08,-6.08,-6.08,-6.08,-6.08,-6.08,-6.0495,-6.004,-5.9559,-5.854,-5.746,-5.7004,-5.684,-5.684,-5.684,-5.7428,-5.7997,-5.7997,-5.7978,-5.7758,-5.6969,-5.6767,-5.6492,-5.5702,-5.4913,-5.4363,-5.4363,-5.372,-5.3185,-5.3185,-5.3185,-5.3185,-5.3185,-5.3904,-5.4106,-5.3314,-5.4656,-5.5262,-5.4491,-5.517,-5.5629,-5.5629,-5.5669,-5.5666,-5.5629,-5.5629,-5.5629,-5.5629,-5.5629,-5.5669,-5.5688,-5.5669,-5.5629,-5.5651,-5.5636,-5.564,-6.1278,-6.221,-6.2344,-5.7739,-5.7223,-5.7184,0.0,0.0,0.0,0.0,0.0,0.0,0.0,-5.5472,-5.528,-5.528,-5.5049,0.0,0.0,0.0,0.0,0.0,0.0,0.0,0.0,0.0,0.0,0.0,0.0,0.0,0.0,-6.08,-6.08,-6.08,-6.08,-6.08,-6.08,-6.08,-6.08,-6.08,-6.08,-6.08,-6.08,-6.08,-6.08,-6.08,-6.08,-6.08,-6.08,-6.08,-6.08,-6.08,-6.08,-6.08,-6.08,-6.08,-6.08,-6.08,-6.08,-6.08,-6.0746,-6.0437,-6.0236,-5.9911,-5.8899,-5.809,-5.7482,-5.7299,-5.7057,-5.6932,-5.7464,-5.7795,-5.7997,-5.7997,-5.7997,-5.7923,-5.7648,-5.7189,-5.673,-5.6455,-5.5739,-5.5188,-5.5188,-5.4528,-5.3812,-5.3277,-5.3185,-5.3185,-5.3185,-5.3445,-5.35,-5.3222,-5.3702,-5.3904,-5.3628,-5.4344,-5.5023,-5.5578,-5.5614,-5.5614,-5.5614,-5.5614,-5.5614,-5.5614,-5.5614,-5.5614,-5.5614,-5.5614,-5.5614,-5.5614,-5.5614,-5.5886,-6.2697,-6.3406,-6.3332,-5.9022,-5.858,-5.8434,-5.5568,0.0,-5.6338,0.0,0.0,0.0,0.0,0.0,-5.5799,-5.6107,0.0,0.0,0.0,0.0,0.0,0.0,0.0,0.0,0.0,0.0,0.0,0.0,0.0,0.0,0.0,0.0,-6.08,-6.08,-6.08,-6.08,-6.08,-6.08,-6.08,-6.08,-6.08,-6.08,-6.08,-6.08,-6.08,-6.08,-6.08,-6.08,-6.08,-6.08,-6.08,-6.08,-6.08,-6.08,-6.08,-6.08,-6.069,-6.0514,-6.022,-6.0028,-5.9786,-5.9181,-5.8884,-5.8594,-5.7779,-5.6986,-5.6405,-5.6405,-5.619,-5.6124,-5.6932,-5.7354,-5.7648,-5.7923,-5.7997,-5.7997,-5.7997,-5.7593,-5.7226,-5.7226,-5.6583,-5.6033,-5.6033,-5.5354,-5.4546,-5.3757,-5.339,-5.3185,-5.3185,-5.3185,-5.3185,-5.3185,-5.3185,-5.3185,-5.3185,-5.3683,-5.4197,-5.4711,-5.4748,-5.4748,-5.4748,-5.4748,-5.4748,-5.4748,-5.4748,-5.4748,-5.4748,-5.4748,-5.4748,-5.4748,-5.5042,-5.5445]},{"header":{"parameterUnit":"m.s-1","parameterCategory":1,"la1":30.6,"la2":29.2853,"lo1":-89.7004,"lo2":-87.6739,"dx":0.0162,"dy":0.0183,"nx":112,"ny":82,"refTime":"2022-12-04T06:00:00:Z","depth":0,"parameterNumber":3,"parameterNumberName":"V-component_of_WINDS"},"data":[0.0,0.0,0.0,0.0,0.0,0.0,0.0,0.0,0.0,0.0,0.0,0.0,0.0,0.0,0.0,0.0,0.0,0.0,0.0,0.0,0.0,0.0,0.0,0.0,0.0,0.0,0.0,0.0,0.0,0.0,0.0,0.0,0.0,0.0,0.0,0.0,0.0,0.0,0.0,0.0,0.0,0.0,0.0,0.0,0.0,0.0,0.0,0.0,0.0,0.0,0.0,0.0,0.0,0.0,0.0,0.0,0.0,0.0,0.0,0.0,0.0,0.0,0.0,0.0,0.0,0.0,0.0,0.0,0.0,0.0,0.0,0.0,0.0,0.0,0.0,0.0,0.0,0.0,0.0,0.0,0.0,0.0,0.0,0.0,0.0,0.0,0.0,0.0,0.0,0.0,-1.8838,-1.8978,-1.9219,-1.9424,-1.9424,-1.9424,-1.8985,-1.8076,0.0,0.0,0.0,0.0,0.0,0.0,0.0,0.0,0.0,0.0,0.0,0.0,0.0,0.0,0.0,0.0,0.0,0.0,0.0,0.0,0.0,0.0,0.0,0.0,0.0,0.0,0.0,0.0,0.0,0.0,0.0,0.0,0.0,0.0,0.0,0.0,0.0,0.0,0.0,0.0,0.0,0.0,0.0,0.0,0.0,0.0,0.0,0.0,0.0,0.0,0.0,0.0,0.0,0.0,0.0,0.0,0.0,0.0,0.0,0.0,0.0,0.0,0.0,0.0,0.0,0.0,0.0,0.0,0.0,0.0,0.0,0.0,0.0,0.0,0.0,0.0,0.0,0.0,0.0,0.0,0.0,0.0,0.0,0.0,0.0,0.0,0.0,0.0,0.0,0.0,0.0,0.0,0.0,0.0,0.0,0.0,0.0,0.0,0.0,0.0,0.0,0.0,0.0,0.0,-1.8415,-1.9219,-1.9339,-1.9424,-1.9424,-1.9424,-1.8991,-1.8042,0.0,0.0,0.0,0.0,0.0,0.0,0.0,0.0,0.0,0.0,0.0,0.0,0.0,0.0,0.0,0.0,0.0,0.0,0.0,0.0,0.0,0.0,0.0,0.0,0.0,0.0,0.0,0.0,0.0,0.0,0.0,0.0,0.0,0.0,0.0,0.0,0.0,0.0,0.0,0.0,0.0,0.0,0.0,0.0,0.0,0.0,0.0,0.0,0.0,0.0,0.0,0.0,0.0,0.0,0.0,0.0,0.0,0.0,0.0,0.0,0.0,0.0,0.0,0.0,0.0,0.0,0.0,0.0,0.0,0.0,0.0,0.0,0.0,0.0,0.0,0.0,0.0,0.0,0.0,0.0,0.0,0.0,0.0,0.0,0.0,0.0,0.0,0.0,0.0,0.0,0.0,0.0,0.0,0.0,0.0,0.0,0.0,0.0,0.0,0.0,0.0,0.0,0.0,-1.8196,-1.8564,-1.935,-1.9424,-1.9424,-1.9424,-1.9424,-1.8918,-1.7862,-1.7796,0.0,0.0,0.0,0.0,0.0,0.0,0.0,0.0,0.0,0.0,0.0,0.0,0.0,0.0,0.0,0.0,0.0,0.0,0.0,0.0,0.0,0.0,0.0,0.0,0.0,0.0,0.0,0.0,0.0,0.0,0.0,0.0,0.0,0.0,0.0,0.0,0.0,0.0,0.0,0.0,0.0,0.0,0.0,0.0,0.0,0.0,0.0,0.0,0.0,0.0,0.0,0.0,0.0,0.0,0.0,0.0,0.0,0.0,0.0,0.0,0.0,0.0,0.0,0.0,0.0,0.0,0.0,0.0,0.0,0.0,0.0,0.0,0.0,0.0,0.0,0.0,0.0,0.0,0.0,0.0,0.0,0.0,0.0,0.0,0.0,0.0,0.0,0.0,0.0,0.0,0.0,0.0,0.0,0.0,0.0,0.0,0.0,0.0,0.0,0.0,0.0,0.0,-1.8524,-1.8871,-1.9377,-1.9424,-1.9424,-1.9424,-1.9424,-1.8914,-1.7662,-1.7582,0.0,0.0,0.0,0.0,0.0,0.0,0.0,0.0,0.0,0.0,0.0,0.0,0.0,0.0,0.0,0.0,0.0,0.0,0.0,0.0,0.0,0.0,0.0,0.0,0.0,0.0,0.0,0.0,0.0,0.0,0.0,0.0,0.0,0.0,0.0,0.0,0.0,0.0,0.0,0.0,0.0,0.0,0.0,0.0,0.0,0.0,0.0,0.0,0.0,0.0,0.0,0.0,0.0,0.0,0.0,0.0,0.0,0.0,0.0,0.0,0.0,0.0,0.0,0.0,0.0,0.0,0.0,0.0,0.0,0.0,0.0,0.0,0.0,0.0,0.0,0.0,0.0,0.0,0.0,0.0,0.0,0.0,0.0,0.0,0.0,0.0,0.0,0.0,0.0,0.0,0.0,0.0,0.0,0.0,0.0,0.0,0.0,0.0,0.0,0.0,0.0,0.0,-1.8617,-1.9377,-1.9424,-1.9424,-1.9424,-1.9424,-1.9424,-1.8914,-1.7662,-1.7582,0.0,0.0,0.0,0.0,0.0,0.0,0.0,0.0,0.0,0.0,0.0,0.0,0.0,0.0,0.0,0.0,0.0,0.0,0.0,0.0,0.0,0.0,0.0,0.0,0.0,0.0,0.0,0.0,0.0,0.0,0.0,0.0,0.0,0.0,0.0,0.0,0.0,0.0,0.0,0.0,0.0,0.0,0.0,0.0,0.0,0.0,0.0,0.0,0.0,0.0,0.0,0.0,0.0,0.0,0.0,0.0,0.0,0.0,0.0,0.0,0.0,0.0,0.0,0.0,0.0,0.0,0.0,0.0,0.0,0.0,0.0,0.0,0.0,0.0,0.0,0.0,0.0,0.0,0.0,0.0,0.0,0.0,0.0,0.0,0.0,0.0,0.0,0.0,0.0,0.0,0.0,0.0,0.0,0.0,0.0,0.0,0.0,0.0,0.0,0.0,0.0,0.0,-1.831,-1.8965,-1.9383,-1.9424,-1.9424,-1.9424,-1.9424,-1.8914,-1.7662,0.0,0.0,0.0,0.0,0.0,0.0,0.0,0.0,0.0,0.0,0.0,0.0,0.0,0.0,0.0,0.0,0.0,0.0,0.0,0.0,0.0,0.0,0.0,0.0,0.0,0.0,0.0,0.0,0.0,0.0,0.0,0.0,0.0,0.0,0.0,0.0,0.0,0.0,0.0,0.0,0.0,0.0,0.0,0.0,0.0,0.0,0.0,0.0,0.0,0.0,0.0,0.0,0.0,0.0,0.0,0.0,0.0,0.0,0.0,0.0,0.0,0.0,0.0,0.0,0.0,0.0,0.0,0.0,0.0,0.0,0.0,0.0,0.0,0.0,0.0,0.0,0.0,0.0,0.0,0.0,0.0,0.0,0.0,0.0,0.0,0.0,0.0,0.0,0.0,0.0,0.0,0.0,0.0,0.0,0.0,0.0,0.0,0.0,0.0,0.0,0.0,0.0,-1.7528,-1.8277,-1.8925,-1.9383,-1.9424,-1.9424,-1.9424,-1.9424,-1.8874,-1.7522,0.0,0.0,0.0,0.0,0.0,0.0,0.0,0.0,0.0,0.0,0.0,0.0,0.0,0.0,0.0,0.0,0.0,0.0,0.0,0.0,0.0,0.0,0.0,0.0,0.0,0.0,0.0,0.0,0.0,0.0,0.0,0.0,0.0,0.0,0.0,0.0,0.0,0.0,0.0,0.0,0.0,0.0,0.0,0.0,0.0,0.0,0.0,0.0,0.0,0.0,0.0,0.0,0.0,0.0,0.0,0.0,0.0,0.0,0.0,0.0,0.0,0.0,0.0,0.0,0.0,0.0,0.0,0.0,0.0,0.0,0.0,0.0,0.0,0.0,0.0,0.0,0.0,0.0,0.0,0.0,0.0,0.0,0.0,0.0,0.0,0.0,0.0,0.0,0.0,0.0,0.0,0.0,0.0,0.0,0.0,0.0,0.0,0.0,0.0,0.0,0.0,0.0,-1.7582,-1.8624,-1.9424,-1.9424,-1.9424,-1.9424,-1.9424,-1.9424,-1.8787,0.0,0.0,0.0,0.0,0.0,0.0,0.0,0.0,0.0,0.0,0.0,0.0,0.0,0.0,0.0,0.0,0.0,0.0,0.0,0.0,0.0,0.0,0.0,0.0,0.0,0.0,0.0,0.0,0.0,0.0,0.0,0.0,0.0,0.0,0.0,0.0,0.0,0.0,0.0,0.0,0.0,0.0,0.0,0.0,0.0,0.0,0.0,0.0,0.0,0.0,0.0,0.0,0.0,0.0,0.0,0.0,0.0,0.0,0.0,0.0,0.0,0.0,0.0,0.0,0.0,0.0,0.0,0.0,0.0,0.0,0.0,0.0,0.0,0.0,0.0,0.0,0.0,0.0,0.0,0.0,0.0,0.0,0.0,0.0,0.0,0.0,0.0,0.0,0.0,0.0,0.0,0.0,0.0,0.0,0.0,0.0,0.0,0.0,0.0,0.0,0.0,0.0,0.0,-1.7582,-1.8624,-1.9424,-1.9424,-1.9424,-1.9424,-1.9424,-1.9424,-1.8787,-1.7293,0.0,0.0,0.0,0.0,0.0,0.0,0.0,0.0,0.0,0.0,0.0,0.0,0.0,0.0,0.0,0.0,0.0,0.0,0.0,0.0,0.0,0.0,0.0,0.0,0.0,0.0,0.0,0.0,0.0,0.0,0.0,0.0,0.0,0.0,0.0,0.0,0.0,0.0,0.0,0.0,0.0,0.0,0.0,0.0,0.0,0.0,0.0,0.0,0.0,0.0,0.0,0.0,0.0,0.0,0.0,0.0,0.0,0.0,0.0,0.0,0.0,0.0,0.0,0.0,0.0,0.0,0.0,0.0,0.0,0.0,0.0,0.0,0.0,0.0,0.0,0.0,0.0,0.0,0.0,0.0,0.0,0.0,0.0,0.0,0.0,0.0,0.0,0.0,0.0,0.0,0.0,0.0,0.0,0.0,0.0,0.0,0.0,0.0,0.0,0.0,0.0,0.0,-1.7582,-1.8624,-1.9424,-1.9424,-1.9424,-1.9424,-1.9424,-1.9424,-1.8838,-1.7589,0.0,0.0,0.0,0.0,0.0,0.0,0.0,0.0,0.0,0.0,0.0,0.0,0.0,0.0,0.0,0.0,0.0,0.0,0.0,0.0,0.0,0.0,0.0,0.0,0.0,0.0,0.0,0.0,0.0,0.0,0.0,0.0,0.0,0.0,0.0,0.0,0.0,0.0,0.0,0.0,0.0,0.0,0.0,0.0,0.0,0.0,0.0,0.0,0.0,0.0,0.0,0.0,0.0,0.0,0.0,0.0,0.0,0.0,0.0,0.0,0.0,0.0,0.0,0.0,0.0,0.0,0.0,0.0,0.0,0.0,0.0,0.0,0.0,0.0,0.0,0.0,0.0,0.0,0.0,0.0,0.0,0.0,0.0,0.0,0.0,0.0,0.0,0.0,0.0,0.0,0.0,0.0,0.0,0.0,0.0,0.0,0.0,0.0,0.0,0.0,0.0,0.0,-1.7549,-1.8666,-1.9417,-1.939,-1.9352,-1.9424,-1.9424,-1.9424,-1.8991,-1.8049,0.0,0.0,0.0,0.0,0.0,0.0,0.0,0.0,0.0,0.0,0.0,0.0,0.0,0.0,0.0,0.0,0.0,0.0,0.0,0.0,0.0,0.0,0.0,0.0,0.0,0.0,0.0,0.0,0.0,0.0,0.0,0.0,0.0,0.0,0.0,0.0,0.0,0.0,0.0,0.0,0.0,0.0,0.0,0.0,0.0,0.0,0.0,0.0,0.0,0.0,0.0,0.0,0.0,0.0,0.0,0.0,0.0,0.0,0.0,0.0,-0.912,-0.8988,0.0,0.0,0.0,0.0,0.0,0.0,0.0,0.0,0.0,0.0,0.0,0.0,0.0,0.0,0.0,0.0,0.0,0.0,0.0,0.0,0.0,0.0,0.0,0.0,0.0,0.0,0.0,0.0,0.0,0.0,0.0,0.0,0.0,0.0,0.0,0.0,0.0,0.0,0.0,0.0,-1.7326,-1.8539,-1.9279,-1.9038,-1.9225,-1.9424,-1.9424,-1.9424,-1.8991,-1.8049,-1.809,0.0,0.0,0.0,0.0,0.0,0.0,0.0,0.0,0.0,0.0,0.0,0.0,0.0,0.0,0.0,0.0,0.0,0.0,0.0,0.0,0.0,0.0,0.0,0.0,0.0,0.0,0.0,0.0,0.0,0.0,0.0,0.0,0.0,0.0,0.0,0.0,0.0,0.0,0.0,0.0,0.0,0.0,0.0,0.0,0.0,0.0,0.0,0.0,0.0,0.0,0.0,0.0,0.0,0.0,0.0,0.0,0.0,0.0,0.0,-0.9239,-0.9167,0.0,0.0,0.0,0.0,0.0,0.0,0.0,0.0,0.0,0.0,0.0,0.0,0.0,0.0,0.0,0.0,0.0,0.0,0.0,0.0,0.0,0.0,0.0,0.0,0.0,0.0,0.0,0.0,0.0,0.0,0.0,0.0,0.0,0.0,0.0,0.0,0.0,0.0,0.0,0.0,-1.7239,-1.8506,-1.9252,-1.8958,-1.9192,-1.9424,-1.9424,-1.9424,-1.9172,-1.8711,-1.8283,0.0,0.0,0.0,0.0,0.0,0.0,0.0,0.0,0.0,0.0,0.0,0.0,0.0,0.0,0.0,0.0,0.0,0.0,0.0,0.0,0.0,0.0,0.0,0.0,0.0,0.0,0.0,0.0,0.0,0.0,0.0,0.0,0.0,0.0,0.0,0.0,0.0,0.0,0.0,0.0,0.0,0.0,0.0,0.0,0.0,0.0,0.0,0.0,0.0,0.0,0.0,0.0,0.0,-0.9317,-0.9337,-0.9459,-0.9459,-0.9527,-0.9632,-0.9381,-0.9398,-0.9591,-0.9337,0.0,0.0,0.0,0.0,0.0,0.0,0.0,0.0,0.0,0.0,0.0,0.0,0.0,0.0,0.0,0.0,0.0,0.0,0.0,0.0,0.0,0.0,-1.8597,-1.7856,-1.8357,-1.8931,-1.8335,0.0,0.0,0.0,0.0,0.0,0.0,0.0,0.0,0.0,0.0,0.0,-1.738,-1.847,-1.9178,-1.8878,-1.9072,-1.9212,-1.9212,-1.9212,-1.9212,-1.9212,-1.829,-1.7756,0.0,0.0,0.0,0.0,0.0,0.0,0.0,0.0,0.0,0.0,0.0,0.0,0.0,0.0,0.0,0.0,0.0,0.0,0.0,0.0,0.0,0.0,0.0,0.0,0.0,0.0,0.0,0.0,0.0,0.0,0.0,0.0,-0.8404,-0.8801,0.0,0.0,0.0,0.0,0.0,0.0,0.0,0.0,0.0,0.0,0.0,0.0,0.0,-0.9361,-0.9381,-0.9493,-0.9557,-0.9581,-0.9683,-0.9744,-0.9764,-0.9764,-0.9774,-0.9791,-0.9751,0.0,-0.9605,-0.9564,0.0,0.0,0.0,0.0,0.0,0.0,0.0,0.0,0.0,0.0,0.0,0.0,0.0,0.0,0.0,0.0,0.0,0.0,0.0,0.0,0.0,0.0,-1.9913,-1.9539,-1.9573,-1.9593,-1.9265,-1.8343,-1.7562,-1.7482,-1.7468,-1.7281,0.0,0.0,0.0,0.0,0.0,0.0,-1.7849,-1.8544,-1.8871,-1.8577,-1.8584,-1.8611,-1.8611,-1.8611,-1.8611,-1.8611,-1.8457,-1.7923,-1.6921,-1.6693,0.0,0.0,0.0,0.0,0.0,0.0,0.0,0.0,0.0,0.0,0.0,0.0,0.0,0.0,0.0,0.0,0.0,0.0,0.0,0.0,0.0,0.0,0.0,0.0,0.0,0.0,0.0,0.0,0.0,-0.8411,-0.8443,-0.7849,-0.71,-0.6298,0.0,0.0,0.0,0.0,0.0,0.0,0.0,0.0,0.0,-0.9503,-0.951,-0.9547,-0.9629,-0.9693,-0.9727,-0.973,-0.9791,-0.9822,-0.9822,-0.9822,-0.9822,-0.9822,-0.9822,-0.9785,-0.9724,-0.9642,-0.953,-0.9401,0.0,0.0,0.0,0.0,-0.9039,-0.9044,-1.0872,-1.1442,-1.144,-1.1799,0.0,0.0,0.0,0.0,0.0,0.0,0.0,-1.6738,-1.8468,-1.9205,-1.9506,-1.9546,-1.9559,-1.9519,-1.9457,-1.8958,-1.849,-1.8156,-1.7956,-1.7602,-1.6834,-1.6981,0.0,0.0,0.0,-1.8083,-1.7995,-1.8704,-1.9058,-1.8764,-1.8885,-1.8918,-1.8744,-1.8731,-1.8664,-1.8504,-1.849,-1.8257,-1.7729,-1.7061,-1.648,0.0,0.0,0.0,0.0,0.0,0.0,0.0,0.0,0.0,0.0,0.0,0.0,0.0,0.0,0.0,0.0,0.0,0.0,0.0,0.0,0.0,0.0,0.0,0.0,0.0,0.0,0.0,0.0,-0.8828,-0.8496,-0.7113,-0.6947,-0.6255,0.0,0.0,0.0,0.0,0.0,0.0,-0.878,-0.8786,-0.9091,-0.9659,-0.9663,-0.9713,-0.9819,-0.9822,-0.9822,-0.9822,-0.9822,-0.9822,-0.9822,-0.9822,-0.9822,-0.9822,-0.9822,-0.9822,-0.9812,-0.9707,-0.9642,-0.9598,-0.9486,-0.9347,-0.9286,-0.9384,-0.93,-0.9331,-1.086,-1.1366,-1.1336,-1.1141,-1.1721,-1.2222,-1.0894,0.0,0.0,0.0,0.0,-1.6187,-1.8433,-1.9038,-1.9092,-1.9319,-1.9424,-1.9424,-1.9424,-1.9305,-1.9145,-1.8784,-1.8537,-1.8123,-1.7301,-1.7528,0.0,-1.7228,-1.7916,-1.8464,-1.8397,-1.8891,-1.9165,-1.8945,-1.8991,-1.8938,-1.8661,-1.8641,-1.8577,-1.8277,-1.8404,-1.8424,-1.8263,-1.7482,-1.7048,-1.7085,0.0,0.0,0.0,0.0,0.0,0.0,0.0,0.0,0.0,0.0,0.0,0.0,0.0,0.0,0.0,0.0,0.0,0.0,0.0,0.0,0.0,0.0,0.0,0.0,0.0,0.0,0.0,0.0,0.0,-0.7235,-0.7071,0.0,0.0,0.0,0.0,-0.4692,-0.3425,-0.3893,-0.7065,-0.7192,-0.8028,-0.9744,-0.9812,-0.9815,-0.9822,-0.9822,-0.9822,-0.9822,-0.9822,-0.9822,-0.9822,-0.9822,-0.9822,-0.9822,-0.9822,-0.9822,-0.9822,-0.9815,-0.973,-0.9608,-0.9602,-0.9503,-0.9388,-0.954,-0.9588,-0.9598,-0.9814,-0.9961,-1.0074,-1.0067,-0.9837,-0.9658,-0.9806,-0.9497,0.0,0.0,-1.4472,-1.523,-1.8494,-1.9345,-1.941,-1.9424,-1.9424,-1.9424,-1.9424,-1.9145,-1.9018,-1.9279,-1.9312,-1.9105,-1.8504,0.0,-1.8437,-1.8404,-1.845,-1.8691,-1.9232,-1.9092,-1.8938,-1.8925,-1.8382,-1.8049,-1.8035,-1.8035,-1.7902,-1.7649,-1.817,-1.823,-1.7649,-1.7856,-1.7529,-1.6747,-1.6667,0.0,0.0,0.0,0.0,0.0,0.0,0.0,0.0,0.0,0.0,0.0,0.0,0.0,0.0,0.0,0.0,0.0,0.0,0.0,0.0,0.0,0.0,0.0,0.0,0.0,0.0,0.0,0.0,-0.7447,-0.7267,0.0,-0.3613,-0.3777,-0.382,-0.3308,-0.3717,-0.4425,-0.5604,-0.5667,-0.6472,-0.8218,-0.8282,-0.8772,-0.9761,-0.9822,-0.9822,-0.9822,-0.9822,-0.9822,-0.9822,-0.9822,-0.9822,-0.9822,-0.9822,-0.9822,-0.9822,-0.9822,-0.9791,-0.9744,-0.9744,-0.971,-0.9673,-0.9727,-0.9744,-0.9751,-0.9802,-0.9856,-0.9934,-1.0134,-1.0022,-0.9849,-1.0053,-0.9832,-0.9946,-1.2294,-1.2999,-1.3492,-1.5709,-1.6326,-1.6562,-1.763,-1.7864,-1.8163,-1.9185,-1.9285,-1.9239,-1.9403,-1.9212,-1.8958,-1.8557,-1.8804,-1.8925,-1.8551,-1.8811,-1.9189,-1.9339,-1.9279,-1.9205,-1.9205,-1.9025,-1.8818,-1.8575,-1.8555,-1.8484,-1.8183,-1.837,-1.839,-1.8176,-1.8035,-1.7935,-1.7856,-1.7468,-1.67,0.0,0.0,0.0,0.0,0.0,0.0,0.0,0.0,0.0,0.0,0.0,0.0,0.0,0.0,0.0,0.0,0.0,0.0,0.0,0.0,0.0,0.0,0.0,0.0,0.0,-0.9449,-0.9034,-0.7573,-0.742,-0.6332,-0.3557,-0.3781,-0.3653,-0.2605,-0.2937,-0.3506,-0.4059,-0.412,-0.4855,-0.6505,-0.7116,-0.7914,-0.8958,-0.9511,-0.9822,-0.9822,-0.9822,-0.9822,-0.9822,-0.9822,-0.9822,-0.9822,-0.9822,-0.9822,-0.9822,-0.9822,-0.9822,-0.9822,-0.9822,-0.9822,-0.9822,-0.9822,-0.9822,-0.9836,-0.9941,-0.9941,-0.9958,-1.0314,-1.0293,-1.0148,-1.0249,-1.01,-1.0189,-1.1756,-1.2213,-1.2573,-1.4183,-1.4604,-1.4896,-1.5961,-1.6197,-1.6497,-1.7578,-1.7753,-1.7929,-1.8467,-1.8846,-1.9011,-1.8818,-1.9169,-1.9223,-1.8577,-1.8991,-1.935,-1.9098,-1.9245,-1.9424,-1.9424,-1.9279,-1.9138,-1.8945,-1.8681,-1.8591,-1.8497,-1.849,-1.849,-1.849,-1.8103,-1.7936,-1.8036,-1.7695,-1.6954,-1.5985,0.0,0.0,0.0,0.0,0.0,0.0,0.0,0.0,0.0,0.0,0.0,0.0,0.0,0.0,0.0,0.0,0.0,0.0,0.0,0.0,0.0,0.0,0.0,-0.9408,-0.952,-0.9073,-0.7568,-0.742,-0.671,-0.4994,-0.3415,-0.2462,-0.2401,-0.0925,-0.0678,-0.234,-0.2401,-0.3137,-0.4794,-0.6383,-0.7299,-0.7421,-0.8958,-0.9758,-0.9822,-0.9822,-0.9822,-0.9822,-0.9822,-0.9822,-0.9822,-0.9822,-0.9822,-0.9822,-0.9822,-0.9822,-0.9822,-0.9822,-0.9822,-0.9822,-0.9822,-0.9822,-0.9863,-1.0161,-1.0175,-1.0065,-1.0565,-1.0517,-1.0287,-1.0283,-1.0171,-1.0325,-1.1728,-1.2157,-1.2453,-1.4068,-1.4426,-1.448,-1.4485,-1.4545,-1.4545,-1.4604,-1.4604,-1.5079,-1.6609,-1.8169,-1.9307,-1.9366,-1.9424,-1.9172,-1.8604,-1.9005,0.0,-1.8591,-1.9018,-1.9417,-1.9339,-1.9085,-1.8911,-1.8911,-1.8328,-1.8135,-1.8497,-1.8517,-1.8517,-1.8517,-1.7943,-1.7488,-1.7246,-1.7226,-1.7213,-1.7213,0.0,0.0,0.0,0.0,0.0,0.0,0.0,0.0,0.0,0.0,0.0,0.0,0.0,0.0,0.0,0.0,0.0,0.0,0.0,0.0,0.0,-0.9384,-0.9595,-0.9554,-0.9673,-0.915,-0.7562,-0.7403,-0.6309,-0.3424,-0.2763,-0.1971,-0.0802,-0.0247,-0.0185,-0.0679,-0.0679,-0.1417,-0.3077,-0.3628,-0.4974,-0.736,-0.785,-0.865,-0.9822,-0.9822,-0.9822,-0.9822,-0.9822,-0.9822,-0.9822,-0.9822,-0.9822,-0.9822,-0.9822,-0.9822,-0.9822,-0.9822,-0.9822,-0.9822,-0.9822,-0.9822,-0.9832,-0.9917,-1.0066,-1.0239,-1.0361,-1.0415,-1.0415,-1.0314,-1.0171,-1.0077,-1.0343,-1.0482,-1.0539,-1.102,-1.114,-1.1438,-1.2573,-1.2873,-1.3172,-1.4361,-1.4604,-1.4723,-1.5192,-1.5612,-1.668,-1.901,-1.9424,-1.9312,-1.9152,-1.9265,-1.937,-1.9145,-1.933,-1.9205,-1.8778,-1.8657,-1.8611,-1.8611,-1.8464,-1.8584,-1.9092,-1.9125,-1.9125,-1.9125,-1.8758,-1.8417,-1.813,-1.7689,-1.7514,0.0,0.0,0.0,0.0,0.0,0.0,0.0,0.0,0.0,0.0,0.0,0.0,0.0,0.0,0.0,0.0,0.0,0.0,0.0,0.0,0.0,0.0,-0.9544,-0.9696,-0.9696,-0.9771,-0.9204,-0.7604,-0.6811,-0.5341,-0.277,-0.1848,-0.1048,-0.0062,0.0,0.0,0.0,0.0,-0.0432,-0.1417,-0.2155,-0.3751,-0.6322,-0.7055,-0.8218,-0.9822,-0.9822,-0.9822,-0.9822,-0.9822,-0.9822,-0.9822,-0.9822,-0.9822,-0.9822,-0.9822,-0.9822,-0.9822,0.0,0.0,0.0,0.0,-0.9822,-0.9839,-0.9968,-1.0086,-1.0215,-1.0402,-1.0477,-1.0477,-1.0392,-1.0263,-1.0114,-0.9961,-0.9869,-0.9822,-0.9822,-0.9822,-1.0061,-1.0959,-1.1197,-1.1438,-1.2393,-1.2573,-1.2813,-1.3467,-1.3586,0.0,-1.6979,-1.7396,-1.7738,-1.886,-1.8673,-1.8558,-1.8968,-1.9212,-1.9296,-1.8898,-1.8858,-1.8858,-1.8858,-1.8631,0.0,0.0,0.0,-1.8938,-1.8811,-1.8644,0.0,0.0,0.0,-1.7956,-1.833,-1.7869,0.0,0.0,-1.7655,-1.7575,0.0,0.0,0.0,0.0,0.0,0.0,0.0,0.0,0.0,0.0,0.0,0.0,0.0,0.0,0.0,0.0,-0.973,-0.9822,-0.9822,-0.9636,-0.8958,-0.7299,-0.5649,-0.3997,-0.2401,-0.0863,0.0,0.0,0.0,0.0,0.0,0.0,0.0,0.0,0.0,-0.3016,-0.461,-0.6261,-0.7914,-0.9511,-0.9697,-0.9822,-0.9822,-0.9822,-0.9822,-0.9822,-0.9822,-0.9822,-0.9822,-0.9822,-0.9822,-0.9822,-0.9822,-0.9822,-0.9822,-0.9822,-0.9832,-0.9886,-1.0161,0.0,0.0,-1.0565,-1.0616,-1.0514,-1.0497,-1.0392,-1.0249,-1.0031,-0.9876,-0.9822,-0.9822,-0.9822,-0.9822,-0.9822,-0.9822,-0.9822,-0.9822,-0.9822,-1.024,-1.1679,-1.1916,-1.2453,-1.4068,-1.4485,-1.5413,-1.7691,-1.744,-1.7338,-1.8196,-1.8981,-1.9339,-1.9336,-1.933,0.0,-1.933,-1.8791,-1.8744,-1.939,-1.8878,-1.8464,-1.8176,-1.8183,-1.8142,-1.8142,-1.8142,-1.8584,-1.9424,-1.9424,-1.9424,-1.939,-1.7742,-1.7435,0.0,0.0,0.0,0.0,0.0,0.0,0.0,0.0,0.0,0.0,0.0,0.0,0.0,0.0,0.0,-0.9407,-0.973,-0.9822,-0.9822,-0.8711,-0.724,-0.559,-0.3935,-0.234,-0.0617,-0.0185,0.0,0.0,0.0,0.0,0.0,0.0,0.0,0.0,-0.0308,-0.1295,-0.2954,-0.4548,-0.62,-0.785,-0.9204,0.0,-0.9822,-0.9822,-0.9822,-0.9822,-0.9822,-0.9822,-0.9822,-0.9822,-0.9822,-0.9822,-0.9822,-0.9822,-0.9822,-0.9822,-0.9897,-0.9953,-1.0011,-1.0232,-1.0422,-1.0507,-1.0599,-1.0653,-1.0527,-1.0392,0.0,-1.0031,-0.9876,-0.9822,-0.9822,-0.9822,-0.9822,-0.9822,-0.9822,-0.9822,-0.9822,-0.9822,-0.9879,-1.0179,-1.024,-1.0781,-1.2393,-1.3765,-1.4752,-1.5253,-1.6317,-1.7049,-1.7246,-1.8519,-1.9185,-1.8711,-1.8657,-1.8657,-1.8657,-1.8557,-1.8744,-1.939,-1.9259,-1.9229,-1.9105,-1.9112,-1.9112,-1.9112,-1.9112,-1.9199,-1.9424,-1.9424,-1.9424,-1.9417,-1.9011,-1.8945,0.0,0.0,0.0,0.0,0.0,0.0,0.0,0.0,0.0,0.0,0.0,-0.8394,0.0,0.0,-0.8841,-0.958,-0.9774,-0.9822,-0.9822,-0.767,-0.5833,-0.4977,-0.3506,-0.1848,-0.0185,0.0,0.0,0.0,0.0,0.0,0.0,0.0,0.0,0.0,0.0,-0.0802,-0.2462,-0.412,-0.571,-0.7421,-0.9019,-0.9822,-0.9822,-0.9822,-0.9822,-0.9822,-0.9822,-0.9822,-0.9822,-0.9822,-0.9822,-0.9822,-0.9822,-0.9822,-0.9829,-0.9845,-0.9923,-1.0007,-1.0219,-1.0368,-1.0504,-1.0582,-1.066,-1.0707,-1.0629,-1.0504,-1.0354,-1.0209,-1.0053,-0.9856,-0.9839,-0.9822,-0.9822,-0.9822,-0.9822,-0.9822,-0.9822,-0.9822,-0.9822,-0.9822,-0.9822,-1.0061,-1.0838,-1.1675,-1.2753,-1.4366,-1.4594,-1.5182,-1.6791,-1.7683,-1.8416,-1.8901,-1.8931,-1.8931,-1.8931,-1.8931,-1.9052,-1.941,-1.9424,-1.9424,-1.9424,-1.9424,-1.9424,-1.9424,-1.9424,-1.9424,-1.9424,-1.9424,-1.9424,-1.9424,-1.9424,-1.9424,0.0,0.0,0.0,0.0,0.0,0.0,0.0,0.0,-0.8923,-0.9279,-0.9381,-0.9503,-0.9629,-0.9744,-0.9822,-0.9822,-0.9822,-0.9822,-0.9822,-0.6999,-0.4916,-0.4916,-0.3199,-0.1479,-0.0123,0.0,0.0,0.0,0.0,0.0,0.0,0.0,0.0,0.0,0.0,-0.0679,-0.1971,-0.3936,-0.559,-0.6933,-0.8897,-0.9822,-0.9822,-0.9822,-0.9822,-0.9822,-0.9822,-0.9822,-0.9822,-0.9822,-0.9822,-0.9822,-0.9822,-0.9822,-0.9839,-0.993,-1.0024,-1.0171,-1.0409,-1.051,-1.0558,-1.068,-1.0721,-1.0721,-1.0721,-1.0612,-1.0463,-1.0321,-1.0168,-0.9953,-0.9863,-0.9822,-0.9822,-0.9822,-0.9822,-0.9822,-0.9822,-0.9822,-0.9822,-0.9822,-0.9822,-0.9822,-0.9822,-0.9822,-1.066,-1.3287,-1.2813,-1.3168,-1.572,-1.6315,-1.7149,-1.8765,-1.8946,-1.9062,-1.9366,-1.9424,-1.9424,-1.9424,-1.9424,-1.9424,-1.9424,-1.9424,-1.9424,-1.9424,-1.9424,-1.9424,-1.9424,-1.9424,-1.9424,-1.9424,-1.9424,-1.9424,-0.8554,-0.8567,-0.8777,-0.9115,-0.9022,-0.8999,0.0,0.0,-0.9391,-0.9686,-0.9761,-0.9778,-0.9795,-0.9812,-0.9822,-0.9822,-0.9822,-0.9822,-0.9822,-0.6999,-0.4916,-0.4916,-0.2155,-0.0185,0.0,0.0,0.0,0.0,0.0,0.0,0.0,0.0,0.0,0.0,0.0,-0.0062,-0.0309,-0.3322,-0.4977,-0.5223,-0.8346,-0.9822,-0.9822,-0.9822,-0.9822,-0.9822,-0.9822,-0.9822,-0.9822,-0.9822,-0.9822,-0.9822,-0.9822,-0.9822,-0.9839,-0.993,-1.0215,-1.0446,-1.048,-1.0582,-1.0697,-1.0714,-1.0721,-1.0721,-1.0721,-1.0612,-1.0463,-1.0321,-1.0168,-0.9953,-0.9863,-0.9822,-0.9822,-0.9822,-0.9822,-0.9822,-0.9822,-0.9822,-0.9822,-0.9822,-0.9822,-0.9822,-0.9822,-0.9822,-0.994,-1.0301,-1.1378,-1.2333,-1.2689,-1.4004,-1.5488,-1.7085,-1.7267,-1.7864,-1.9307,-1.9424,-1.9424,-1.9424,-1.9424,-1.9424,-1.9424,-1.9424,-1.9424,-1.9424,-1.9424,-1.9424,-1.9424,-1.9424,-1.9424,-1.9424,-1.9424,-1.9424,-0.914,-0.912,-0.9171,0.0,-0.9435,-0.9415,-0.9744,-0.9663,-0.9574,-0.9778,-0.9822,-0.9822,-0.9822,-0.9822,-0.9822,0.0,-0.9822,-0.9822,-0.9822,-0.6999,-0.4916,-0.4916,-0.1971,0.0,0.0,0.0,0.0,0.0,0.0,0.0,0.0,0.0,0.0,0.0,0.0,0.0,0.0,-0.326,-0.4916,-0.4918,-0.8224,-0.9822,-0.9822,-0.9822,-0.9822,-0.9822,-0.9822,-0.9822,-0.9822,-0.9822,-0.9822,-0.9822,-0.9822,-0.993,-1.0097,-1.0161,-1.0263,-1.0392,-1.0565,-1.0666,-1.0721,-1.0721,-1.0721,-1.0721,-1.0721,-1.0677,-1.0595,-1.0446,-1.0297,-1.0148,-0.993,-0.9886,-0.9822,-0.9822,-0.9822,-0.9822,-0.9822,-0.9822,-0.9822,-0.9822,-0.9822,-0.9822,-0.9822,-0.9822,-0.9822,-0.9822,-1.0361,-1.1137,-1.2097,-1.2813,-1.4178,-1.6733,-1.7864,-1.8642,-1.9366,-1.9424,-1.9424,-1.9424,-1.9424,-1.9424,-1.9424,-1.9424,-1.9424,-1.9424,-1.9424,-1.9424,-1.9424,-1.9424,-1.9424,-1.9424,-1.9424,-1.9424,-0.9412,-0.9435,0.0,-0.97,-0.9717,-0.9693,-0.9798,-0.9741,-0.9696,-0.9798,-0.9822,-0.9822,-0.9822,-0.9822,-0.9822,-0.9822,-0.9822,-0.9822,-0.9822,-0.6999,-0.4916,-0.4916,-0.1971,0.0,0.0,0.0,0.0,0.0,0.0,0.0,0.0,0.0,0.0,0.0,0.0,-0.0247,-0.0679,-0.3506,-0.5161,-0.5649,-0.8468,-0.9822,-0.9822,-0.9822,-0.9822,-0.9822,-0.9866,-0.9883,-0.9886,-0.993,-0.9947,-0.9947,-0.9947,-1.0083,-1.0287,-1.0324,-1.0365,-1.0432,-1.0646,-1.0721,-1.0721,-1.0721,-1.0721,-1.0721,-1.0721,-1.0721,-1.0687,-1.0534,-1.0388,-1.0246,-1.0027,-0.9872,-0.9822,-0.9822,-0.9822,-0.9822,-0.9822,-0.9822,-0.9822,-0.9822,-0.9822,-0.9822,-0.9822,-0.9822,-0.9822,-0.9822,-0.9822,-1.024,-1.1378,-1.1916,-1.3287,-1.602,-1.7806,-1.8946,-1.9366,-1.9424,-1.9424,-1.9424,-1.9424,-1.9424,-1.9424,-1.9424,-1.9424,-1.9424,-1.9424,-1.9424,-1.9424,-1.9424,-1.9424,-1.9424,-1.9424,-1.9424,-0.9183,-0.933,-0.9418,-0.9578,-0.9717,-0.9815,-0.9819,-0.9819,-0.9815,-0.9819,-0.9822,-0.9822,-0.9822,-0.9822,-0.9822,-0.9822,-0.9822,-0.9822,-0.9822,-0.6999,-0.4916,-0.4916,-0.1971,0.0,0.0,0.0,0.0,0.0,0.0,0.0,0.0,0.0,0.0,0.0,0.0,-0.0802,-0.2401,-0.4059,-0.571,-0.736,-0.9019,-0.9822,-0.9822,-0.9822,-0.9822,-0.9829,-0.9916,-0.998,-0.9994,-1.0205,-1.0266,-1.0266,-1.0266,-1.0273,-1.0297,-1.0436,-1.0578,-1.0707,-1.0717,-1.0721,-1.0721,-1.0721,-1.0721,-1.0721,-1.0721,-1.0721,-1.0687,-1.0534,-1.0388,-1.0246,-1.0027,-0.9872,-0.9822,-0.9822,-0.9822,-0.9822,-0.9822,-0.9822,-0.9822,-0.9822,-0.9822,-0.9822,-0.9822,-0.9822,-0.9822,-0.9822,-0.9822,-0.9822,-0.9879,-1.1257,-1.2813,-1.448,-1.6138,-1.7683,-1.9243,-1.9424,-1.9424,-1.9424,-1.9424,-1.9424,-1.9424,-1.9424,-1.9424,-1.9424,-1.9424,-1.9424,-1.9424,-1.9424,-1.9424,-1.9424,-1.9424,-1.9424,-0.9262,-0.9415,-0.9568,-0.9713,-0.9785,-0.9822,-0.9822,-0.9822,-0.9822,-0.9822,-0.9822,-0.9822,-0.9822,-0.9822,-0.9822,-0.9822,-0.9822,-0.9822,-0.9822,-0.7914,-0.6139,-0.5039,-0.2954,-0.1233,-0.0123,0.0,0.0,0.0,0.0,0.0,0.0,0.0,0.0,0.0,-0.111,-0.191,-0.2524,-0.5219,-0.6872,-0.7421,-0.9019,-0.9822,-0.9825,-0.9866,-0.9909,-0.992,-1.0134,-1.0202,-1.0209,-1.0259,-1.028,-1.028,-1.028,-1.0337,-1.0426,-1.0473,-1.0588,-1.0721,-1.0721,-1.0721,-1.0721,-1.0721,-1.0721,-1.0721,-1.0721,-1.0721,-1.0711,-1.066,-1.0534,-1.0409,-1.0354,-1.0158,-0.9909,-0.9909,-0.9893,-0.9822,-0.9822,-0.9822,-0.9822,-0.9822,-0.9822,-0.9822,-0.9822,-0.9822,-0.9822,-0.9822,-0.9822,-0.9822,-0.9822,-1.1197,-1.2393,-1.2933,-1.448,-1.5612,-1.6149,-1.7214,-1.7806,-1.7806,-1.8823,-1.9424,-1.9424,-1.9424,-1.9424,-1.9424,-1.9424,-1.9424,-1.9424,-1.9424,-1.9424,-1.9424,-1.9424,-1.9424,-0.9405,-0.9534,-0.9642,-0.9785,-0.9822,-0.9836,-0.989,-0.99,-0.9917,-0.9971,-0.9941,-0.99,-0.99,-0.9859,-0.9839,-0.9893,-0.9856,-0.9839,-0.9893,-0.8433,-0.6994,-0.5894,-0.3873,-0.2094,0.0,0.0,0.0,0.0,0.0,0.0,0.0,0.0,-0.0247,-0.0863,-0.1909,-0.3076,-0.424,-0.6416,-0.7814,-0.842,-0.9484,-0.9985,-0.9988,-1.0086,-1.0131,-1.0141,-1.029,-1.0354,-1.0361,-1.0415,-1.0436,-1.0436,-1.0436,-1.0493,-1.0571,-1.0571,-1.0636,-1.0721,-1.0721,-1.0721,-1.0721,-1.0721,-1.0721,-1.0721,-1.0721,-1.0721,-1.0721,-1.0721,-1.0609,-1.049,-1.049,-1.0273,-0.9987,-0.9987,-0.9869,-0.9822,-0.9822,-0.9822,-0.9822,-0.9822,-0.9822,-0.9822,-0.9822,-0.9822,-0.9822,-0.9822,-0.9822,-0.9822,-0.9822,-1.0717,-1.1559,-1.2157,-1.3112,-1.4009,-1.4545,-1.6079,-1.7026,-1.7026,-1.8525,-1.9424,-1.9424,-1.9424,-1.9424,-1.9424,-1.9424,-1.9424,-1.9424,-1.9424,-1.9424,-1.9424,-1.9424,-1.9424,-0.953,-0.9615,-0.9656,-0.9795,-0.9832,-0.9873,-0.9963,-1.0,-1.01,-1.0239,-1.0151,-0.9984,-0.9977,-0.9859,-0.9869,-0.9953,-0.9856,-0.9873,-0.9957,-0.8544,-0.7482,0.0,0.0,0.0,0.0,0.0,0.0,0.0,0.0,0.0,0.0,0.0,-0.074,-0.2462,-0.2585,-0.418,-0.7368,-0.7606,-0.8609,-1.028,-1.028,-1.028,-1.028,-1.0287,-1.029,-1.03,-1.0443,-1.0504,-1.0514,-1.066,-1.0721,-1.0721,-1.0721,-1.0721,-1.0721,-1.0721,-1.0721,-1.0721,-1.0721,-1.0721,-1.0721,-1.0721,-1.0721,-1.0721,-1.0721,-1.0721,-1.0721,-1.0721,-1.0616,-1.0504,-1.0504,-1.0283,-1.0,-1.0,-0.9876,-0.9822,-0.9822,-0.9822,-0.9822,-0.9822,-0.9822,-0.9822,-0.9822,-0.9822,-0.9822,-0.9822,-0.9822,-0.9822,-0.9822,-0.9822,-1.0358,-1.1916,-1.2097,-1.2693,-1.4242,-1.5843,-1.6727,-1.6727,-1.8344,-1.9307,-1.9307,-1.9366,-1.9424,-1.9424,-1.9424,-1.9424,-1.9424,-1.9424,-1.9424,-1.9424,-1.9424,-1.9424,-0.9588,-0.9686,-0.9802,-0.9893,-0.993,-0.997,-1.0185,-1.0222,-1.0202,-1.0124,-1.0014,-0.9953,-0.9839,-0.9846,-0.9832,-0.9873,-0.9846,0.0,-0.9873,-0.9473,0.0,-0.7545,0.0,-0.3813,-0.2585,-0.0986,0.0,0.0,0.0,0.0,0.0,0.0,-0.074,-0.2462,-0.369,-0.5311,-0.7549,-0.8935,-0.9856,-1.028,-1.028,-1.028,-1.0283,-1.0388,-1.0436,-1.0446,-1.0599,-1.0663,-1.0666,-1.0704,-1.0721,-1.0721,-1.0721,-1.0721,-1.0721,-1.0721,-1.0721,-1.0721,-1.0721,-1.0721,-1.0721,-1.0721,-1.0721,-1.0721,-1.0721,-1.0721,-1.0721,-1.0721,-1.0694,-1.0663,-1.0663,-1.0443,-1.0222,-1.0222,-1.0015,-0.9822,-0.9822,-0.9822,-0.9822,-0.9822,-0.9822,-0.9822,-0.9822,-0.9822,-0.9822,-0.9822,-0.9822,-0.9822,-0.9822,-0.9822,-0.994,-1.0361,-1.0422,-1.06,-1.102,-1.2509,-1.3402,-1.3402,-1.6074,-1.7624,-1.7624,-1.8765,-1.9424,-1.9424,-1.9424,-1.9424,-1.9424,-1.9424,-1.9424,-1.9424,-1.9424,-1.9424,-0.9686,-0.9808,-0.9879,-0.9967,-1.01,-1.0175,-1.0259,-1.028,-1.0256,-1.0168,-1.0034,-0.996,-0.9876,-0.9859,-0.9944,0.0,0.0,0.0,-1.0012,-0.9907,-0.9451,0.0,-0.6324,0.0,-0.3629,-0.1417,0.0,0.0,0.0,0.0,0.0,-0.0678,-0.1848,-0.3506,-0.5193,-0.6952,-0.8828,-0.9877,-1.0409,-1.0473,-1.0473,-1.0473,-1.0477,-1.0555,-1.0592,-1.0599,-1.0683,-1.0721,-1.0721,-1.0721,-1.0721,-1.0721,-1.0721,-1.0721,-1.0721,-1.0721,-1.0721,-1.0721,-1.0721,-1.0721,-1.0721,-1.0721,-1.0721,-1.0721,-1.0721,-1.0721,-1.0721,-1.0721,-1.0721,-1.0721,-1.0721,-1.05,-1.028,-1.028,-1.0046,-0.9822,-0.9822,-0.9822,-0.9822,-0.9822,-0.9822,-0.9822,-0.9822,-0.9822,-0.9822,-0.9822,-0.9822,-0.9822,-0.9822,-0.9822,-0.9822,-0.9822,-0.9822,-0.9822,-0.9822,-1.1257,-1.2213,-1.2213,-1.4535,-1.5961,-1.5961,-1.6797,-1.763,-1.8344,-1.8344,-1.8706,-1.9424,-1.9424,-1.9424,-1.9424,-1.9424,-1.9424,-0.9788,-0.9872,-0.9994,-1.0011,-1.0195,-1.031,-1.031,-1.031,-1.0297,-1.0256,0.0,-0.998,-0.996,-0.9957,-1.007,-1.0226,0.0,-1.0034,-1.0232,-1.0019,-0.9842,-0.9822,-0.7121,-0.5223,-0.5223,-0.2462,-0.0679,-0.0679,-0.068,-0.0556,-0.037,-0.191,-0.357,-0.5237,-0.7012,-0.8819,-1.049,-1.051,-1.0588,-1.0721,-1.0721,-1.0721,-1.0721,-1.0721,-1.0721,-1.0721,-1.0721,-1.0721,-1.0721,-1.0721,-1.0721,-1.0721,-1.0721,-1.0721,-1.0721,-1.0721,-1.0721,-1.0721,-1.0721,-1.0721,-1.0721,-1.0721,-1.0721,-1.0721,-1.0721,-1.0721,-1.0721,-1.0721,-1.0721,-1.0721,-1.0721,-1.0517,-1.0304,-1.0287,-1.0063,-0.9846,-0.9825,-0.9822,-0.9822,-0.9822,-0.9822,-0.9822,-0.9822,-0.9822,-0.9822,-0.9822,-0.9822,-0.9822,-0.9822,-0.9822,-0.9822,-0.9822,-0.9822,-0.9822,-0.9822,-1.108,-1.1856,-1.1856,-1.3407,-1.4307,-1.4307,-1.4485,-1.5252,-1.6668,-1.6668,-1.7449,-1.9068,-1.9068,-1.9185,-1.9424,-1.9424,-1.9424,-0.9815,-0.9872,-1.0017,-1.0209,-1.0348,-1.0456,-1.0456,-1.0456,0.0,0.0,-1.0007,-0.995,-0.9883,-0.9863,-0.991,-1.0,-1.0004,-0.9997,-1.0024,-0.998,-0.9903,0.0,-0.8099,-0.6994,-0.6994,-0.5221,0.0,0.0,-0.4166,-0.3612,-0.2157,-0.3629,-0.5313,-0.7063,-0.8985,-1.0177,-1.049,-1.0616,-1.0694,-1.0721,-1.0721,-1.0721,-1.0721,-1.0721,-1.0721,-1.0721,-1.0721,-1.0721,-1.0721,-1.0721,-1.0721,-1.0721,-1.0721,-1.0721,-1.0721,-1.0721,-1.0721,-1.0721,-1.0721,-1.0721,-1.0721,-1.0721,-1.0721,-1.0721,-1.0721,-1.0721,-1.0721,-1.0721,-1.0721,-1.0721,-1.0721,-1.0588,-1.0426,-1.031,-1.0141,-0.9913,-0.9849,-0.9822,-0.9822,-0.9822,-0.9822,-0.9822,-0.9822,-0.9822,-0.9822,-0.9822,-0.9822,-0.9822,-0.9822,-0.9822,-0.9822,-0.9822,-0.9822,-0.9822,-0.9822,-1.0061,-1.024,-1.024,-1.1736,-1.2633,-1.2633,-1.3889,-1.4723,-1.5015,-1.502,-1.5784,-1.7443,-1.7443,-1.8104,-1.9424,-1.9424,-1.9424,-0.9856,-1.0053,-1.0205,-1.0354,-1.05,-1.0571,-1.0415,0.0,0.0,0.0,-0.9869,-0.9849,-0.9836,-0.9886,0.0,-0.9974,-1.0117,-1.0171,-1.0171,-1.01,0.0,-0.9886,-0.8445,-0.7444,-0.7506,-0.5923,-0.4948,-0.5152,-0.5904,-0.5632,-0.3919,-0.5447,-0.7212,-0.9051,-1.0025,-1.0531,-1.0609,-1.0683,-1.0721,-1.0721,-1.0721,-1.0721,-1.0721,-1.0721,-1.0721,-1.0721,-1.0721,-1.0721,-1.0721,-1.0721,-1.0721,-1.0721,-1.0721,-1.0721,-1.0721,-1.0721,-1.0721,-1.0721,-1.0721,-1.0721,-1.0721,-1.0721,-1.0721,-1.0721,-1.0721,-1.0721,-1.0721,-1.0721,-1.0721,-1.0721,-1.0721,-1.0605,-1.0456,-1.0314,-1.01,-0.9849,-0.9836,-0.9822,-0.9822,-0.9822,-0.9822,-0.9822,-0.9822,-0.9822,-0.9822,-0.9822,-0.9822,-0.9822,-0.9822,-0.9822,-0.9822,-0.9822,-0.9822,-0.9822,-0.9822,-0.9822,-0.9822,-0.9822,-1.0539,-1.0959,-1.0959,-1.1675,-1.2513,-1.3352,-1.3347,-1.4123,-1.5725,-1.6609,-1.7384,-1.8163,-1.9004,-1.9424,-0.9947,-1.0164,-1.0314,-1.0456,-1.0609,-1.0643,-1.0348,-1.028,0.0,-0.9883,-0.9822,-0.9822,-0.9822,-0.9859,-0.995,-0.998,-1.0151,-1.0243,-1.0276,-1.0175,-1.0038,0.0,-0.8865,0.0,-0.819,-0.6869,0.0,-0.6409,-0.7577,-0.7655,-0.6309,-0.7612,-0.901,-1.0487,-1.0524,-1.0599,-1.0717,-1.0721,-1.0721,-1.0721,-1.0721,-1.0721,-1.0721,-1.0721,-1.0721,-1.0721,-1.0721,-1.0721,-1.0721,-1.0721,-1.0721,-1.0721,-1.0721,-1.0721,-1.0721,-1.0721,-1.0721,-1.0721,-1.0721,-1.0721,-1.0721,-1.0721,-1.0721,-1.0721,-1.0721,-1.0721,-1.0721,-1.0721,-1.0721,-1.0721,-1.0721,-1.0629,-1.0497,-1.0324,-1.007,-0.9863,-0.9829,-0.9822,-0.9822,-0.9822,-0.9822,-0.9822,-0.9822,-0.9822,-0.9822,-0.9822,-0.9822,-0.9822,-0.9822,-0.9822,-0.9822,-0.9822,-0.9822,-0.9822,-0.9822,-0.9822,-0.9822,-0.9822,-0.9822,-0.9822,-0.9822,-0.9822,-1.0418,-1.1675,-1.1675,-1.2453,-1.4068,-1.5725,-1.6668,-1.7026,-1.8648,-1.9424,-0.9947,-1.0164,-1.0314,-1.0456,-1.0609,-1.0643,-1.0348,0.0,-1.0195,-0.9883,-0.9822,-0.9822,-0.9822,-0.9832,-0.9886,-0.9963,-1.0,-1.012,-1.0259,-1.0266,-1.0259,-1.0259,0.0,0.0,-1.0062,-0.9926,-0.9799,-0.9828,-1.006,-1.0134,-0.9815,-1.0131,-1.0347,-1.049,-1.0626,-1.0707,-1.0721,-1.0721,-1.0721,-1.0721,-1.0721,-1.0721,-1.0721,-1.0721,-1.0721,-1.0721,-1.0721,-1.0721,-1.0721,-1.0721,-1.0721,-1.0721,-1.0721,-1.0721,-1.0721,-1.0721,-1.0721,-1.0721,-1.0721,-1.0721,-1.0721,-1.0721,-1.0721,-1.0721,-1.0721,-1.0721,-1.0721,-1.0721,-1.0721,-1.0721,-1.0721,-1.0711,-1.0629,-1.0348,-1.0151,-0.9926,-0.9849,-0.9822,-0.9822,-0.9822,-0.9822,-0.9822,-0.9822,-0.9822,-0.9822,-0.9822,-0.9822,-0.9822,-0.9822,-0.9822,-0.9822,-0.9822,-0.9822,-0.9822,-0.9822,-0.9822,-0.9822,-0.9822,-0.9822,-0.9822,-0.9822,-0.9822,-0.9879,-1.0001,-1.0001,-1.0838,-1.2393,-1.4063,-1.5548,-1.7026,-1.8648,-1.9424,-1.0249,-1.0361,-1.0443,-1.0592,-1.0605,-1.0531,-1.0327,0.0,-1.008,-0.9866,-0.9822,-0.9822,-0.9822,-0.9822,-0.9839,-0.99,-0.9926,-1.0007,-1.0134,-1.0141,-1.0175,-1.027,-1.0198,0.0,0.0,0.0,-1.0317,-1.0402,-1.0544,-1.0605,-1.0548,-1.0599,-1.0629,-1.0629,-1.0687,-1.0721,-1.0721,-1.0721,-1.0721,-1.0721,-1.0721,-1.0721,-1.0721,-1.0721,-1.0721,-1.0721,-1.0721,-1.0721,-1.0721,-1.0721,-1.0721,-1.0721,-1.0721,-1.0721,-1.0721,-1.0721,-1.0721,-1.0721,-1.0721,-1.0721,-1.0721,-1.0721,-1.0721,-1.0721,-1.0721,-1.0721,-1.0721,-1.0721,-1.0721,-1.0721,-1.0721,-1.0653,-1.0531,-1.0327,-1.0161,-0.9947,-0.9852,-0.9822,-0.9822,-0.9822,-0.9822,-0.9822,-0.9822,-0.9822,-0.9822,-0.9822,-0.9822,-0.9822,-0.9822,-0.9822,-0.9822,-0.9822,-0.9822,-0.9822,-0.9822,-0.9822,-0.9822,-0.9822,-0.9822,-0.9822,-0.9822,-0.9822,-0.9822,-0.9822,-0.9822,-1.0119,-1.0781,-1.2393,-1.4004,-1.5607,-1.7214,-1.846,-1.0422,-1.0524,-1.0585,-1.0694,-1.0605,-1.0456,0.0,0.0,-0.9943,-0.9852,-0.9822,-0.9822,-0.9822,-0.9822,-0.9822,-0.9822,-0.9852,-0.9936,-0.998,-0.9987,-1.0044,0.0,0.0,-1.0215,-1.0466,-1.0443,-1.0453,-1.0551,-1.066,-1.0721,-1.0721,-1.0721,-1.0721,-1.0721,-1.0721,-1.0721,-1.0721,-1.0721,-1.0721,-1.0721,-1.0721,-1.0721,-1.0721,-1.0721,-1.0721,-1.0721,-1.0721,-1.0721,-1.0721,-1.0721,-1.0721,-1.0721,-1.0721,-1.0721,-1.0721,-1.0721,-1.0721,-1.0721,-1.0721,-1.0721,-1.0721,-1.0721,-1.0721,-1.0721,-1.0721,-1.0721,-1.0721,-1.0721,-1.0721,-1.0721,-1.0721,-1.0639,-1.0514,-1.0324,-1.0198,-1.0063,-0.9863,-0.9822,-0.9822,-0.9822,-0.9822,-0.9822,-0.9822,-0.9822,-0.9822,-0.9822,-0.9822,-0.9822,-0.9822,-0.9822,-0.9822,-0.9822,-0.9822,-0.9822,-0.9822,-0.9822,-0.9822,-0.9822,-0.9822,-0.9822,-0.9822,-0.9822,-0.9822,-0.9822,-0.9822,-0.9822,-0.9822,-1.1438,-1.3048,-1.4663,-1.6256,-1.7864,-1.0453,-1.0602,-1.0717,-1.0721,-1.0605,-1.0456,0.0,0.0,-0.9943,-0.9852,-0.9822,-0.9822,-0.9822,-0.9822,-0.9822,-0.9822,-0.9822,-0.9876,-0.9967,-0.9987,-1.0044,0.0,0.0,-1.0334,-1.0477,-1.0626,-1.0717,-1.0717,-1.0717,-1.0721,-1.0721,-1.0721,-1.0721,-1.0721,-1.0721,-1.0721,-1.0721,-1.0721,-1.0721,-1.0721,-1.0721,-1.0721,-1.0721,-1.0721,-1.0721,-1.0721,-1.0721,-1.0721,-1.0721,-1.0721,-1.0721,-1.0721,-1.0721,-1.0721,-1.0721,-1.0721,-1.0721,-1.0721,-1.0721,-1.0721,-1.0721,-1.0721,-1.0721,-1.0721,-1.0721,-1.0721,-1.0721,-1.0721,-1.0721,-1.0721,-1.0721,-1.0717,-1.0643,-1.0351,-1.028,-1.0195,-0.9886,-0.9822,-0.9822,-0.9822,-0.9822,-0.9822,-0.9822,-0.9822,-0.9822,-0.9822,-0.9822,-0.9822,-0.9822,-0.9822,-0.9822,-0.9822,-0.9822,-0.9822,-0.9822,-0.9822,-0.9822,-0.9822,-0.9822,-0.9822,-0.9822,-0.9822,-0.9822,-0.9822,-0.9822,-0.9822,-0.9822,-1.1438,-1.3048,-1.4663,-1.6256,-1.7864,-1.0334,-1.0453,-1.0541,-1.0443,-1.0304,-1.0178,-1.0071,-1.0005,-0.988,-0.9832,-0.9822,-0.9822,-0.9822,-0.9822,-0.9856,-0.9899,-0.989,-0.9873,-0.9967,0.0,0.0,-1.0263,-1.046,-1.0599,0.0,0.0,-1.0721,-1.0721,-1.0721,-1.0721,-1.0721,-1.0721,-1.0721,-1.0721,-1.0721,-1.0721,-1.0721,-1.0721,-1.0721,-1.0721,-1.0721,-1.0721,-1.0721,-1.0721,-1.0721,-1.0721,-1.0721,-1.0721,-1.0721,-1.0721,-1.0721,-1.0721,-1.0721,-1.0721,-1.0721,-1.0721,-1.0721,-1.0721,-1.0721,-1.0721,-1.0721,-1.0721,-1.0721,-1.0721,-1.0721,-1.0721,-1.0721,-1.0721,-1.0721,-1.0721,-1.0721,-1.0721,-1.067,-1.0473,-1.0351,-1.0226,-0.996,-0.9893,-0.9822,-0.9822,-0.9822,-0.9822,-0.9822,-0.9822,-0.9822,-0.9822,-0.9822,-0.9822,-0.9822,-0.9822,-0.9822,-0.9822,-0.9822,-0.9822,-0.9822,-0.9822,-0.9822,-0.9822,-0.9822,-0.9822,-0.9822,-0.9822,-0.9822,-0.9822,-0.9822,-0.9822,-0.9822,-1.0301,-1.1976,-1.4663,-1.6256,-1.7864,-1.0263,-1.0385,-1.046,-1.0317,-1.0164,-0.9987,-0.9987,-0.9869,-0.9822,-0.9822,-0.9822,-0.9822,-0.9822,-0.9822,-0.9852,-0.9886,-0.9883,-0.9873,-0.9967,0.0,0.0,-1.0263,0.0,0.0,0.0,-1.0687,-1.0721,-1.0721,-1.0721,-1.0721,-1.0721,-1.0721,-1.0721,-1.0721,-1.0721,-1.0721,-1.0721,-1.0721,-1.0721,-1.0721,-1.0721,-1.0721,-1.0721,-1.0721,-1.0721,-1.0721,-1.0721,-1.0721,0.0,-1.0721,-1.0721,-1.0721,-1.0721,-1.0721,-1.0721,-1.0721,-1.0721,-1.0721,-1.0721,-1.0721,-1.0721,-1.0721,-1.0721,-1.0721,-1.0721,-1.0721,-1.0721,-1.0721,-1.0721,-1.0721,-1.0721,-1.0721,-1.068,-1.0527,-1.0385,-1.0239,-1.0021,-0.9869,-0.9822,-0.9822,-0.9822,-0.9822,-0.9822,-0.9822,-0.9822,-0.9822,-0.9822,-0.9822,-0.9822,-0.9822,-0.9822,-0.9822,-0.9822,-0.9822,-0.9822,-0.9822,-0.9822,-0.9822,-0.9822,-0.9822,-0.9822,-0.9822,-0.9822,-0.9822,-0.9822,-0.9822,-0.9822,-1.0422,-1.1736,-1.3765,-1.5961,-1.7566,0.0,-1.0351,-1.0426,-1.0283,-1.0141,-0.997,-0.997,-0.9862,0.0,-0.9822,-0.9822,-0.9822,-0.9822,-0.9822,-0.9825,-0.9836,-0.9829,-0.988,-0.998,-1.0011,0.0,0.0,-1.0429,0.0,-1.0507,-1.0636,-1.0721,-1.0721,-1.0721,-1.0721,-1.0721,-1.0721,-1.0721,-1.0721,-1.0721,-1.0721,-1.0721,-1.0721,-1.0721,-1.0721,-1.0721,-1.0721,-1.0721,-1.0721,-1.0721,-1.0721,-1.0721,-1.0721,-1.0721,-1.0721,-1.0721,-1.0721,-1.0721,-1.0721,-1.0721,-1.0721,-1.0721,-1.0721,-1.0721,-1.0721,-1.0721,-1.0721,-1.0721,-1.0721,-1.0721,-1.0721,-1.0721,-1.0721,-1.0721,-1.0721,-1.0721,-1.0721,-1.0683,-1.0541,-1.0392,-1.0243,-1.0034,-0.9876,-0.9822,-0.9822,-0.9822,-0.9822,-0.9822,-0.9822,-0.9822,-0.9822,-0.9822,-0.9822,-0.9822,-0.9822,-0.9822,-0.9822,-0.9822,-0.9822,-0.9822,-0.9822,-0.9822,-0.9822,-0.9822,-0.9822,-0.9822,-0.9822,-0.9822,-0.9822,-0.9812,-0.9805,-0.9805,-1.1302,-1.2076,-1.2256,-1.5354,-1.6909,-0.992,0.0,-1.0117,-0.9964,-0.9903,-0.9876,0.0,-0.9846,-0.9822,-0.9822,-0.9822,-0.9822,-0.9822,-0.9822,-0.9859,-0.9916,-0.9835,-0.9917,-1.0188,-1.0317,0.0,-1.0599,-1.0646,-1.0666,-1.0666,-1.07,-1.0721,-1.0721,-1.0721,-1.0721,-1.0721,-1.0721,-1.0721,-1.0721,-1.0721,-1.0721,-1.0721,-1.0721,-1.0721,-1.0721,-1.0721,-1.0721,-1.0721,-1.0721,-1.0721,-1.0721,-1.0721,-1.0721,-1.0721,-1.0721,-1.0721,-1.0721,-1.0721,-1.0721,-1.0721,-1.0721,-1.0721,-1.0721,-1.0721,-1.0721,-1.0721,-1.0721,-1.0721,-1.0721,-1.0721,-1.0721,-1.0721,-1.0721,-1.0721,-1.0721,-1.0721,-1.0721,-1.0711,-1.0673,-1.047,-1.027,-1.0236,-1.0012,-0.9822,-0.9822,-0.9822,-0.9822,-0.9822,-0.9822,-0.9822,-0.9822,-0.9822,-0.9822,-0.9822,-0.9822,-0.9822,-0.9822,-0.9822,-0.9822,-0.9822,-0.9822,-0.9822,-0.9822,-0.9822,-0.9822,-0.9822,-0.9822,-0.9822,-0.9822,-0.9713,-0.9659,-0.9659,-1.0014,-1.0833,-1.2119,-1.4163,-1.5843,-0.9822,-0.988,-0.9862,-0.9842,-0.9822,-0.9822,-0.9822,-0.9822,-0.9822,-0.9822,-0.9822,-0.9822,-0.9822,-0.9937,-1.0012,-0.9893,-1.0049,-1.0185,0.0,0.0,-1.0548,-1.0704,-1.0721,-1.0721,-1.0721,-1.0721,-1.0721,-1.0721,-1.0721,-1.0721,-1.0721,-1.0721,-1.0721,-1.0721,-1.0721,-1.0721,-1.0721,-1.0721,-1.0721,-1.0721,-1.0721,-1.0721,-1.0721,-1.0721,-1.0721,-1.0721,-1.0721,-1.0721,-1.0721,-1.0721,-1.0721,-1.0721,-1.0721,-1.0721,-1.0721,-1.0721,-1.0721,-1.0721,-1.0721,-1.0721,-1.0721,-1.0721,-1.0721,-1.0721,-1.0721,-1.0721,-1.0721,-1.0721,-1.0721,-1.0721,-1.0721,-1.0721,-1.0721,-1.0721,-1.0493,-1.028,-1.028,-1.0039,-0.9822,-0.9822,-0.9822,-0.9822,-0.9822,-0.9822,-0.9822,-0.9822,-0.9822,-0.9822,-0.9822,-0.9822,-0.9822,-0.9822,-0.9822,-0.9822,-0.9822,-0.9822,-0.9822,-0.9822,-0.9822,-0.9822,-0.9822,-0.9822,-0.9791,-0.9727,-0.971,-0.9676,-0.9608,-0.9676,-1.0116,-1.1061,-1.27,-1.4361,-0.9849,-0.9873,-0.988,-0.9832,-0.9822,-0.9822,-0.9822,-0.9822,-0.9822,-0.9822,-0.9822,-0.9836,-0.9883,-1.0066,-1.0141,-0.9924,-1.0212,-1.0466,-1.0487,-1.051,-1.0575,-1.0704,-1.0721,-1.0721,-1.0721,-1.0721,-1.0721,-1.0721,-1.0721,-1.0721,-1.0721,-1.0721,-1.0721,-1.0721,-1.0721,-1.0721,-1.0721,-1.0721,-1.0721,-1.0721,-1.0721,-1.0721,-1.0721,-1.0721,-1.0721,-1.0721,-1.0721,-1.0721,-1.0721,-1.0721,-1.0721,-1.0721,-1.0721,-1.0721,-1.0721,-1.0721,-1.0721,-1.0721,-1.0721,-1.0721,-1.0721,-1.0721,-1.0721,-1.0721,-1.0721,-1.0721,-1.0721,-1.0721,-1.0721,-1.0721,-1.0721,-1.0721,-1.0721,-1.0721,-1.0493,-1.028,-1.028,-1.0039,-0.9822,-0.9822,-0.9822,-0.9822,-0.9822,-0.9822,-0.9822,-0.9822,-0.9822,-0.9822,-0.9822,-0.9822,-0.9822,-0.9822,-0.9822,-0.9822,-0.9822,-0.9822,-0.9822,-0.9822,-0.9822,-0.9822,-0.9822,-0.9822,-0.9764,-0.9646,-0.9737,-0.973,-0.9608,-0.973,-0.9788,-0.9788,-1.1663,-1.3292,-0.9916,-1.011,-1.0148,-0.9886,-0.9822,-0.9822,-0.9822,-0.9822,-0.9822,-0.9822,-0.9822,-0.99,-1.0161,-1.0036,-0.9961,-1.0175,-1.0266,-1.0354,0.0,0.0,-1.0694,-1.0717,-1.0721,-1.0721,-1.0721,-1.0721,-1.0721,-1.0721,-1.0721,-1.0721,-1.0721,-1.0721,-1.0721,-1.0721,-1.0721,-1.0721,-1.0721,-1.0721,-1.0721,-1.0721,-1.0721,-1.0721,-1.0721,-1.0721,-1.0721,-1.0721,-1.0721,-1.0721,-1.0721,-1.0721,-1.0721,-1.0721,-1.0721,-1.0721,-1.0721,-1.0721,-1.0721,-1.0721,-1.0721,-1.0721,-1.0721,-1.0721,-1.0721,-1.0721,-1.0721,-1.0721,-1.0721,-1.0721,-1.0721,-1.0721,-1.0721,-1.0721,-1.0721,-1.0721,-1.0493,-1.028,-1.028,-1.0039,-0.9822,-0.9822,-0.9822,-0.9822,-0.9822,-0.9822,-0.9822,-0.9822,-0.9822,-0.9822,-0.9822,-0.9822,-0.9822,-0.9822,-0.9822,-0.9822,-0.9822,-0.9822,-0.9822,-0.9822,-0.9822,-0.9822,-0.9822,-0.9822,-0.9812,-0.9788,-0.9693,-0.9632,-0.9608,-0.9632,-0.9642,-0.9702,-1.2797,-1.4366,-0.9845,-0.9978,-1.0039,-1.0063,-1.0188,-1.0307,-1.0307,-1.0307,-1.0263,-1.01,-1.007,-1.0114,-1.0253,-1.0297,-1.0405,-1.0707,-1.0555,-1.0446,-1.0595,-1.0605,-1.0626,-1.0711,-1.0721,-1.0721,-1.0721,-1.0721,-1.0721,-1.0721,-1.0721,-1.0721,-1.0721,-1.0721,-1.0721,-1.0721,-1.0721,-1.0721,-1.0721,-1.0721,-1.0721,-1.0721,-1.0721,-1.0721,-1.0721,-1.0721,-1.0721,-1.0721,-1.0721,-1.0721,-1.0721,-1.0721,-1.0721,-1.0721,-1.0721,-1.0721,-1.0721,-1.0721,-1.0721,-1.0721,-1.0721,-1.0721,-1.0721,-1.0721,-1.0721,-1.0721,-1.0721,-1.0721,-1.0721,-1.0721,-1.0721,-1.0721,-1.0721,-1.0721,-1.0721,-1.0721,-1.0555,-1.0375,-1.0297,-1.0103,-0.9859,-0.9836,-0.9822,-0.9822,-0.9822,-0.9822,-0.9822,-0.9822,-0.9822,-0.9822,-0.9822,-0.9822,-0.9822,-0.9822,-0.9822,-0.9822,-0.9822,-0.9822,-0.9822,-0.9822,-0.9822,-0.9822,-0.9822,-0.9822,-0.9785,-0.9707,-0.972,-0.9686,-0.9608,-0.9686,-0.9724,-0.9724,-1.1282,-1.2453,-0.9866,-0.99,-0.9992,-1.0263,-1.0422,-1.0548,-1.0687,-1.0666,-1.0571,-1.0415,-1.0385,-1.0385,-1.0385,-1.0568,-1.0772,-1.0931,-1.0724,-1.0585,-1.0704,-1.0619,-1.0588,-1.0707,-1.0721,-1.0721,-1.0721,-1.0721,-1.0721,-1.0721,-1.0721,-1.0721,-1.0721,-1.0721,-1.0721,-1.0721,-1.0721,-1.0721,-1.0721,-1.0721,-1.0721,-1.0721,-1.0721,-1.0721,-1.0721,-1.0721,-1.0721,-1.0721,-1.0721,-1.0721,-1.0721,-1.0721,-1.0721,-1.0721,-1.0721,-1.0721,-1.0721,-1.0721,-1.0721,-1.0721,-1.0721,-1.0721,-1.0721,-1.0721,-1.0721,-1.0721,-1.0721,-1.0721,-1.0721,-1.0721,-1.0721,-1.0721,-1.0721,-1.0721,-1.0721,-1.0721,-1.0578,-1.0412,-1.0304,-1.0131,-0.9899,-0.9842,-0.9822,-0.9822,-0.9822,-0.9822,-0.9822,-0.9822,-0.9822,-0.9822,-0.9822,-0.9822,-0.9822,-0.9822,-0.9822,-0.9822,-0.9822,-0.9822,-0.9836,-0.9873,-0.9873,-0.9859,-0.9822,-0.9856,-0.9805,-0.9663,-0.9768,-0.9768,-0.9659,-0.9768,-0.9822,-0.9822,-1.0539,-1.1555,-0.9933,-1.0137,-1.0283,-1.0439,-1.0178,-1.0032,-1.0592,-1.051,-1.0385,-1.0636,-1.0687,-1.0687,-1.0687,-1.0707,-1.0636,-1.0385,-1.0548,-1.0707,-1.0717,-1.0711,-1.0707,-1.0717,-1.0721,-1.0721,-1.0721,-1.0721,-1.0721,-1.0721,-1.0721,-1.0721,-1.0721,-1.0721,-1.0721,-1.0721,-1.0721,-1.0721,-1.0721,-1.0721,-1.0721,-1.0721,-1.0721,-1.0721,-1.0721,-1.0721,-1.0721,-1.0721,-1.0721,-1.0721,-1.0721,-1.0721,-1.0721,-1.0721,-1.0721,-1.0721,-1.0721,-1.0721,-1.0721,-1.0721,-1.0721,-1.0721,-1.0721,-1.0721,-1.0721,-1.0721,-1.0721,-1.0721,-1.0721,-1.0721,-1.0721,-1.0721,-1.0721,-1.0721,-1.0721,-1.0721,-1.05,-1.0293,-1.0283,-1.0046,-0.9836,-0.9822,-0.9822,-0.9822,-0.9822,-0.9822,-0.9822,-0.9822,-0.9822,-0.9822,-0.9822,-0.9822,-0.9822,-0.9822,-0.9822,-0.9822,-0.9822,-0.9822,-0.9883,-0.9963,-0.997,-0.9906,-0.9825,-0.9896,-0.9899,-0.9808,-0.9815,-0.9815,-0.9805,-0.9815,-0.9822,-0.9879,-1.2868,-1.4307,-0.989,-1.009,-1.0293,-1.0348,-1.0232,-1.0263,-1.086,-1.0907,-1.0809,-1.0734,-1.0867,-1.0968,-1.088,-1.109,-1.1182,-1.0877,-1.0921,-1.0965,-1.0806,-1.0778,-1.0721,-1.0721,-1.0721,-1.0721,-1.0721,-1.0721,-1.0721,-1.0721,-1.0721,-1.0721,-1.0721,-1.0721,-1.0721,-1.0721,-1.0721,-1.0721,-1.0721,-1.0721,-1.0721,-1.0721,-1.0721,-1.0721,-1.0721,-1.0721,-1.0721,-1.0721,-1.0721,-1.0721,-1.0721,-1.0721,-1.0721,-1.0721,-1.0721,-1.0721,-1.0721,-1.0721,-1.0721,-1.0721,-1.0721,-1.0721,-1.0721,-1.0721,-1.0721,-1.0721,-1.0721,-1.0721,-1.0721,-1.0721,-1.0721,-1.0721,-1.0721,-1.0721,-1.0697,-1.0602,-1.0493,-1.0361,-1.0178,-0.9984,-0.9872,-0.9839,-0.9822,-0.9822,-0.9822,-0.9822,-0.9822,-0.9822,-0.9822,-0.9822,-0.9822,-0.9822,-0.9822,-0.9822,-0.9822,-0.9822,-0.9822,-0.9849,-0.9886,-0.991,-0.9845,-0.9862,-0.9899,-0.9866,-0.988,-0.9822,-0.9822,-0.9822,-0.9822,-1.0778,-1.1318,-1.1378,-1.3591,-1.4604,-0.9964,-1.012,-1.0304,-1.0395,-1.0348,-1.0436,-1.1029,-1.109,-1.1019,-1.1006,-1.1053,-1.108,-1.1026,-1.1233,-1.1338,0.0,-1.1131,-1.1114,-1.09,-1.0749,-1.0721,-1.0721,-1.0721,-1.0721,-1.0721,-1.0721,-1.0721,-1.0721,-1.0721,-1.0721,-1.0721,-1.0721,-1.0721,-1.0721,-1.0721,-1.0721,-1.0721,-1.0721,-1.0721,-1.0721,-1.0721,-1.0721,-1.0721,-1.0721,-1.0721,-1.0721,-1.0721,-1.0721,-1.0721,-1.0721,-1.0721,-1.0721,-1.0721,-1.0721,-1.0721,-1.0721,-1.0721,-1.0721,-1.0721,-1.0721,-1.0721,-1.0721,-1.0721,-1.0721,-1.0721,-1.0721,-1.0721,-1.0721,-1.0721,-1.0721,-1.0721,-1.0721,-1.0694,-1.0588,-1.0493,-1.0371,-1.0164,-0.9984,-0.9883,-0.9842,-0.9822,-0.9822,-0.9822,-0.9822,-0.9822,-0.9822,-0.9822,-0.9822,-0.9822,-0.9822,-0.9822,-0.9822,-0.9822,-0.9839,-0.989,-0.9926,-0.9963,-0.9968,-0.992,-0.9856,-0.9913,-0.9862,-0.9869,-0.9822,-1.0301,-1.0539,-1.0539,-1.2157,-1.2933,-1.2993,-1.4599,-1.537,-1.0276,-1.028,-1.0351,-1.0643,-1.05,-1.0443,-1.1029,-1.0934,-1.0894,-1.1494,-1.126,-1.0927,-1.1138,-1.105,-1.0887,-1.0887,-1.107,-1.1114,-1.09,-1.0816,-1.0721,-1.0721,-1.0721,-1.0721,-1.0721,-1.0721,-1.0721,-1.0721,-1.0721,-1.0721,-1.0721,-1.0721,-1.0721,-1.0721,-1.0721,-1.0721,-1.0721,-1.0721,-1.0721,-1.0721,-1.0721,-1.0721,-1.0721,-1.0721,-1.0721,-1.0721,-1.0721,-1.0721,-1.0721,-1.0721,-1.0721,-1.0721,-1.0721,-1.0721,-1.0721,-1.0721,-1.0721,-1.0721,-1.0721,-1.0721,-1.0721,-1.0721,-1.0721,-1.0721,-1.0721,-1.0721,-1.0721,-1.0721,-1.0721,-1.0721,-1.0721,-1.0721,-1.0721,-1.0717,-1.0493,-1.028,-1.0276,-1.0036,-0.9822,-0.9822,-0.9822,-0.9822,-0.9822,-0.9822,-0.9822,-0.9822,-0.9822,-0.9822,-0.9822,-0.9822,-0.9822,-0.9822,-0.9822,-0.9886,-0.9977,-0.9987,-1.0117,-1.0266,-1.0134,-0.9981,-0.9829,-0.9906,-0.9913,-0.9822,-1.1378,-1.2217,-1.2213,-1.3825,-1.4604,-1.4663,-1.6256,-1.7026,-0.9836,-1.0114,-1.0426,-1.0415,-1.0656,-1.0948,-1.119,-1.1016,-1.0992,-1.1379,-1.1267,-1.1145,-1.1297,-1.1375,-1.1385,-1.1277,-1.1206,-1.1148,-1.1104,-1.088,-1.0721,-1.0721,-1.0721,-1.0721,-1.0721,-1.0721,-1.0721,-1.0721,-1.0721,-1.0721,-1.0721,-1.0721,-1.0721,-1.0721,-1.0721,-1.0721,-1.0721,-1.0721,-1.0721,-1.0721,-1.0721,-1.0721,-1.0721,-1.0721,-1.0721,-1.0721,-1.0721,-1.0721,-1.0721,-1.0721,-1.0721,-1.0721,-1.0721,-1.0721,-1.0721,-1.0721,-1.0721,-1.0721,-1.0721,-1.0721,-1.0721,-1.0721,-1.0721,-1.0721,-1.0721,-1.0721,-1.0721,-1.0721,-1.0721,-1.0721,-1.0721,-1.0721,-1.0666,-1.046,-1.0344,-1.0222,-1.0005,-0.9883,-0.9822,-0.9822,-0.9822,-0.9822,-0.9822,-0.9822,-0.9822,-0.9822,-0.9822,-0.9822,-0.9822,-0.9822,-0.9863,-0.9909,-0.992,-0.9984,-1.0198,-1.0212,-1.0185,-1.0058,-1.1119,-1.1129,-0.9981,-0.9859,-1.0347,-1.1499,-1.1976,-1.2753,-1.3889,-1.5488,-1.6315,-1.6315,-1.7929,-1.8706,-1.0219,-1.0487,-1.0768,-1.0802,-1.0989,-1.1179,-1.124,-1.1233,-1.1267,-1.1447,-1.1358,-1.1301,-1.1453,-1.1508,-1.1518,-1.1487,-1.1355,-1.1233,-1.1241,-1.0962,-1.0789,-1.0727,-1.0721,-1.0721,-1.0721,-1.0721,-1.0721,-1.0721,-1.0721,-1.0721,-1.0721,-1.0721,-1.0721,-1.0721,-1.0721,-1.0721,-1.0721,-1.0721,-1.0721,-1.0721,-1.0721,-1.0721,-1.0721,-1.0721,-1.0721,-1.0721,-1.0721,-1.0721,-1.0721,-1.0721,-1.0721,-1.0721,-1.0721,-1.0721,-1.0721,-1.0721,-1.0721,-1.0721,-1.0721,-1.0721,-1.0721,-1.0721,-1.0721,-1.0721,-1.0721,-1.0721,-1.0721,-1.0721,-1.0721,-1.0721,-1.0721,-1.0721,-1.066,-1.0422,-1.0321,-1.0212,-0.9964,-0.9863,-0.9822,-0.9822,-0.9822,-1.0001,-1.066,-1.024,-1.0001,-1.066,-1.0179,-0.9822,-0.9822,-0.9873,-0.9886,-0.9977,-1.0041,-1.0178,-1.0273,-1.028,-1.0215,-0.9997,-1.1518,-1.1914,-1.0934,-1.1437,-1.2157,-1.3112,-1.376,-1.4297,-1.4604,-1.6856,-1.7624,-1.7026,-1.8648,-1.9424,-1.0992,-1.1101,-1.1212,-1.1504,-1.1389,-1.124,-1.1382,-1.1518,-1.1616,-1.1603,-1.1497,-1.1453,-1.1592,-1.1504,-1.1457,-1.1596,-1.1491,-1.1341,-1.1272,-1.105,-1.083,-1.0758,-1.0727,-1.0721,-1.0721,-1.0721,-1.0721,-1.0721,-1.0721,-1.0721,-1.0721,-1.0721,-1.0721,-1.0721,-1.0721,-1.0721,-1.0721,-1.0721,-1.0721,-1.0721,-1.0721,-1.0721,-1.0721,-1.0721,-1.0721,-1.0721,-1.0721,-1.0721,-1.0721,-1.0721,-1.0721,-1.0721,-1.0721,-1.0721,-1.0721,-1.0721,-1.0721,-1.0721,-1.0721,-1.0721,-1.0721,-1.0721,-1.0721,-1.0721,-1.0721,-1.0721,-1.0721,-1.0721,-1.0721,-1.0721,-1.0721,-1.0721,-1.0677,-1.0514,-1.0375,-1.0236,-1.0004,-0.9859,-0.9822,-0.9822,-0.9822,-1.024,-1.1736,-1.0899,-1.0539,-1.1976,-1.0959,-0.994,-0.9822,-0.9893,-0.9994,-1.0007,-1.0209,-1.03,-1.03,-1.0287,-1.0275,-1.0243,-1.1749,-1.2638,-1.2637,-1.3885,-1.4663,-1.4842,-1.6138,-1.6138,-1.4837,-1.7753,-1.8402,-1.7026,-1.8648,-1.9424,-1.0304,-1.0567,-1.1036,-1.1216,-1.1392,-1.1531,-1.1562,-1.1596,-1.1586,-1.1463,-1.1508,-1.1582,-1.1613,-1.1592,-1.1582,-1.1613,-1.1491,-1.1379,-1.1348,-1.1114,-1.087,-1.0836,-1.0729,-1.0721,-1.0721,-1.0721,-1.0721,-1.0721,-1.0721,-1.0721,-1.0721,-1.0721,-1.0721,-1.0721,-1.0721,-1.0721,-1.0721,-1.0721,-1.0721,-1.0721,-1.0721,-1.0721,-1.0721,-1.0721,-1.0721,-1.0721,-1.0721,-1.0721,-1.0721,-1.0721,-1.0721,-1.0721,-1.0721,-1.0721,-1.0721,-1.0721,-1.0721,-1.0721,-1.0721,-1.0721,-1.0721,-1.0721,-1.0721,-1.0721,-1.0721,-1.0721,-1.0721,-1.0721,-1.0721,-1.0721,-1.0721,-1.0721,-1.0653,-1.0388,-1.0304,-1.0205,-0.993,-0.9842,-0.9822,-0.9822,-0.9822,-0.9879,-1.024,-1.108,-1.1796,-1.2153,-1.1916,-1.1257,-0.994,-0.9893,-1.0034,-1.0219,-1.0358,-1.0446,-1.0446,-1.0344,-1.0776,-1.1835,-1.3327,-1.4709,-1.5897,-1.5074,-1.5192,-1.6433,-1.5607,-1.5548,-1.6492,-1.7208,-1.7325,-1.7026,-1.8648,-1.9424,-1.0527,-1.0812,-1.1104,-1.1324,-1.1501,-1.1619,-1.1619,-1.1619,-1.1596,-1.1518,-1.1562,-1.1619,-1.1619,-1.1619,-1.1619,-1.1619,-1.1552,-1.1474,-1.1402,-1.1196,-1.1026,-1.089,-1.0812,-1.0721,-1.0721,-1.0721,-1.0721,-1.0721,-1.0721,-1.0721,-1.0721,-1.0721,-1.0721,-1.0721,-1.0721,-1.0721,-1.0721,-1.0721,-1.0721,-1.0721,-1.0721,-1.0721,-1.0721,-1.0721,-1.0721,-1.0721,-1.0721,-1.0721,-1.0721,-1.0721,-1.0721,-1.0721,-1.0721,-1.0721,-1.0721,-1.0721,-1.0721,-1.0721,-1.0721,-1.0721,-1.0721,-1.0721,-1.0721,-1.0721,-1.0721,-1.0721,-1.0721,-1.0721,-1.0721,-1.0721,-1.0721,-1.0666,-1.0555,-1.0334,-1.028,-1.0195,-0.9886,-0.9822,-1.0001,-1.0778,-1.0959,-1.1434,-1.2979,-1.3935,-1.4237,-1.3467,-1.3347,-1.3084,-1.2392,-1.1715,-1.1395,-1.1625,-1.0959,-1.0463,-1.0395,-1.0256,-1.0783,-1.2195,-1.3767,-1.5311,-1.6909,-1.6915,-1.6915,-1.7026,-1.5429,-1.4658,-1.4708,-1.5483,-1.5424,-1.4767,-1.7149,-1.8227,-1.0846,-1.1063,-1.1236,-1.1541,-1.1619,-1.1619,-1.1619,-1.1619,-1.1619,-1.1619,-1.1619,-1.1619,-1.1619,-1.1619,-1.1619,-1.1619,-1.1619,-1.1575,-1.145,-1.1297,-1.1148,-1.1002,-1.0853,-1.0751,-1.0721,-1.0721,-1.0721,-1.0721,-1.0721,-1.0721,-1.0721,-1.0721,-1.0721,-1.0721,-1.0721,-1.0721,-1.0721,-1.0721,-1.0721,-1.0721,-1.0721,-1.0721,-1.0721,-1.0721,-1.0721,-1.0721,-1.0721,-1.0721,-1.0721,-1.0721,-1.0721,-1.0721,-1.0721,-1.0721,-1.0721,-1.0721,-1.0721,-1.0721,-1.0721,-1.0721,-1.0721,-1.0721,-1.0721,-1.0721,-1.0721,-1.0721,-1.0721,-1.0721,-1.0721,-1.0721,-1.0721,-1.0626,-1.0487,-1.0321,-1.028,-1.0195,-0.9886,-1.0001,-1.06,-1.1916,-1.2393,-1.3522,-1.6492,-1.7026,-1.655,-1.5192,-1.5051,-1.5085,-1.5029,-1.398,-1.3184,-1.3084,-1.1831,-1.0751,-1.0357,-1.0385,-1.1018,-1.2526,-1.4123,-1.5725,-1.7325,-1.8402,-1.8344,-1.7026,-1.5429,-1.383,-1.2213,-1.3531,-1.3526,-1.2273,-1.5246,-1.6609,-1.0212,-1.067,-1.1236,-1.1541,-1.1619,-1.1619,-1.1619,-1.1619,-1.1619,-1.1619,-1.1619,-1.1619,-1.1619,-1.1619,-1.1619,-1.1619,-1.1619,-1.1613,-1.1592,-1.1457,-1.1304,-1.1151,-1.1006,-1.0799,-1.0731,-1.0721,-1.0721,-1.0721,-1.0721,-1.0721,-1.0721,-1.0721,-1.0721,-1.0721,-1.0721,-1.0721,-1.0721,-1.0721,-1.0721,-1.0721,-1.0721,-1.0721,-1.0721,-1.0721,-1.0721,-1.0721,-1.0721,-1.0721,-1.0721,-1.0721,-1.0721,-1.0721,-1.0721,-1.0721,-1.0721,-1.0721,-1.0721,-1.0721,-1.0721,-1.0721,-1.0721,-1.0721,-1.0721,-1.0721,-1.0721,-1.0721,-1.0721,-1.0721,-1.0721,-1.0721,-1.0721,-1.0704,-1.0619,-1.0344,-1.028,-1.0195,-0.9886,-1.0899,-1.1916,-1.2157,-1.3352,-1.4837,-1.6668,-1.7026,-1.6909,-1.6727,-1.6858,-1.6522,-1.5165,-1.5162,-1.472,-1.3229,-1.2913,-1.2082,-1.0417,-1.1374,-1.2721,-1.4197,-1.5784,-1.739,-1.9004,-1.7923,-1.7208,-1.7026,-1.5429,-1.383,-1.2213,-1.2393,-1.2393,-1.2213,-1.4063,-1.4901,-1.0202,-1.0785,-1.1345,-1.1565,-1.1619,-1.1619,-1.1619,-1.1619,-1.1619,-1.1619,-1.1619,-1.1619,-1.1619,-1.1619,-1.1619,-1.1619,-1.1619,-1.1619,-1.1619,-1.1487,-1.1335,-1.1251,-1.1036,-1.0823,-1.0734,-1.0721,-1.0721,-1.0721,-1.0721,-1.0721,-1.0721,-1.0721,-1.0721,-1.0721,-1.0721,-1.0721,-1.0721,-1.0721,-1.0721,-1.0721,-1.0721,-1.0721,-1.0721,-1.0721,-1.0721,-1.0721,-1.0721,-1.0721,-1.0721,-1.0721,-1.0721,-1.0721,-1.0721,-1.0721,-1.0721,-1.0721,-1.0721,-1.0721,-1.0721,-1.0721,-1.0721,-1.0721,-1.0721,-1.0721,-1.0721,-1.0721,-1.0721,-1.0721,-1.0721,-1.0721,-1.0721,-1.0656,-1.0538,-1.0331,-1.0215,-1.009,-0.9869,-1.1076,-1.2749,-1.4535,-1.6203,-1.7513,-1.8227,-1.8344,-1.8344,-1.8344,-1.8578,-1.8567,-1.7985,-1.7394,-1.6456,-1.4857,-1.3647,-1.2234,-1.0474,-1.153,-1.2966,-1.449,-1.6138,-1.7741,-1.9307,-1.8706,-1.7923,-1.7026,-1.4535,-1.2933,-1.2213,-1.1318,-1.0838,-1.0899,-1.2513,-1.3232,-1.029,-1.0819,-1.1226,-1.1494,-1.1562,-1.1572,-1.1609,-1.1619,-1.1619,0.0,-1.1619,-1.1619,-1.1619,-1.1619,-1.1619,-1.1619,-1.1619,-1.1619,-1.1619,-1.1521,-1.1379,-1.1185,-1.1067,-1.0928,-1.0738,-1.0721,-1.0721,-1.0721,-1.0721,-1.0721,-1.0721,-1.0721,-1.0721,-1.0721,-1.0721,-1.0721,-1.0721,-1.0721,-1.0721,-1.0721,-1.0721,-1.0721,-1.0721,-1.0721,-1.0721,-1.0721,-1.0721,-1.0721,-1.0721,-1.0721,-1.0721,-1.0721,-1.0721,-1.0721,-1.0721,-1.0721,-1.0721,-1.0721,-1.0721,-1.0721,-1.0721,-1.0721,-1.0721,-1.0721,-1.0721,-1.0721,-1.0721,-1.0721,-1.0721,-1.0721,-1.0721,-1.0636,-1.0504,-1.0324,-1.0192,-1.0239,-1.0887,-1.1976,-1.376,-1.6973,-1.8583,-1.9424,-1.9424,-1.9491,-1.9472,-1.9472,-1.9786,-2.01,-2.0321,-1.9461,-1.8295,-1.6738,-1.4764,-1.3026,-1.1653,-1.231,-1.3526,-1.5133,-1.6733,-1.8163,-1.9366,-1.9424,-1.8823,-1.7624,-1.4831,-1.3048,-1.2213,-1.1438,-1.0838,-1.0418,-1.1615,-1.2213,-1.029,-1.0514,-1.0677,-1.126,-1.1402,-1.144,-1.1586,0.0,-1.1619,-1.1619,-1.1619,-1.1619,-1.1619,-1.1619,-1.1619,-1.1619,-1.1619,-1.1619,-1.1619,-1.1613,-1.1497,-1.1199,-1.1155,-1.104,-1.0748,-1.0721,-1.0721,-1.0721,-1.0721,-1.0721,-1.0721,-1.0721,-1.0721,-1.0721,-1.0721,-1.0721,-1.0721,-1.0721,-1.0721,-1.0721,-1.0721,-1.0721,-1.0721,-1.0721,-1.0721,-1.0721,-1.0721,-1.0721,-1.0721,-1.0721,-1.0721,-1.0721,-1.0721,-1.0721,-1.0721,-1.0721,-1.0721,-1.0721,-1.0721,-1.0721,-1.0721,-1.0721,-1.0721,-1.0721,-1.0721,-1.0721,-1.0721,-1.0721,-1.0721,-1.0721,-1.0721,-1.0714,-1.0636,-1.0348,-1.0276,-1.1058,-1.3736,-1.4426,-1.5435,-1.8648,-1.9366,-1.9424,-1.9424,-1.9593,-1.978,-1.978,-2.0267,-2.0635,-2.0648,-2.0839,-2.0309,-1.857,-1.6601,-1.5261,-1.5065,-1.467,-1.5133,-1.6791,-1.8409,-1.9307,-1.9424,-1.9424,-1.9366,-1.9307,-1.7624,-1.5241,-1.2213,-1.3651,-1.3591,-1.2097,-1.2157,-1.2213,-1.0107,-1.0419,-1.0714,-1.1029,-1.125,-1.1406,-1.146,-1.1548,-1.1619,-1.1619,-1.1619,-1.1619,-1.1619,-1.1619,-1.1619,-1.1619,-1.1619,-1.1619,-1.1619,-1.1619,-1.1541,-1.1335,-1.1223,-1.1084,-1.082,-1.0778,-1.0721,-1.0721,-1.0721,-1.0721,-1.0721,-1.0721,-1.0721,-1.0721,-1.0721,-1.0721,-1.0721,-1.0721,-1.0721,-1.0721,-1.0721,-1.0721,-1.0721,-1.0721,-1.0721,-1.0721,-1.0721,-1.0721,-1.0721,-1.0721,-1.0721,-1.0721,-1.0721,-1.0721,-1.0721,-1.0721,-1.0721,-1.0721,-1.0721,-1.0721,-1.0721,-1.0721,-1.0721,-1.0721,-1.0721,-1.0721,-1.0721,-1.0721,-1.0721,-1.0721,-1.0721,-1.0721,-1.0646,-1.0351,-1.0933,-1.2081,-1.4157,-1.5429,-1.6791,-1.9004,-1.9424,-1.9424,-1.9424,-1.9606,-1.98,-1.98,-2.0301,-2.0675,-2.0675,-2.0929,-2.0384,-1.8473,-1.7507,-1.649,-1.511,-1.5665,-1.6374,-1.6968,-1.8525,-1.9424,-1.9424,-1.9424,-1.9424,-1.9424,-1.8823,-1.7449,-1.5306,-1.4837,-1.4302,-1.3765,-1.3765,-1.3765,-0.9842,-1.0166,-1.0489,-1.0742,-1.0982,-1.1141,-1.1345,0.0,-1.1494,-1.1599,-1.1619,-1.1619,-1.1619,-1.1619,-1.1619,-1.1619,-1.1619,-1.1619,-1.1619,-1.1619,-1.1562,-1.1409,-1.1257,-1.1104,-1.0894,-1.0809,-1.0721,-1.0721,-1.0721,0.0,-1.0721,-1.0721,-1.0721,-1.0721,-1.0721,-1.0721,-1.0721,-1.0721,-1.0721,-1.0721,-1.0721,-1.0721,-1.0721,-1.0721,-1.0721,-1.0721,-1.0721,-1.0721,-1.0721,-1.0721,-1.0721,-1.0721,-1.0721,-1.0721,-1.0721,-1.0721,-1.0721,-1.0721,-1.0721,-1.0721,-1.0721,-1.0721,-1.0721,-1.0721,-1.0721,-1.0721,-1.0721,-1.0721,-1.0721,-1.0721,-1.0721,-1.068,-1.0582,-1.0337,-1.1739,-1.3366,-1.4381,-1.5843,-1.7501,-1.9068,-1.9424,-1.9424,-1.9424,-1.9606,-1.9833,-1.9927,-2.0361,-2.0715,-2.0808,-2.0989,-2.0541,-1.9112,-1.8334,-1.7509,-1.6584,-1.6812,-1.7202,-1.7747,-1.8823,-1.9424,-1.9424,-1.9424,-1.9424,-1.9424,-1.9424,-1.8881,-1.7806,-1.6738,-1.5908,-1.5429,-1.5429,-1.5133,0.0,0.0,0.0,-1.0592,-1.0595,0.0,-1.1236,0.0,-1.124,-1.1548,-1.1609,-1.1609,-1.1616,-1.1619,-1.1619,-1.1619,-1.1619,-1.1619,-1.1619,-1.1619,-1.1565,-1.1416,-1.126,-1.1107,-1.09,-1.0812,-1.0721,-1.0721,-1.0721,-1.0721,-1.0721,-1.0721,-1.0721,-1.0721,-1.0721,-1.0721,-1.0721,-1.0721,-1.0721,-1.0721,-1.0721,-1.0721,-1.0721,-1.0721,-1.0721,-1.0721,-1.0721,-1.0721,-1.0721,-1.0721,-1.0721,-1.0721,-1.0721,-1.0721,-1.0721,-1.0721,-1.0721,-1.0721,-1.0721,-1.0721,-1.0721,-1.0721,-1.0721,-1.0721,-1.0721,-1.0721,-1.0721,-1.0721,-1.0721,-1.0721,-1.0721,-1.0605,-1.0456,-1.0378,-1.2627,-1.4801,-1.4709,-1.5961,-1.7507,-1.9127,-1.9424,-1.9424,-1.9424,-1.9606,-1.99,-2.018,-2.0481,-2.0775,-2.1056,-2.1109,-2.0995,-2.0695,-1.908,-1.8435,-1.9688,-1.8137,-1.7747,-1.9307,-1.9424,-1.9424,-1.9424,-1.9424,-1.9424,-1.9424,-1.9424,-1.9424,-1.9424,-1.9424,-1.8583,-1.7085,-1.7085,-1.6256,-0.973,0.0,0.0,0.0,0.0,0.0,0.0,0.0,0.0,-1.1369,-1.1365,-1.1355,-1.1579,-1.1619,-1.1619,-1.1619,-1.1619,-1.1619,-1.1619,-1.1619,-1.1603,-1.1562,-1.1321,-1.1148,-1.1107,-1.087,-1.0721,0.0,-1.0721,-1.0721,-1.0721,-1.0721,-1.0721,-1.0721,-1.0721,-1.0721,-1.0721,-1.0721,-1.0721,-1.0721,-1.0721,-1.0721,-1.0721,-1.0721,-1.0721,-1.0721,-1.0721,-1.0721,-1.0721,-1.0721,-1.0721,-1.0721,-1.0721,-1.0721,-1.0721,-1.0721,-1.0721,-1.0721,-1.0721,-1.0721,-1.0721,-1.0721,-1.0721,-1.0721,-1.0721,-1.0721,-1.0721,-1.0721,-1.0721,-1.0721,-1.0721,-1.0605,-1.0772,-1.1814,-1.3424,-1.5099,-1.6129,-1.7624,-1.8881,-1.9307,-1.9424,-1.9424,-1.9424,-1.9606,-1.9826,-1.9907,-2.0347,-2.0708,-2.0782,-2.0982,-2.0915,-2.0408,-1.9842,-1.9533,-1.9526,-1.905,-1.8946,-1.9366,-1.9424,-1.9424,-1.9424,-1.9424,-1.9424,-1.9424,-1.9424,-1.9424,-1.9424,-1.9424,-1.9185,-1.8765,-1.8765,-1.8525,-0.9574,-0.9791,-0.9906,-1.0036,0.0,0.0,-1.0724,-1.0765,0.0,0.0,-1.1416,-1.1409,-1.1586,-1.1619,-1.1619,-1.1619,-1.1619,-1.1619,-1.1619,-1.1619,-1.1619,-1.1619,-1.1406,-1.1233,-1.1237,-1.0951,-1.0789,-1.0724,-1.0721,-1.0721,-1.0721,-1.0721,-1.0721,-1.0721,-1.0721,-1.0721,-1.0721,-1.0721,-1.0721,-1.0721,-1.0721,-1.0721,-1.0721,-1.0721,-1.0721,-1.0721,-1.0721,-1.0721,-1.0721,-1.0721,-1.0721,-1.0721,-1.0721,-1.0721,-1.0721,-1.0721,-1.0721,-1.0721,-1.0721,-1.0721,-1.0721,-1.0721,-1.0721,-1.0721,-1.0721,-1.0721,-1.0721,-1.0721,-1.124,-1.1762,-1.1762,-1.2273,-1.2984,-1.3744,-1.4973,-1.6216,-1.7001,-1.8361,-1.9424,-1.9424,-1.9424,-1.9424,-1.9424,-1.9506,-1.9659,-1.978,-2.0094,-2.0401,-2.0641,-2.0822,-2.0795,-2.0454,-2.0421,-2.0234,-1.9766,-1.9619,-1.9546,-1.9546,-1.9432,-1.9424,-1.9424,-1.9424,-1.9424,-1.9424,-1.9424,-1.9424,-1.9424,-1.9424,-1.9424,-1.9424,-1.9424,-1.9424,-0.9374,-0.9608,-0.9856,-0.9992,-0.9937,0.0,-1.0627,-1.0741,-1.0806,0.0,0.0,-1.148,-1.1514,-1.1531,-1.1541,-1.1521,-1.1562,-1.1599,-1.1616,-1.1619,-1.1619,-1.1619,-1.1484,-1.1331,-1.1175,-1.1033,-1.0816,-1.0731,-1.0721,-1.0721,-1.0721,-1.0721,-1.0721,-1.0721,-1.0721,-1.0721,-1.0721,-1.0721,-1.0721,-1.0721,-1.0721,-1.0721,-1.0721,-1.0721,-1.0721,-1.0721,-1.0721,-1.0721,-1.0721,-1.0721,-1.0721,-1.0721,-1.0721,-1.0721,-1.0721,-1.0721,-1.0721,-1.0721,-1.0721,-1.0721,-1.0721,-1.0721,-1.0721,-1.0721,-1.0721,-1.0721,-1.0721,-1.0916,-1.2215,-1.3582,-1.3582,-1.4749,-1.5922,-1.5948,-1.6794,-1.7605,-1.7649,-1.8599,-1.9424,-1.9424,-1.9424,-1.9424,-1.9424,-1.9424,-1.9452,-1.9713,-1.978,-2.0,-2.0555,-2.0655,-2.0675,-2.0675,-2.0675,-2.0555,-2.0261,-1.9993,-1.9846,-1.9846,-1.9579,-1.9412,-1.9412,-1.9444,-1.9424,-1.9424,-1.9424,-1.9424,-1.9424,-1.9424,-1.9424,-1.9424,-1.9424,-1.9424,-0.9588,-0.969,-0.9829,-0.9859,-0.9934,0.0,-1.0129,-1.0139,-1.028,0.0,0.0,-1.0616,-1.0853,-1.0927,-1.0971,-1.0914,-1.1199,0.0,0.0,0.0,0.0,0.0,0.0,0.0,-1.1175,-1.1033,-1.0816,-1.0731,-1.0721,-1.0721,-1.0721,-1.0721,-1.0721,-1.0721,-1.0721,-1.0721,-1.0721,-1.0721,-1.0721,-1.0721,-1.0721,-1.0721,-1.0721,-1.0721,-1.0721,-1.0721,-1.0721,-1.0721,-1.0721,-1.0721,-1.0721,-1.0721,-1.0721,-1.0721,-1.0721,-1.0721,-1.0721,-1.0721,-1.0721,-1.0721,-1.0721,-1.0721,-1.0721,-1.0721,-1.0721,-1.0721,-1.0979,-1.2413,-1.4036,-1.5399,-1.5399,-1.5659,-1.618,-1.7358,-1.7615,-1.7917,-1.9065,-1.939,-1.9424,-1.9424,-1.9424,-1.9424,-1.9424,-1.9424,-1.9444,-1.9446,-1.9653,-1.9927,-2.0274,-2.0528,-2.0675,-2.0675,-2.0675,-2.0555,-2.0261,-2.012,-2.0147,-2.0147,-1.9873,-1.972,-1.972,-1.9492,-1.9424,-1.9424,-1.9424,-1.9424,-1.9424,-1.9424,-1.9424,-1.9424,-1.9424,-1.9424,-0.9669,-0.9713,-0.9839,-0.9856,-0.9872,0.0,0.0,0.0,-1.0249,0.0,0.0,0.0,-1.0694,0.0,-1.0766,-1.0766,0.0,0.0,0.0,0.0,0.0,0.0,0.0,0.0,-1.1175,-1.1033,-1.0816,-1.0731,-1.0721,-1.0721,-1.0721,-1.0721,-1.0721,-1.0721,-1.0721,-1.0721,-1.0721,-1.0721,-1.0721,-1.0721,-1.0721,-1.0721,-1.0721,-1.0721,-1.0721,-1.0721,-1.0721,-1.0721,-1.0721,-1.0721,-1.0721,-1.0721,-1.0721,-1.0721,-1.0721,-1.0721,-1.0721,-1.0721,-1.0721,-1.0721,-1.0721,-1.0721,-1.0721,-1.0721,-1.0721,-1.1306,-1.2347,-1.4101,-1.5848,-1.7211,-1.7211,-1.7859,-1.8669,-1.9442,-1.9224,-1.9075,-1.986,-1.9673,-1.9424,-1.9424,-1.9424,-1.9424,-1.9424,-1.9424,-1.9424,-1.9424,-1.9492,-1.9686,-1.998,-2.0274,-2.0514,-2.0661,-2.0808,-2.0835,-2.0681,-2.0535,-2.0454,-2.0454,-2.018,-2.0013,-2.0013,-1.974,-1.9586,-1.9586,-1.9586,-1.9659,-1.98,-1.9653,-1.9148,-1.8163,-1.7396,-1.6979,-0.9754,-0.9778,-0.993,-0.9963,-0.9916,-0.9988,0.0,0.0,0.0,0.0,0.0,0.0,0.0,0.0,0.0,0.0,0.0,0.0,0.0,0.0,0.0,0.0,0.0,0.0,-1.1138,-1.0938,-1.0792,-1.0724,-1.0666,-1.066,-1.0717,-1.0721,-1.0721,-1.0721,-1.0721,-1.0721,-1.0721,-1.0721,-1.0721,-1.0721,-1.0721,-1.0721,-1.0721,-1.0721,-1.0721,-1.0721,-1.0721,-1.0721,-1.0721,-1.0721,-1.0721,-1.0721,-1.0721,-1.0721,-1.0721,-1.0721,-1.0721,-1.0721,-1.0721,-1.0721,-1.0721,-1.0721,-1.0721,-1.0784,-1.1111,-1.2413,-1.4166,-1.5913,-1.7667,-1.903,-1.903,-2.0068,-2.1109,-2.1109,-2.0702,-2.0301,-2.018,-1.982,-1.9432,-1.9437,-1.9424,-1.9424,-1.9424,-1.9424,-1.9424,-1.9424,-1.9424,-1.9472,-1.9766,-2.0054,-2.0327,-2.0568,-2.0902,-2.1089,-2.1029,-2.0862,-2.0762,-2.0762,-2.0481,-2.0321,-2.0321,-2.004,-1.9887,-1.9887,-1.9887,-2.0,-2.0173,-1.9687,-1.8752,-1.7521,-1.6166,-1.5494,0.0,0.0,0.0,-1.0017,-1.0141,-1.0171,0.0,0.0,-0.9984,-0.9944,0.0,0.0,0.0,0.0,0.0,0.0,0.0,0.0,0.0,0.0,0.0,0.0,0.0,0.0,0.0,-1.0599,-1.046,-1.0704,-1.0477,-1.0443,-1.0707,-1.0721,-1.0721,-1.0721,-1.0721,-1.0721,-1.0721,-1.0721,-1.0721,-1.0721,-1.0721,-1.0721,-1.0721,-1.0721,-1.0721,-1.0721,-1.0721,-1.0721,-1.0721,-1.0721,-1.0721,-1.0721,-1.0721,-1.0721,-1.0721,-1.0721,-1.0721,-1.0721,-1.0721,-1.0721,-1.0721,-1.0721,-1.0721,-1.0979,-1.2545,-1.4232,-1.5978,-1.7731,-1.9483,-2.0786,-2.0786,-2.0976,-2.1109,-2.1109,-2.0862,-2.0555,-2.0287,-1.998,-1.9673,-1.9477,-1.9424,-1.9424,-1.9424,-1.9424,-1.9424,-1.9424,-1.9424,-1.9472,-1.9766,-2.0054,-2.0187,-2.0281,-2.0775,-2.1002,-2.0748,-2.0935,-2.1056,-2.1056,-2.0788,-2.0621,-2.0621,-2.0341,-2.012,-2.012,-2.012,-2.0201,-2.0173,-1.8825,-1.8609,-1.9496,-1.9063,-1.8829,0.0,0.0,0.0,0.0,0.0,0.0,-1.0005,-0.9872,-0.9897,0.0,0.0,0.0,0.0,0.0,0.0,0.0,-1.0137,0.0,0.0,0.0,0.0,0.0,0.0,0.0,0.0,0.0,0.0,0.0,-1.0446,-1.0409,-1.0704,-1.0721,-1.0721,-1.0721,-1.0721,-1.0721,-1.0721,-1.0721,-1.0721,-1.0721,-1.0721,-1.0721,-1.0721,-1.0721,-1.0721,-1.0721,-1.0721,-1.0721,-1.0721,-1.0721,-1.0721,-1.0721,-1.0721,-1.0721,-1.0721,-1.0721,-1.0721,-1.0721,-1.0721,-1.0721,-1.0721,-1.0721,-1.0721,-1.1045,-1.2738,-1.4488,-1.6237,-1.7988,-1.9744,-2.1109,-2.1109,-2.1109,-2.1109,-2.1109,-2.0889,-2.0641,-2.0514,-2.0127,-1.9766,-1.9639,-1.9486,-1.9424,-1.9424,-1.9424,-1.9424,-1.9424,-1.9424,-1.947,-1.9533,-1.9806,-1.998,-1.998,-2.0354,-2.0548,-2.0428,-2.0688,-2.0855,-2.0855,-2.0902,-2.0855,-2.0681,-2.0555,-2.0494,-2.0494,-2.0494,-2.0575,-2.0742,-1.9937,-1.9795,-2.024,-1.8101,-1.7124,-0.9365,0.0,0.0,0.0,0.0,0.0,0.0,0.0,0.0,0.0,0.0,0.0,0.0,0.0,0.0,-0.9849,0.0,-1.0022,0.0,0.0,0.0,0.0,0.0,0.0,0.0,0.0,0.0,0.0,0.0,-1.0321,-1.07,-1.0721,-1.0721,-1.0721,-1.0721,-1.0721,-1.0721,-1.0721,-1.0721,-1.0721,-1.0721,-1.0721,-1.0721,-1.0721,-1.0721,-1.0721,-1.0721,-1.0721,-1.0721,-1.0721,-1.0721,-1.0721,-1.0721,-1.0721,-1.0721,-1.0721,-1.0721,-1.0721,-1.0721,-1.0721,-1.0721,-1.0721,-1.1045,-1.1762,-1.3451,-1.5166,-1.6856,-1.8597,-2.0017,-2.0989,-2.0989,-2.1049,-2.1109,-2.1109,-2.0949,-2.0775,-2.0695,-2.0341,-2.0013,-1.9933,-1.9686,-1.9486,-1.9486,-1.9419,-1.9424,-1.9424,-1.9424,-1.9424,-1.9424,-1.9619,-1.9773,-1.9686,-2.0013,-2.0201,-2.012,-2.0388,-2.0555,-2.0555,-2.0755,-2.0775,-2.0568,-2.0555,-2.0555,-2.0555,-2.0555,-2.0661,-2.0869,-2.0661,-2.0555,-2.0486,-1.796,-1.6814,0.0,0.0,0.0,-0.9629,0.0,0.0,0.0,0.0,-0.9936,0.0,0.0,0.0,0.0,-0.9707,-0.9618,-0.9622,0.0,0.0,0.0,0.0,0.0,0.0,0.0,0.0,0.0,0.0,0.0,0.0,0.0,0.0,-1.0687,-1.0721,-1.0721,-1.0721,-1.0721,-1.0721,-1.0721,-1.0721,-1.0721,-1.0721,-1.0721,-1.0721,-1.0721,-1.0721,-1.0721,-1.0721,-1.0721,-1.0721,-1.0721,-1.0721,-1.0721,-1.0721,-1.0721,-1.0721,-1.0721,-1.0721,-1.0721,-1.0721,-1.0721,-1.0721,-1.0721,-1.0721,-1.1828,-1.3517,-1.5265,-1.6855,-1.8393,-2.0116,-2.0688,-2.0688,-2.0688,-2.0902,-2.1109,-2.1109,-2.1102,-2.1022,-2.0735,-2.0661,-2.0561,-2.0274,-1.9987,-1.9786,-1.9786,-1.9553,-1.9424,-1.9424,-1.9424,-1.9424,-1.9424,-1.9619,-1.9693,-1.947,-1.9893,-2.0114,-1.9833,-2.008,-2.0247,-2.0247,-2.0193,-2.0261,-2.0247,-2.0247,-2.0247,-2.0247,-2.0247,-2.0193,-2.02,-2.0193,-2.0247,-2.0187,-2.0113,-2.0045,-0.7524,-0.8536,-0.9387,-0.9857,-1.009,-1.0083,0.0,0.0,0.0,0.0,0.0,0.0,0.0,-0.9781,-0.9747,-0.9747,-0.9707,0.0,0.0,0.0,0.0,0.0,0.0,0.0,0.0,0.0,0.0,0.0,0.0,0.0,0.0,-1.0721,-1.0721,-1.0721,-1.0721,-1.0721,-1.0721,-1.0721,-1.0721,-1.0721,-1.0721,-1.0721,-1.0721,-1.0721,-1.0721,-1.0721,-1.0721,-1.0721,-1.0721,-1.0721,-1.0721,-1.0721,-1.0721,-1.0721,-1.0721,-1.0721,-1.0721,-1.0721,-1.0721,-1.0721,-1.0916,-1.2022,-1.2804,-1.3556,-1.5164,-1.6794,-1.8193,-1.8825,-1.9786,-2.0722,-2.0915,-2.1036,-2.1109,-2.1109,-2.1109,-2.1082,-2.0982,-2.0815,-2.0648,-2.0548,-2.0287,-2.0087,-2.0087,-1.9846,-1.9586,-1.9457,-1.9424,-1.9424,-1.9424,-1.9452,-1.9472,-1.9437,-1.9546,-1.9619,-1.9519,-1.978,-2.0027,-2.016,-2.0173,-2.0173,-2.0173,-2.0173,-2.0173,-2.0173,-2.0173,-2.0173,-2.0173,-2.0173,-2.0173,-2.0173,-2.0173,-2.0341,-0.5623,-0.7154,-0.8549,-0.9018,-0.9803,-1.0304,-0.9798,0.0,-0.9934,0.0,0.0,0.0,0.0,0.0,-0.9839,-0.9893,0.0,0.0,0.0,0.0,0.0,0.0,0.0,0.0,0.0,0.0,0.0,0.0,0.0,0.0,0.0,0.0,-1.0721,-1.0721,-1.0721,-1.0721,-1.0721,-1.0721,-1.0721,-1.0721,-1.0721,-1.0721,-1.0721,-1.0721,-1.0721,-1.0721,-1.0721,-1.0721,-1.0721,-1.0721,-1.0721,-1.0721,-1.0721,-1.0721,-1.0721,-1.0721,-1.1111,-1.1626,-1.1501,-1.1872,-1.2572,-1.3595,-1.4341,-1.5017,-1.5956,-1.7422,-1.8668,-1.8668,-1.9485,-2.0428,-2.0722,-2.0875,-2.0982,-2.1082,-2.1109,-2.1109,-2.1109,-2.0962,-2.0828,-2.0828,-2.0595,-2.0394,-2.0394,-2.0147,-1.9853,-1.9566,-1.9432,-1.9424,-1.9424,-1.9424,-1.9424,-1.9424,-1.9424,-1.9424,-1.9424,-1.9539,-1.9726,-1.9913,-1.9927,-1.9927,-1.9927,-1.9927,-1.9927,-1.9927,-1.9927,-1.9927,-1.9927,-1.9927,-1.9927,-1.9927,-2.0034,-2.018]}]]